[[{"header":{"parameterUnit":"m.s-1","parameterCategory":1,"la1":30.6,"la2":29.2853,"lo1":-89.7004,"lo2":-87.6739,"dy":0.0162,"dx":0.0183,"nx":112,"ny":82,"refTime":"2023-06-04T12:00:00:Z","depth":0,"parameterNumber":2,"parameterNumberName":"U-component_of_WINDS"},"data":[0.0,0.0,0.0,0.0,0.0,0.0,0.0,0.0,0.0,0.0,0.0,0.0,0.0,0.0,0.0,0.0,0.0,0.0,0.0,0.0,0.0,0.0,0.0,0.0,0.0,0.0,0.0,0.0,0.0,0.0,0.0,0.0,0.0,0.0,0.0,0.0,0.0,0.0,0.0,0.0,0.0,0.0,0.0,0.0,0.0,0.0,0.0,0.0,0.0,0.0,0.0,0.0,0.0,0.0,0.0,0.0,0.0,0.0,0.0,0.0,0.0,0.0,0.0,0.0,0.0,0.0,0.0,0.0,0.0,0.0,0.0,0.0,0.0,0.0,0.0,0.0,0.0,0.0,0.0,0.0,0.0,0.0,0.0,0.0,0.0,0.0,0.0,0.0,0.0,0.0,-3.1734,-3.3287,-3.5367,-3.6589,-3.6548,-3.6317,-3.5654,-3.4304,0.0,0.0,0.0,0.0,0.0,0.0,0.0,0.0,0.0,0.0,0.0,0.0,0.0,0.0,0.0,0.0,0.0,0.0,0.0,0.0,0.0,0.0,0.0,0.0,0.0,0.0,0.0,0.0,0.0,0.0,0.0,0.0,0.0,0.0,0.0,0.0,0.0,0.0,0.0,0.0,0.0,0.0,0.0,0.0,0.0,0.0,0.0,0.0,0.0,0.0,0.0,0.0,0.0,0.0,0.0,0.0,0.0,0.0,0.0,0.0,0.0,0.0,0.0,0.0,0.0,0.0,0.0,0.0,0.0,0.0,0.0,0.0,0.0,0.0,0.0,0.0,0.0,0.0,0.0,0.0,0.0,0.0,0.0,0.0,0.0,0.0,0.0,0.0,0.0,0.0,0.0,0.0,0.0,0.0,0.0,0.0,0.0,0.0,0.0,0.0,0.0,0.0,0.0,0.0,-3.2727,-3.4654,-3.6807,-3.8026,-3.7928,-3.6796,-3.5675,-3.4735,0.0,0.0,0.0,0.0,0.0,0.0,0.0,0.0,0.0,0.0,0.0,0.0,0.0,0.0,0.0,0.0,0.0,0.0,0.0,0.0,0.0,0.0,0.0,0.0,0.0,0.0,0.0,0.0,0.0,0.0,0.0,0.0,0.0,0.0,0.0,0.0,0.0,0.0,0.0,0.0,0.0,0.0,0.0,0.0,0.0,0.0,0.0,0.0,0.0,0.0,0.0,0.0,0.0,0.0,0.0,0.0,0.0,0.0,0.0,0.0,0.0,0.0,0.0,0.0,0.0,0.0,0.0,0.0,0.0,0.0,0.0,0.0,0.0,0.0,0.0,0.0,0.0,0.0,0.0,0.0,0.0,0.0,0.0,0.0,0.0,0.0,0.0,0.0,0.0,0.0,0.0,0.0,0.0,0.0,0.0,0.0,0.0,0.0,0.0,0.0,0.0,0.0,0.0,-3.3083,-3.4269,-3.555,-3.7638,-3.8531,-3.7601,-3.6795,-3.565,-3.4033,-3.3397,0.0,0.0,0.0,0.0,0.0,0.0,0.0,0.0,0.0,0.0,0.0,0.0,0.0,0.0,0.0,0.0,0.0,0.0,0.0,0.0,0.0,0.0,0.0,0.0,0.0,0.0,0.0,0.0,0.0,0.0,0.0,0.0,0.0,0.0,0.0,0.0,0.0,0.0,0.0,0.0,0.0,0.0,0.0,0.0,0.0,0.0,0.0,0.0,0.0,0.0,0.0,0.0,0.0,0.0,0.0,0.0,0.0,0.0,0.0,0.0,0.0,0.0,0.0,0.0,0.0,0.0,0.0,0.0,0.0,0.0,0.0,0.0,0.0,0.0,0.0,0.0,0.0,0.0,0.0,0.0,0.0,0.0,0.0,0.0,0.0,0.0,0.0,0.0,0.0,0.0,0.0,0.0,0.0,0.0,0.0,0.0,0.0,0.0,0.0,0.0,0.0,0.0,-3.4247,-3.5143,-3.5725,-3.7796,-3.8397,-3.6646,-3.6568,-3.5678,-3.3454,-3.2887,0.0,0.0,0.0,0.0,0.0,0.0,0.0,0.0,0.0,0.0,0.0,0.0,0.0,0.0,0.0,0.0,0.0,0.0,0.0,0.0,0.0,0.0,0.0,0.0,0.0,0.0,0.0,0.0,0.0,0.0,0.0,0.0,0.0,0.0,0.0,0.0,0.0,0.0,0.0,0.0,0.0,0.0,0.0,0.0,0.0,0.0,0.0,0.0,0.0,0.0,0.0,0.0,0.0,0.0,0.0,0.0,0.0,0.0,0.0,0.0,0.0,0.0,0.0,0.0,0.0,0.0,0.0,0.0,0.0,0.0,0.0,0.0,0.0,0.0,0.0,0.0,0.0,0.0,0.0,0.0,0.0,0.0,0.0,0.0,0.0,0.0,0.0,0.0,0.0,0.0,0.0,0.0,0.0,0.0,0.0,0.0,0.0,0.0,0.0,0.0,0.0,0.0,-3.3996,-3.4235,-3.4798,-3.6954,-3.7462,-3.5548,-3.6174,-3.5762,-3.383,-3.3008,0.0,0.0,0.0,0.0,0.0,0.0,0.0,0.0,0.0,0.0,0.0,0.0,0.0,0.0,0.0,0.0,0.0,0.0,0.0,0.0,0.0,0.0,0.0,0.0,0.0,0.0,0.0,0.0,0.0,0.0,0.0,0.0,0.0,0.0,0.0,0.0,0.0,0.0,0.0,0.0,0.0,0.0,0.0,0.0,0.0,0.0,0.0,0.0,0.0,0.0,0.0,0.0,0.0,0.0,0.0,0.0,0.0,0.0,0.0,0.0,0.0,0.0,0.0,0.0,0.0,0.0,0.0,0.0,0.0,0.0,0.0,0.0,0.0,0.0,0.0,0.0,0.0,0.0,0.0,0.0,0.0,0.0,0.0,0.0,0.0,0.0,0.0,0.0,0.0,0.0,0.0,0.0,0.0,0.0,0.0,0.0,0.0,0.0,0.0,0.0,0.0,0.0,-3.39,-3.4324,-3.4995,-3.6194,-3.6476,-3.5373,-3.5386,-3.491,-3.3556,0.0,0.0,0.0,0.0,0.0,0.0,0.0,0.0,0.0,0.0,0.0,0.0,0.0,0.0,0.0,0.0,0.0,0.0,0.0,0.0,0.0,0.0,0.0,0.0,0.0,0.0,0.0,0.0,0.0,0.0,0.0,0.0,0.0,0.0,0.0,0.0,0.0,0.0,0.0,0.0,0.0,0.0,0.0,0.0,0.0,0.0,0.0,0.0,0.0,0.0,0.0,0.0,0.0,0.0,0.0,0.0,0.0,0.0,0.0,0.0,0.0,0.0,0.0,0.0,0.0,0.0,0.0,0.0,0.0,0.0,0.0,0.0,0.0,0.0,0.0,0.0,0.0,0.0,0.0,0.0,0.0,0.0,0.0,0.0,0.0,0.0,0.0,0.0,0.0,0.0,0.0,0.0,0.0,0.0,0.0,0.0,0.0,0.0,0.0,0.0,0.0,0.0,-3.3525,-3.3661,-3.3962,-3.4693,-3.544,-3.5507,-3.4746,-3.4664,-3.4275,-3.3398,0.0,0.0,0.0,0.0,0.0,0.0,0.0,0.0,0.0,0.0,0.0,0.0,0.0,0.0,0.0,0.0,0.0,0.0,0.0,0.0,0.0,0.0,0.0,0.0,0.0,0.0,0.0,0.0,0.0,0.0,0.0,0.0,0.0,0.0,0.0,0.0,0.0,0.0,0.0,0.0,0.0,0.0,0.0,0.0,0.0,0.0,0.0,0.0,0.0,0.0,0.0,0.0,0.0,0.0,0.0,0.0,0.0,0.0,0.0,0.0,0.0,0.0,0.0,0.0,0.0,0.0,0.0,0.0,0.0,0.0,0.0,0.0,0.0,0.0,0.0,0.0,0.0,0.0,0.0,0.0,0.0,0.0,0.0,0.0,0.0,0.0,0.0,0.0,0.0,0.0,0.0,0.0,0.0,0.0,0.0,0.0,0.0,0.0,0.0,0.0,0.0,0.0,-3.3741,-3.3385,-3.3149,-3.3674,-3.4441,-3.4607,-3.3496,-3.4204,-3.4204,0.0,0.0,0.0,0.0,0.0,0.0,0.0,0.0,0.0,0.0,0.0,0.0,0.0,0.0,0.0,0.0,0.0,0.0,0.0,0.0,0.0,0.0,0.0,0.0,0.0,0.0,0.0,0.0,0.0,0.0,0.0,0.0,0.0,0.0,0.0,0.0,0.0,0.0,0.0,0.0,0.0,0.0,0.0,0.0,0.0,0.0,0.0,0.0,0.0,0.0,0.0,0.0,0.0,0.0,0.0,0.0,0.0,0.0,0.0,0.0,0.0,0.0,0.0,0.0,0.0,0.0,0.0,0.0,0.0,0.0,0.0,0.0,0.0,0.0,0.0,0.0,0.0,0.0,0.0,0.0,0.0,0.0,0.0,0.0,0.0,0.0,0.0,0.0,0.0,0.0,0.0,0.0,0.0,0.0,0.0,0.0,0.0,0.0,0.0,0.0,0.0,0.0,0.0,-3.2829,-3.3344,-3.373,-3.4043,-3.4499,-3.4742,-3.4603,-3.4297,-3.3982,-3.3658,0.0,0.0,0.0,0.0,0.0,0.0,0.0,0.0,0.0,0.0,0.0,0.0,0.0,0.0,0.0,0.0,0.0,0.0,0.0,0.0,0.0,0.0,0.0,0.0,0.0,0.0,0.0,0.0,0.0,0.0,0.0,0.0,0.0,0.0,0.0,0.0,0.0,0.0,0.0,0.0,0.0,0.0,0.0,0.0,0.0,0.0,0.0,0.0,0.0,0.0,0.0,0.0,0.0,0.0,0.0,0.0,0.0,0.0,0.0,0.0,0.0,0.0,0.0,0.0,0.0,0.0,0.0,0.0,0.0,0.0,0.0,0.0,0.0,0.0,0.0,0.0,0.0,0.0,0.0,0.0,0.0,0.0,0.0,0.0,0.0,0.0,0.0,0.0,0.0,0.0,0.0,0.0,0.0,0.0,0.0,0.0,0.0,0.0,0.0,0.0,0.0,0.0,-3.271,-3.3444,-3.3985,-3.406,-3.4476,-3.4726,-3.4918,-3.4514,-3.4135,-3.3909,0.0,0.0,0.0,0.0,0.0,0.0,0.0,0.0,0.0,0.0,0.0,0.0,0.0,0.0,0.0,0.0,0.0,0.0,0.0,0.0,0.0,0.0,0.0,0.0,0.0,0.0,0.0,0.0,0.0,0.0,0.0,0.0,0.0,0.0,0.0,0.0,0.0,0.0,0.0,0.0,0.0,0.0,0.0,0.0,0.0,0.0,0.0,0.0,0.0,0.0,0.0,0.0,0.0,0.0,0.0,0.0,0.0,0.0,0.0,0.0,0.0,0.0,0.0,0.0,0.0,0.0,0.0,0.0,0.0,0.0,0.0,0.0,0.0,0.0,0.0,0.0,0.0,0.0,0.0,0.0,0.0,0.0,0.0,0.0,0.0,0.0,0.0,0.0,0.0,0.0,0.0,0.0,0.0,0.0,0.0,0.0,0.0,0.0,0.0,0.0,0.0,0.0,-3.3081,-3.3633,-3.3997,-3.4048,-3.455,-3.4876,-3.4876,-3.4826,-3.4587,-3.4085,0.0,0.0,0.0,0.0,0.0,0.0,0.0,0.0,0.0,0.0,0.0,0.0,0.0,0.0,0.0,0.0,0.0,0.0,0.0,0.0,0.0,0.0,0.0,0.0,0.0,0.0,0.0,0.0,0.0,0.0,0.0,0.0,0.0,0.0,0.0,0.0,0.0,0.0,0.0,0.0,0.0,0.0,0.0,0.0,0.0,0.0,0.0,0.0,0.0,0.0,0.0,0.0,0.0,0.0,0.0,0.0,0.0,0.0,0.0,0.0,-3.9104,-3.9104,0.0,0.0,0.0,0.0,0.0,0.0,0.0,0.0,0.0,0.0,0.0,0.0,0.0,0.0,0.0,0.0,0.0,0.0,0.0,0.0,0.0,0.0,0.0,0.0,0.0,0.0,0.0,0.0,0.0,0.0,0.0,0.0,0.0,0.0,0.0,0.0,0.0,0.0,0.0,0.0,-3.3658,-3.4211,-3.4713,-3.5152,-3.5692,-3.6006,-3.6006,-3.5617,-3.5316,-3.5203,-3.4595,0.0,0.0,0.0,0.0,0.0,0.0,0.0,0.0,0.0,0.0,0.0,0.0,0.0,0.0,0.0,0.0,0.0,0.0,0.0,0.0,0.0,0.0,0.0,0.0,0.0,0.0,0.0,0.0,0.0,0.0,0.0,0.0,0.0,0.0,0.0,0.0,0.0,0.0,0.0,0.0,0.0,0.0,0.0,0.0,0.0,0.0,0.0,0.0,0.0,0.0,0.0,0.0,0.0,0.0,0.0,0.0,0.0,0.0,0.0,-3.887,-3.887,0.0,0.0,0.0,0.0,0.0,0.0,0.0,0.0,0.0,0.0,0.0,0.0,0.0,0.0,0.0,0.0,0.0,0.0,0.0,0.0,0.0,0.0,0.0,0.0,0.0,0.0,0.0,0.0,0.0,0.0,0.0,0.0,0.0,0.0,0.0,0.0,0.0,0.0,0.0,0.0,-3.3859,-3.4613,-3.5228,-3.5516,-3.6031,-3.6358,-3.6358,-3.6013,-3.5656,-3.5381,-3.4817,0.0,0.0,0.0,0.0,0.0,0.0,0.0,0.0,0.0,0.0,0.0,0.0,0.0,0.0,0.0,0.0,0.0,0.0,0.0,0.0,0.0,0.0,0.0,0.0,0.0,0.0,0.0,0.0,0.0,0.0,0.0,0.0,0.0,0.0,0.0,0.0,0.0,0.0,0.0,0.0,0.0,0.0,0.0,0.0,0.0,0.0,0.0,0.0,0.0,0.0,0.0,0.0,0.0,-3.8841,-3.89,-3.8974,-3.9003,-3.8987,-3.8852,-3.8987,-3.8855,-3.8516,-3.8649,0.0,0.0,0.0,0.0,0.0,0.0,0.0,0.0,0.0,0.0,0.0,0.0,0.0,0.0,0.0,0.0,0.0,0.0,0.0,0.0,0.0,0.0,-3.3219,-3.3219,-3.3294,-3.337,-3.3357,0.0,0.0,0.0,0.0,0.0,0.0,0.0,0.0,0.0,0.0,0.0,-3.4173,-3.4989,-3.5579,-3.568,-3.6094,-3.6358,-3.637,-3.6098,-3.5817,-3.5276,-3.5051,-3.4617,0.0,0.0,0.0,0.0,0.0,0.0,0.0,0.0,0.0,0.0,0.0,0.0,0.0,0.0,0.0,0.0,0.0,0.0,0.0,0.0,0.0,0.0,0.0,0.0,0.0,0.0,0.0,0.0,0.0,0.0,0.0,0.0,-3.3381,-3.4332,0.0,0.0,0.0,0.0,0.0,0.0,0.0,0.0,0.0,0.0,0.0,0.0,0.0,-3.9017,-3.8782,-3.8649,-3.8649,-3.8797,-3.9011,-3.9302,-3.9681,-3.9843,-4.0013,-4.0169,-3.9998,0.0,-3.8516,-3.8352,0.0,0.0,0.0,0.0,0.0,0.0,0.0,0.0,0.0,0.0,0.0,0.0,0.0,0.0,0.0,0.0,0.0,0.0,0.0,0.0,0.0,0.0,-3.3696,-3.352,-3.397,-3.441,-3.4217,-3.357,-3.3081,-3.3081,-3.3081,-3.3081,0.0,0.0,0.0,0.0,0.0,0.0,-3.5265,-3.5454,-3.573,-3.6207,-3.632,-3.6275,-3.6098,-3.6015,-3.5883,-3.5618,-3.5318,-3.4978,-3.4723,-3.4356,0.0,0.0,0.0,0.0,0.0,0.0,0.0,0.0,0.0,0.0,0.0,0.0,0.0,0.0,0.0,0.0,0.0,0.0,0.0,0.0,0.0,0.0,0.0,0.0,0.0,0.0,0.0,0.0,0.0,-3.2695,-3.3728,-3.4601,-3.5185,-3.5592,0.0,0.0,0.0,0.0,0.0,0.0,0.0,0.0,0.0,-3.8943,-3.9313,-3.9357,-3.9071,-3.9255,-3.943,-3.9569,-3.9644,-3.9775,-3.9945,-4.0051,-4.0182,-4.0261,-4.0182,-3.9862,-3.943,-3.9262,-3.9339,-3.943,0.0,0.0,0.0,0.0,-3.8488,-3.7312,-3.6899,-3.5912,-3.4705,-3.3743,0.0,0.0,0.0,0.0,0.0,0.0,0.0,-3.3655,-3.3655,-3.3739,-3.3913,-3.3822,-3.4008,-3.4272,-3.4181,-3.381,-3.3655,-3.3719,-3.3808,-3.3808,-3.3808,-3.3931,0.0,0.0,0.0,-3.5265,-3.5516,-3.5631,-3.5918,-3.6168,-3.5991,-3.5895,-3.5812,-3.562,-3.5512,-3.5416,-3.5126,-3.4921,-3.4787,-3.4389,-3.4028,0.0,0.0,0.0,0.0,0.0,0.0,0.0,0.0,0.0,0.0,0.0,0.0,0.0,0.0,0.0,0.0,0.0,0.0,0.0,0.0,0.0,0.0,0.0,0.0,0.0,0.0,0.0,0.0,-3.352,-3.4016,-3.4802,-3.5149,-3.5659,0.0,0.0,0.0,0.0,0.0,0.0,-3.9394,-3.9516,-3.9445,-3.9047,-3.962,-3.9821,-3.9421,-3.9871,-4.0104,-4.0104,-4.0263,-4.035,-4.0365,-4.0525,-4.0612,-4.0612,-4.0612,-4.0612,-4.0583,-4.0234,-4.0104,-4.0104,-4.0104,-3.9828,-3.9479,-3.9679,-3.8899,-3.755,-3.6685,-3.5759,-3.4761,-3.3421,-3.3045,-3.297,-3.2894,0.0,0.0,0.0,0.0,-3.401,-3.401,-3.4109,-3.4219,-3.4115,-3.4225,-3.4416,-3.4323,-3.4323,-3.433,-3.423,-3.426,-3.426,-3.426,-3.4384,0.0,-3.4666,-3.5219,-3.5569,-3.5569,-3.5754,-3.592,-3.592,-3.5716,-3.562,-3.5512,-3.532,-3.5126,-3.5126,-3.4932,-3.4823,-3.4823,-3.4451,-3.4246,-3.4246,0.0,0.0,0.0,0.0,0.0,0.0,0.0,0.0,0.0,0.0,0.0,0.0,0.0,0.0,0.0,0.0,0.0,0.0,0.0,0.0,0.0,0.0,0.0,0.0,0.0,0.0,0.0,0.0,0.0,-3.4868,-3.548,0.0,0.0,0.0,0.0,-3.8392,-3.899,-3.9379,-3.9424,-3.9802,-3.9995,-3.9755,-4.0129,-4.0295,-4.006,-4.0075,-4.0104,-4.0104,-4.0742,-4.1047,-4.1062,-4.17,-4.199,-4.199,-4.199,-4.199,-4.1903,-4.0626,-4.0104,-4.0104,-4.0104,-4.0075,-3.9967,-3.9088,-3.8173,-3.7223,-3.6079,-3.5048,-3.4301,-3.4016,-3.3924,-3.3924,-3.3924,-3.3949,0.0,0.0,-3.3986,-3.401,-3.401,-3.4391,-3.4679,-3.4478,-3.4976,-3.5439,-3.5234,-3.5343,-3.5227,-3.4207,-3.401,-3.401,-3.401,0.0,-3.4772,-3.4772,-3.5227,-3.5571,-3.5571,-3.5608,-3.562,-3.562,-3.562,-3.5524,-3.5223,-3.5223,-3.5126,-3.4823,-3.4823,-3.4823,-3.4823,-3.4799,-3.4787,-3.4787,-3.427,0.0,0.0,0.0,0.0,0.0,0.0,0.0,0.0,0.0,0.0,0.0,0.0,0.0,0.0,0.0,0.0,0.0,0.0,0.0,0.0,0.0,0.0,0.0,0.0,0.0,0.0,0.0,0.0,-3.5292,-3.5541,0.0,-3.7128,-3.7701,-3.8201,-3.8631,-3.9298,-3.9684,-3.9684,-4.0155,-4.0418,-4.0173,-4.0739,-4.0916,-4.0742,-4.1163,-4.1381,-4.1381,-4.1628,-4.1744,-4.1744,-4.199,-4.2092,-4.2092,-4.2092,-4.2092,-4.2063,-4.1584,-4.1381,-4.1381,-4.1381,-4.112,-4.08,-4.0881,-3.955,-3.7658,-3.7283,-3.6071,-3.4545,-3.3924,-3.3642,-3.3562,-3.3562,-3.3793,-3.4047,-3.4047,-3.429,-3.4556,-3.4556,-3.4702,-3.4751,-3.4643,-3.4884,-3.503,-3.4932,-3.503,-3.5005,-3.4629,-3.4652,-3.4747,-3.4747,-3.4917,-3.5135,-3.5325,-3.5498,-3.562,-3.562,-3.5416,-3.532,-3.532,-3.5223,-3.503,-3.4932,-3.492,-3.492,-3.4835,-3.4823,-3.4823,-3.4823,-3.4823,-3.4823,-3.4823,-3.4643,-3.4547,0.0,0.0,0.0,0.0,0.0,0.0,0.0,0.0,0.0,0.0,0.0,0.0,0.0,0.0,0.0,0.0,0.0,0.0,0.0,0.0,0.0,0.0,0.0,0.0,0.0,-3.467,-3.4947,-3.5629,-3.6069,-3.667,-3.7664,-3.8222,-3.8664,-3.9092,-3.974,-4.0123,-4.0123,-4.0665,-4.0862,-4.0768,-4.1332,-4.1601,-4.1439,-4.1874,-4.2092,-4.2092,-4.2092,-4.2092,-4.2092,-4.2092,-4.2092,-4.2092,-4.2092,-4.2092,-4.2092,-4.2092,-4.2009,-4.1926,-4.2009,-4.1555,-4.085,-4.0929,-3.9578,-3.7553,-3.7168,-3.602,-3.4734,-3.4193,-3.3895,-3.3813,-3.3813,-3.4042,-3.4306,-3.4306,-3.4559,-3.4823,-3.4823,-3.4823,-3.4823,-3.4823,-3.4823,-3.4823,-3.4823,-3.4823,-3.4823,-3.4823,-3.492,-3.503,-3.503,-3.503,-3.5126,-3.532,-3.532,-3.532,-3.532,-3.5126,-3.503,-3.503,-3.4932,-3.4823,-3.4823,-3.4823,-3.4823,-3.4823,-3.4823,-3.4823,-3.4823,-3.4823,-3.4823,-3.4823,-3.4421,-3.4115,-3.3709,0.0,0.0,0.0,0.0,0.0,0.0,0.0,0.0,0.0,0.0,0.0,0.0,0.0,0.0,0.0,0.0,0.0,0.0,0.0,0.0,0.0,0.0,0.0,-3.4578,-3.5117,-3.5511,-3.5884,-3.6946,-3.7652,-3.7811,-3.9047,-3.9814,-3.9829,-4.0356,-4.0709,-4.0709,-4.1184,-4.139,-4.139,-4.184,-4.2092,-4.2092,-4.2092,-4.2092,-4.2092,-4.2092,-4.2092,-4.2092,-4.2092,-4.2092,-4.2092,-4.2092,-4.2092,-4.2092,-4.2092,-4.1829,-4.1396,-4.1926,-4.1353,-4.0159,-3.9169,-3.8094,-3.6832,-3.5584,-3.503,-3.4823,-3.4823,-3.4823,-3.4823,-3.4823,-3.4823,-3.4823,-3.4823,-3.4823,-3.4823,-3.4823,-3.4823,-3.4823,-3.4823,-3.4823,-3.4823,-3.4823,-3.4823,-3.4823,-3.4823,-3.4823,-3.4823,-3.4823,-3.4823,-3.4823,-3.4823,-3.4823,0.0,-3.4823,-3.4823,-3.4823,-3.4823,-3.4823,-3.4823,-3.4823,-3.4823,-3.4823,-3.4823,-3.4823,-3.4823,-3.4726,-3.4823,-3.4823,-3.4823,-3.3709,-3.2689,-3.1677,0.0,0.0,0.0,0.0,0.0,0.0,0.0,0.0,0.0,0.0,0.0,0.0,0.0,0.0,0.0,0.0,0.0,0.0,0.0,0.0,0.0,-3.3035,-3.4214,-3.5096,-3.5325,-3.5776,-3.6793,-3.7157,-3.7725,-3.8731,-3.9139,-3.9532,-3.9969,-4.061,-4.0989,-4.0989,-4.1549,-4.1913,-4.1913,-4.2005,-4.2092,-4.2092,-4.2092,-4.2092,-4.2092,-4.2092,-4.2092,-4.2092,-4.2092,-4.2092,-4.2092,-4.2092,-4.1926,-4.1578,-4.1578,-4.1311,-4.0958,-4.1396,-4.1213,-4.0488,-3.9678,-3.8289,-3.6539,-3.5283,-3.4823,-3.4823,-3.4823,-3.4823,-3.4823,-3.4823,-3.4823,-3.4823,-3.4823,-3.4823,-3.4823,-3.4823,-3.4823,-3.4823,-3.4823,-3.4823,-3.4823,-3.4823,-3.4823,-3.4823,-3.4823,-3.4823,-3.4823,-3.4823,-3.4823,-3.4823,-3.4823,-3.4823,-3.4823,-3.4823,-3.4823,-3.4823,-3.4823,-3.4823,-3.4823,-3.4823,-3.4823,-3.4823,-3.4823,-3.4823,-3.4421,-3.3709,-3.4421,-3.4823,-3.4823,-3.3709,-3.3101,0.0,0.0,0.0,0.0,0.0,0.0,0.0,0.0,0.0,0.0,0.0,0.0,0.0,0.0,0.0,0.0,0.0,0.0,0.0,0.0,0.0,0.0,-3.3484,-3.4882,-3.6027,-3.6185,-3.646,-3.7215,-3.7535,-3.8086,-3.9102,-3.9421,-3.9842,-4.0466,-4.1134,-4.1512,-4.1512,-4.1889,-4.2092,-4.2092,-4.2092,-4.2092,-4.2092,-4.2092,-4.2092,-4.2092,-4.2092,-4.2092,-4.2092,-4.2092,-4.2092,-4.2092,-4.1926,-4.1662,-4.1396,-4.1227,-4.0873,-4.043,0.0,0.0,0.0,0.0,-3.6832,-3.5726,-3.5005,-3.4823,-3.4823,-3.4823,-3.4823,-3.4823,-3.4823,-3.4823,-3.4823,-3.4823,-3.4823,-3.4823,-3.4823,-3.4823,-3.4823,-3.4823,-3.4823,-3.4823,-3.4823,-3.4823,-3.4823,-3.4823,-3.4823,0.0,-3.4823,-3.4823,-3.4823,-3.4823,-3.4823,-3.4823,-3.4823,-3.4823,-3.4823,-3.4823,-3.4823,-3.4823,-3.4823,-3.4823,0.0,0.0,0.0,-3.4323,-3.3201,-3.3411,0.0,0.0,0.0,-3.1564,-3.1154,-3.0546,0.0,0.0,-3.0442,-3.0959,0.0,0.0,0.0,0.0,0.0,0.0,0.0,0.0,0.0,0.0,0.0,0.0,0.0,0.0,0.0,0.0,-3.3963,-3.554,-3.6996,-3.736,-3.7404,-3.7404,-3.7883,-3.8492,-3.9233,-3.9784,-4.0408,-4.1149,-4.1758,-4.2092,-4.2092,-4.2092,0.0,0.0,0.0,-4.2092,-4.2092,-4.2092,-4.2092,-4.2092,-4.2009,-4.2009,-4.2009,-4.2009,-4.1926,-4.1926,-4.148,-4.1311,-4.1227,-4.0787,-4.0257,-3.9821,-4.0257,-3.9326,-3.7481,-3.5655,-3.4932,-3.4823,-3.4823,0.0,0.0,-3.4823,-3.4823,-3.4823,-3.4823,-3.4823,-3.4823,-3.4823,-3.4823,-3.4823,-3.4823,-3.4823,-3.4823,-3.4823,-3.4823,-3.4823,-3.4823,-3.4823,-3.4823,-3.4823,-3.4823,-3.4823,-3.4823,-3.4823,-3.4823,-3.4823,-3.4823,-3.4823,-3.4823,-3.4823,-3.4823,-3.4823,-3.4823,0.0,-3.4823,-3.4823,-3.4823,-3.4823,-3.4726,-3.4213,-3.3201,-3.2185,-3.1165,-3.013,-2.9922,-2.9408,-2.8495,-2.8398,-2.8291,-2.8398,-3.0349,-3.1268,0.0,0.0,0.0,0.0,0.0,0.0,0.0,0.0,0.0,0.0,0.0,0.0,0.0,0.0,0.0,-3.1948,-3.4402,-3.6484,-3.6802,-3.7486,-3.8028,-3.8028,-3.813,-3.8652,-3.9813,-4.0031,-4.0597,-4.1816,-4.202,-4.2092,-4.2092,-4.2092,-4.2092,-4.2092,-4.2092,-4.2092,-4.2092,-4.2092,-4.2092,-4.2092,-4.1745,0.0,-4.148,-4.1128,-4.0958,-4.0958,-4.0873,-4.0616,-4.0257,-4.017,-3.9543,-3.8562,-3.8652,-3.8082,-3.715,-3.6143,-3.5404,-3.4823,-3.4823,-3.4823,-3.4823,-3.4823,-3.4823,-3.4823,-3.4823,-3.4823,0.0,-3.4823,-3.4823,-3.4823,-3.4823,-3.4823,-3.4823,-3.4823,-3.4823,-3.4823,-3.4823,-3.4823,-3.4823,-3.4823,-3.4823,-3.4823,-3.4823,-3.4823,-3.4823,-3.4823,-3.4823,-3.4823,-3.4823,-3.4823,-3.4823,-3.4823,-3.4823,-3.4823,-3.4823,-3.4823,-3.4823,-3.4823,-3.4017,-3.3411,-3.3201,-3.2185,-3.1472,-3.1268,-3.0338,-2.9817,-2.9618,-2.8698,-2.8291,-2.8291,-2.8708,-2.891,0.0,0.0,0.0,0.0,0.0,0.0,0.0,0.0,0.0,0.0,0.0,-2.8742,-2.8859,0.0,-3.1876,-3.2502,-3.4612,-3.633,-3.7035,-3.7562,-3.7976,-3.8202,-3.8202,-3.858,-3.9567,-3.9915,-4.0525,-4.1512,-4.1903,-4.2092,-4.2092,-4.2092,-4.2092,-4.2092,-4.2092,-4.2092,-4.2092,-4.2092,-4.2009,-4.1745,-4.148,-4.1311,-4.1043,-4.0787,-4.0702,-4.0702,-4.043,-4.0257,-3.9908,-3.938,-3.8742,-3.8109,-3.7361,-3.6896,-3.6427,-3.5667,-3.5114,-3.4823,-3.4823,-3.4823,-3.4823,-3.4823,-3.4823,-3.4823,-3.4823,-3.4823,-3.4823,-3.4823,-3.4823,-3.4823,-3.4823,-3.4823,-3.4823,-3.4823,-3.4823,-3.4823,-3.4823,-3.4823,-3.4823,-3.4823,-3.4823,-3.4823,-3.4823,-3.4823,-3.4823,-3.4823,-3.4823,-3.4823,-3.4823,-3.4823,-3.4823,-3.4823,-3.4823,-3.4823,-3.4823,-3.4823,-3.4823,-3.4823,-3.33,-3.2387,-3.2387,-3.0856,-2.9932,-2.9932,-2.9418,-2.9112,-2.9112,-2.8601,-2.8291,-2.8291,-2.8291,-2.8291,0.0,0.0,0.0,0.0,0.0,0.0,0.0,-2.4832,-2.6498,-2.7522,-2.8194,-2.8626,-2.9056,-3.048,-3.1937,-3.3151,-3.4631,-3.6045,-3.7246,-3.7457,-3.761,-3.8052,-3.8127,-3.8463,-3.9131,-3.9755,-4.0379,-4.1047,-4.1715,-4.2092,-4.2092,-4.2092,-4.2092,-4.2092,-4.2009,-4.1926,-4.1926,-4.1829,-4.1662,-4.1227,-4.1142,-4.0958,-4.053,-4.0443,-4.043,-4.043,-3.9996,-3.9821,-3.9733,-3.8472,-3.8018,-3.7821,-3.6332,-3.5775,-3.5679,-3.5017,-3.4823,-3.4823,-3.4823,-3.4823,-3.4823,-3.4823,-3.4823,-3.4823,-3.4823,-3.4823,-3.4823,-3.4823,-3.4823,-3.4823,-3.4823,-3.4823,-3.4823,-3.4823,-3.4823,-3.4823,-3.4823,-3.4823,-3.4823,-3.4823,-3.4823,-3.4823,-3.4823,-3.4726,-3.4628,-3.4823,-3.4726,-3.4628,-3.4823,-3.4726,-3.4628,-3.4823,-3.4823,-3.4823,-3.4823,-3.4628,-3.4519,-3.4519,-3.2689,-3.1472,-3.1268,-2.9523,-2.8388,-2.8184,-2.8184,-2.8077,-2.8077,-2.8077,-2.8077,-2.8077,-2.8077,-2.8184,-1.7456,-1.829,-1.8851,-1.945,-2.0263,-2.1509,0.0,-2.4584,-2.542,-2.693,-2.7964,-2.8645,-2.8692,-3.0857,-3.2808,-3.2937,-3.4862,-3.6308,-3.6549,-3.685,-3.7226,-3.761,-3.7976,-3.8463,-3.9131,-3.9755,-4.0379,-4.1047,-4.1715,-4.2092,-4.2092,-4.2092,-4.2092,-4.2092,-4.1662,-4.148,-4.148,-4.1043,-4.0873,-4.0787,-4.0343,-4.0083,-4.0083,-3.9645,-3.9482,-3.9482,-3.9394,-3.9394,-3.9292,-3.7808,-3.7243,-3.7057,-3.5571,-3.492,-3.492,-3.4823,-3.4823,-3.4823,-3.4823,-3.4823,-3.4823,-3.4823,-3.4823,-3.4823,-3.4823,-3.4823,-3.4823,-3.4823,-3.4823,-3.4823,-3.4823,-3.4823,-3.4823,-3.4823,-3.4823,-3.4823,-3.4823,-3.4823,-3.4823,-3.4823,-3.4823,-3.4823,-3.4823,-3.4433,-3.4237,-3.4726,-3.4433,-3.4237,-3.4738,-3.4335,-3.4237,-3.4726,-3.4823,-3.4823,-3.4823,-3.3918,-3.3411,-3.3411,-3.2286,-3.1165,-3.013,-2.9597,-2.888,-2.796,-2.7638,-2.7539,-2.7539,-2.7539,-2.7539,-2.7539,-2.7539,-2.7755,-1.7049,-1.7797,-1.8201,-1.9292,-2.0575,-2.1927,-2.3402,-2.4838,-2.5942,-2.6648,-2.7504,-2.8537,-2.9499,-3.1249,-3.2791,-3.3801,-3.5143,-3.6058,-3.6391,-3.6549,-3.6772,-3.7226,-3.7366,-3.7787,-3.8518,-3.9204,-3.9619,-3.9643,-4.0593,-4.1004,-4.077,-4.1112,-4.1311,-4.1311,-4.1043,-4.0958,-4.0958,-4.0787,-4.053,-4.0257,-4.0083,-3.9821,-3.9557,-3.9394,-3.9305,-3.9305,-3.8845,-3.8666,-3.8575,-3.7083,-3.6427,-3.6332,-3.5199,-3.4823,-3.4823,-3.4823,-3.4823,-3.4823,-3.4823,-3.4823,-3.4823,-3.4823,-3.4628,-3.4335,-3.4335,-3.4139,-3.3843,-3.3843,-3.3843,-3.3843,-3.3843,-3.3843,-3.3843,-3.3843,-3.3843,-3.3843,-3.3843,-3.3843,-3.3843,-3.3843,-3.3843,-3.3843,-3.3843,-3.3645,-3.3645,-3.3843,-3.3645,-3.3645,-3.3843,-3.3645,-3.3434,-3.3201,-3.3201,-3.2989,-3.2454,-3.205,-3.1746,-3.1746,-3.0732,-2.9922,-2.9398,-2.8668,-2.8048,-2.7638,-2.7431,-2.7431,-2.7431,-2.7431,-2.7431,-2.7431,-2.7431,-2.7539,-1.664,-1.7229,-1.7708,-1.9204,-2.0694,-2.2078,-2.3353,-2.4903,-2.6113,-2.6257,-2.7211,-2.8434,-3.0049,-3.1509,-3.2949,-3.4472,-3.5291,-3.5804,-3.6152,-3.6232,-3.6377,-3.6758,-3.6836,-3.7148,-3.7825,-3.8491,-3.8788,-3.8631,-3.9472,-3.9839,-3.9605,-3.9943,-4.0182,-4.0182,-4.0097,-4.0012,-4.0012,-3.9842,-3.967,-3.9339,-3.9339,-3.9248,-3.9061,-3.9224,-3.9216,-3.8935,-3.8395,-3.8109,-3.7821,-3.6521,-3.5966,-3.5966,-3.5114,-3.4823,-3.4823,-3.4628,-3.4628,-3.4823,-3.4823,-3.4823,-3.4823,-3.4823,-3.4531,-3.4237,-3.404,-3.3744,-3.3346,-3.3247,-3.3247,-3.3247,-3.3247,-3.3247,-3.3247,-3.3247,-3.3247,-3.3247,-3.3247,-3.3247,-3.3247,-3.3247,-3.3247,-3.3247,-3.3247,-3.3047,-3.2935,-3.2935,-3.2835,-3.2846,-3.3147,-3.3247,-3.2924,-3.2083,-3.1971,-3.1655,-3.0813,-3.0411,-3.0307,-3.0307,-2.9187,-2.8668,-2.8668,-2.7736,-2.7323,-2.7323,-2.7215,-2.7225,-2.7225,-2.7225,-2.7225,-2.7225,-2.7225,-2.7225,-1.6402,-1.6722,-1.7538,-1.9204,-2.0305,-2.153,-2.369,-2.4492,-2.506,-2.5797,-2.7078,-2.843,-2.9604,-3.1552,-3.331,-3.4538,-3.5291,-3.571,-3.571,-3.571,-3.5884,-3.6391,-3.6405,-3.6549,-3.6993,-3.7619,-3.8145,-3.8553,-3.8819,-3.8929,-3.8929,-3.8943,-3.8957,-3.8957,-3.8532,-3.8297,-3.8297,-3.7822,-3.7582,-3.7582,-3.7582,-3.7881,-3.8464,-3.9034,-3.8935,-3.82,-3.82,-3.7821,-3.7057,-3.6332,-3.5966,-3.5966,-3.5114,-3.4823,-3.4738,-3.4237,-3.4335,-3.4823,-3.4823,-3.4823,-3.4823,-3.4823,-3.4823,-3.4628,-3.4139,-3.3941,-3.3843,-3.3346,-3.3247,-3.3247,-3.3247,-3.3247,-3.3247,-3.3247,-3.3247,-3.3247,-3.3247,-3.3247,-3.3247,-3.3247,-3.3247,-3.3247,-3.3247,-3.2734,-3.2409,-3.2409,-3.2026,-3.2026,-3.3047,-3.3247,-3.2924,-3.2083,-3.1971,-3.1655,-3.0813,-2.9702,-2.9187,-2.9187,-2.8048,-2.7431,-2.7431,-2.7206,-2.6989,-2.6989,-2.68,-2.6582,-2.6582,-2.6582,-2.6582,-2.6582,-2.6582,-2.6582,-1.6162,-1.6402,-1.7041,-1.8859,-2.0164,-2.1457,-2.3444,-2.4658,-2.5365,-2.5611,-2.6746,-2.7919,-2.9083,-3.1113,-3.287,-3.4082,-3.5032,-3.571,-3.571,-3.571,-3.5723,-3.5884,-3.5978,-3.6138,-3.6549,-3.7032,-3.7223,-3.7158,-3.7571,-3.7742,-3.7387,-3.7786,-3.7936,-3.7936,-3.7852,-3.7768,-3.7768,-3.7612,-3.7528,-3.7528,-3.7528,-3.7636,-3.784,-3.803,-3.7893,-3.7556,-3.7079,-3.6632,-3.6332,-3.5488,-3.5005,-3.4617,-3.4323,-3.404,-3.3744,-3.3545,-3.3545,-3.3744,-3.3744,-3.3744,-3.3744,-3.3744,-3.3534,-3.3212,-3.3024,-3.2723,-3.2331,-3.2229,-3.2128,-3.2128,-3.2128,-3.2128,-3.2128,-3.2128,-3.2128,-3.2128,-3.2128,-3.2128,-3.2128,-3.2128,-3.2128,-3.2128,-3.2128,-3.2026,-3.1823,-3.1823,-3.1721,-3.1721,-3.2128,-3.2128,-3.1607,-3.0224,-3.012,-2.9493,-2.8145,-2.7628,-2.7422,-2.7422,-2.7107,-2.6909,-2.6909,-2.68,-2.6682,-2.6682,-2.67,-2.6591,-2.6591,-2.6591,-2.6591,-2.6591,-2.6591,-2.6591,-1.5914,-1.6072,-1.6624,-1.8532,-1.9751,-2.1037,-2.3111,-2.4331,-2.5198,-2.5432,-2.626,-2.7359,-2.8694,-3.0601,-3.2388,-3.3779,-3.4937,-3.5642,-3.571,-3.571,-3.571,-3.571,-3.571,-3.5804,-3.6138,-3.6363,-3.6522,-3.6405,-3.6589,-3.6633,-3.628,-3.6673,-3.689,-3.689,-3.689,-3.689,-3.689,-3.689,-3.689,-3.689,-3.7107,-3.7202,-3.7216,-3.7151,-3.693,-3.6582,-3.5852,-3.5437,-3.5206,-3.4535,-3.4169,-3.3941,-3.3744,-3.3545,-3.3147,-3.2935,-3.2935,-3.2935,-3.3147,-3.3247,-3.3247,-3.3247,-3.2946,-3.2622,-3.2409,-3.2117,-3.1823,-3.1618,-3.1618,-3.1618,-3.1618,-3.1618,-3.1618,-3.1618,-3.1618,-3.1618,-3.1618,-3.1618,-3.1618,-3.1618,-3.1618,-3.1618,-3.1618,-3.1618,-3.1618,-3.1618,-3.1618,-3.1618,-3.1618,-3.1322,-3.0681,-2.9303,-2.8774,-2.8038,-2.6691,-2.6591,-2.6591,-2.6591,-2.6591,-2.6591,-2.6591,-2.6591,-2.6591,-2.6591,-2.6591,-2.6591,-2.6591,-2.6591,-2.6591,-2.6591,-2.6591,-2.6591,-1.5658,-1.565,-1.6139,-1.8069,-1.9084,-2.0216,-2.2544,-2.3679,-2.4409,-2.502,-2.5765,-2.6747,-2.8357,-3.0069,-3.1821,-3.3643,-3.4772,-3.548,-3.5629,-3.571,-3.571,-3.571,-3.571,-3.571,-3.571,-3.571,-3.5884,-3.6312,-3.5965,-3.571,-3.571,-3.571,-3.571,-3.571,-3.571,-3.571,-3.571,-3.571,-3.571,-3.5723,-3.628,-3.6551,-3.6495,-3.6444,-3.6018,-3.5264,-3.4638,-3.4151,-3.3899,-3.3325,-3.3437,-3.3796,-3.3312,-3.3124,-3.3047,-3.2521,-3.2308,-3.242,-3.2946,-3.3147,-3.3147,-3.3147,-3.3147,-3.3047,-3.2521,-3.2308,-3.2218,-3.1721,-3.1618,-3.1618,-3.1618,-3.1618,-3.1618,-3.1618,-3.1618,-3.1618,-3.1618,-3.1618,-3.1618,-3.1618,-3.1618,-3.1618,-3.1618,-3.1618,-3.1618,-3.1618,-3.1516,-3.1516,-3.1618,-3.0909,-3.0068,-2.9197,-2.8349,-2.752,-2.6691,-2.6591,-2.6591,-2.6591,-2.6591,-2.6591,-2.6591,-2.6591,-2.6591,-2.6591,-2.6591,-2.6591,-2.6591,-2.6591,-2.6591,-2.6591,-2.6591,-2.6591,-1.5423,-1.5582,-1.5974,-1.709,-1.8499,-2.0053,-2.1627,-2.3176,-2.4336,-2.4851,-2.568,-2.6498,-2.7283,-2.9491,-3.1565,-3.261,-3.4262,-3.548,-3.5629,-3.571,-3.571,-3.571,-3.571,-3.571,-3.571,-3.571,-3.5723,-3.5884,-3.5804,-3.571,-3.571,-3.571,-3.571,-3.571,-3.571,-3.571,-3.571,-3.571,-3.571,-3.571,-3.5873,-3.5683,-3.5189,-3.5169,-3.471,-3.3997,-3.3449,-3.3119,-3.2865,-3.2392,-3.2213,-3.229,-3.2104,-3.2018,-3.2026,-3.1823,-3.1823,-3.1823,-3.1924,-3.2026,-3.2026,-3.2026,-3.2026,-3.2026,-3.1823,-3.1823,-3.1823,-3.1618,-3.1618,-3.1618,-3.1618,-3.1618,-3.1618,-3.1618,-3.1618,-3.1618,-3.1618,-3.1618,-3.1618,-3.1618,-3.1618,-3.1618,-3.1618,-3.1618,-3.1618,-3.1618,-3.1105,-3.0899,-3.1516,-3.0909,-3.0068,-2.9197,-2.8349,-2.752,-2.6691,-2.6591,-2.6591,-2.6591,-2.6591,-2.6591,-2.6591,-2.6591,-2.6591,-2.6591,-2.6591,-2.6591,-2.6591,-2.6591,-2.6591,-2.6591,-2.6591,-2.6591,-1.5431,-1.5506,-1.5899,-1.7098,-1.8062,-1.9137,-2.1283,-2.2481,-2.3432,-2.4388,-2.5285,-2.6012,-2.6573,-2.8919,-3.1052,-3.1822,-3.3843,-3.5399,-3.5629,-3.571,-3.571,-3.571,-3.571,-3.571,-3.571,-3.571,-3.571,-3.571,-3.571,-3.571,-3.571,-3.5465,-3.533,-3.533,-3.533,-3.5452,-3.571,-3.571,-3.571,-3.571,-3.571,-3.5209,-3.4358,-3.4108,-3.3427,-3.2427,-3.189,-3.1746,-3.1774,-3.1292,-3.1219,-3.1379,-3.1096,-3.1086,-3.1302,-3.1302,-3.1433,-3.1618,-3.1618,-3.1618,-3.1618,-3.1618,-3.1618,-3.1618,-3.1618,-3.1618,-3.1618,-3.1618,-3.1618,-3.1618,-3.1618,-3.1618,-3.1618,-3.1618,-3.1618,-3.1618,-3.1618,-3.1618,-3.1618,-3.1618,-3.1618,-3.1618,-3.1618,-3.1618,-3.1618,-3.1618,-3.1219,-3.1013,-3.1116,-3.0057,-2.9102,-2.8562,-2.7726,-2.7107,-2.6691,-2.6591,-2.6591,-2.6591,-2.6591,-2.6591,-2.6591,-2.6591,-2.6591,-2.6591,-2.6591,-2.6591,-2.6591,-2.6591,-2.6591,-2.6591,-2.6591,-2.6591,-1.5431,-1.5431,-1.5748,-1.7277,-1.7585,-1.8155,-2.0934,-2.1747,-2.2399,-2.3929,-2.4671,-2.5359,-2.6174,-2.8418,-3.053,-3.1368,-3.3553,-3.5236,-3.5642,-3.571,-3.571,-3.571,-3.571,-3.571,-3.571,-3.571,-3.571,-3.571,-3.571,-3.571,-3.571,-3.5221,-3.4909,-3.4828,-3.4746,-3.5004,-3.5588,-3.5601,-3.5642,-3.571,-3.5629,-3.5032,-3.4082,-3.3237,-3.2289,-3.1223,-3.0464,-3.0377,-3.0777,-3.0229,-3.0331,-3.0778,-3.0306,-3.0395,-3.081,-3.0876,-3.116,-3.1542,-3.1607,-3.1618,-3.1618,-3.1618,-3.1618,-3.1618,-3.1618,-3.1618,-3.1618,-3.1618,-3.1618,-3.1618,-3.1618,-3.1618,-3.1618,-3.1618,-3.1618,-3.1618,-3.1618,-3.1618,-3.1618,-3.1618,-3.1618,-3.1618,-3.1618,-3.1618,-3.1618,-3.1618,-3.1516,-3.1105,-3.0276,-2.889,-2.7931,-2.7824,-2.7107,-2.6591,-2.6591,-2.6591,-2.6591,-2.6591,-2.6591,-2.6591,-2.6591,-2.6591,-2.6591,-2.6591,-2.6591,-2.6591,-2.6591,-2.6591,-2.6591,-2.6591,-2.6591,-2.6591,-1.5431,-1.5431,-1.5506,-1.5748,-1.7098,-1.8629,-1.9516,-2.115,-2.2763,-2.3949,-2.4407,-2.4965,-2.612,-2.8576,-3.0673,-3.1368,-3.3636,-3.5399,-3.5629,-3.571,-3.571,-3.571,-3.571,-3.571,-3.571,-3.571,-3.571,-3.571,-3.571,-3.571,-3.571,-3.5615,-3.5343,-3.4855,-3.4289,-3.4316,-3.4977,-3.4991,-3.5235,-3.571,-3.5141,-3.4799,-3.4538,-3.292,-3.2064,-3.1801,-3.0283,-2.9622,-2.9701,-2.925,-2.9349,-2.98,-2.9704,-2.9904,-3.0373,-3.0756,-3.0952,-3.1083,-3.1487,-3.1618,-3.1618,-3.1618,-3.1618,-3.1618,-3.1618,-3.1618,-3.1618,-3.1618,-3.1618,-3.1618,-3.1618,-3.1618,-3.1618,-3.1618,-3.1618,-3.1618,-3.1618,-3.1618,-3.1618,-3.1618,-3.1618,-3.1618,-3.1618,-3.1618,-3.1618,-3.1618,-3.1013,-3.0276,-2.9418,-2.9092,-2.8562,-2.7931,-2.7107,-2.6591,-2.6591,-2.6591,-2.6591,-2.6591,-2.6591,-2.6591,-2.6591,-2.6591,-2.6591,-2.6591,-2.6591,-2.6591,-2.6591,-2.6591,-2.6591,-2.6591,-2.6591,-2.6591,-1.5431,-1.5431,-1.5506,-1.6072,-1.6788,-1.7716,-1.9423,-2.0608,-2.185,-2.3664,-2.4328,-2.4959,-2.5945,-2.8245,-3.011,-3.0507,-3.3027,-3.4977,-3.5141,-3.5467,-3.571,-3.571,-3.571,-3.571,-3.571,-3.571,-3.571,-3.571,-3.571,-3.571,-3.571,-3.5425,-3.5126,-3.4841,-3.418,-3.4153,-3.4828,-3.4529,-3.4587,-3.5102,-3.4768,-3.4153,-3.3212,-3.2364,-3.1323,-3.0283,-2.9474,-2.9117,-2.9117,-2.8932,-2.8888,-2.9106,-2.9106,-2.9401,-2.986,-3.0078,-3.0319,-3.0603,-3.1083,-3.1247,-3.1291,-3.1542,-3.1618,-3.1618,-3.1618,-3.1618,-3.1618,-3.1618,-3.1618,-3.1618,-3.1618,-3.1618,-3.1618,-3.1618,-3.1618,-3.1618,-3.1618,-3.1618,-3.1618,-3.1618,-3.1219,-3.1013,-3.1013,-3.0578,-3.0245,-3.0245,-2.9942,-2.9418,-2.8562,-2.8455,-2.8145,-2.7314,-2.68,-2.6591,-2.6591,-2.6591,-2.6591,-2.6591,-2.6591,-2.6591,-2.6591,-2.6591,-2.6591,-2.6591,-2.6591,-2.6591,-2.6591,-2.6591,-2.6591,-2.6591,-2.6591,-2.6591,-1.5423,-1.5423,-1.5665,-1.655,-1.6558,-1.7049,-1.9362,-2.015,-2.1053,-2.3202,-2.417,-2.4897,-2.5727,-2.7767,-2.9498,-2.993,-3.2427,-3.4419,-3.4703,-3.5304,-3.571,-3.571,-3.5804,-3.5804,-3.571,-3.5804,-3.5804,-3.571,-3.571,-3.571,-3.571,-3.5153,-3.4828,-3.4828,-3.418,-3.4153,-3.4828,-3.4289,-3.4278,-3.478,-3.4366,-3.3654,-3.2599,-3.1728,-3.0687,-2.9452,-2.9013,-2.8757,-2.8757,-2.8757,-2.8757,-2.8757,-2.8757,-2.8986,-2.9336,-2.9445,-2.9729,-3.0122,-3.0592,-3.081,-3.0963,-3.1345,-3.1542,-3.1618,-3.1618,-3.1618,-3.1618,-3.1618,-3.1618,-3.1618,-3.1618,-3.1618,-3.1618,-3.1618,-3.1618,-3.1618,-3.1618,-3.1618,-3.1618,-3.1618,-3.0899,-3.0391,-3.0391,-2.9628,-2.9081,-2.9081,-2.9081,-2.8774,-2.7931,-2.7824,-2.752,-2.6691,-2.6591,-2.6591,-2.6591,-2.6591,-2.6591,-2.6591,-2.6591,-2.6591,-2.6591,-2.6591,-2.6591,-2.6591,-2.6591,-2.6591,-2.6591,-2.6591,-2.6591,-2.6591,-2.6591,-2.6591,-1.565,-1.565,-1.5741,-1.5816,-1.6714,-1.7772,-1.8789,-1.9923,-2.1181,-2.2829,-2.3777,-2.4571,-2.5605,-2.7545,-2.939,-3.0299,-3.2439,-3.4123,-3.465,-3.5304,-3.571,-3.571,-3.6058,-3.6152,-3.571,-3.6058,-3.6152,-3.571,-3.571,-3.571,-3.571,-3.5153,-3.4828,-3.4828,-3.418,-3.4153,-3.4828,-3.4774,-3.5045,-3.5548,-3.3933,-3.3804,-3.4964,-3.14,-3.0441,-3.1553,-2.9635,-2.8757,-2.8757,-2.8757,-2.8757,-2.8757,-2.8757,-2.8872,-2.8877,-2.9314,-2.951,-2.962,-3.0111,-3.0548,-3.0898,-3.0952,-3.1258,-3.1618,-3.1618,-3.1618,-3.1618,-3.1618,-3.1618,-3.1618,-3.1618,-3.1618,-3.1618,-3.1618,-3.1618,-3.1618,-3.1618,-3.1618,-3.1618,-3.1618,-3.0899,-3.0391,-3.0391,-2.9628,-2.9081,-2.9081,-2.9081,-2.8774,-2.7931,-2.7824,-2.752,-2.6691,-2.6591,-2.6591,-2.6591,-2.6591,-2.6591,-2.6591,-2.6591,-2.6591,-2.6591,-2.6591,-2.6591,-2.6591,-2.6591,-2.6591,-2.6591,-2.6591,-2.6591,-2.6591,-2.6591,-2.6591,-1.5914,-1.5914,-1.5997,-1.6064,-1.6886,-1.8014,-1.9036,-2.0207,-2.143,-2.2921,-2.4037,-2.4981,-2.5688,-2.7406,-2.9024,-2.9714,-3.1743,-3.3485,-3.4056,-3.5046,-3.5804,-3.6058,-3.6312,-3.6312,-3.6138,-3.6312,-3.6232,-3.5723,-3.571,-3.571,-3.571,-3.5493,-3.5357,-3.5357,-3.4787,-3.4597,-3.4828,-3.4319,-3.4283,-3.4794,-3.3957,-3.3354,-3.3054,-3.1488,-3.0519,-2.9977,-2.9198,-2.8757,-2.8757,-2.8757,-2.8757,-2.8757,-2.8757,-2.8757,-2.8779,-2.8975,-2.9041,-2.9117,-2.9609,-2.9893,-3.0089,-3.0384,-3.0799,-3.1236,-3.1531,-3.1618,-3.1618,-3.1618,-3.1618,-3.1618,-3.1618,-3.1618,-3.1618,-3.1618,-3.1618,-3.1618,-3.1618,-3.1618,-3.1618,-3.1618,-3.0578,-2.9628,-2.9628,-2.8475,-2.7628,-2.7628,-2.7628,-2.7422,-2.7107,-2.7107,-2.7008,-2.6591,-2.6591,-2.6591,-2.6591,-2.6591,-2.6591,-2.6591,-2.6591,-2.6591,-2.6591,-2.6591,-2.6591,-2.6591,-2.6591,-2.6591,-2.6591,-2.6591,-2.6591,-2.6591,-2.6591,-2.6591,-1.6162,-1.6162,-1.6245,-1.6394,-1.7049,-1.7934,-1.9283,-2.0294,-2.1409,-2.3229,-2.4415,-2.5296,-2.6007,-2.7383,-2.8621,-2.9461,-3.1369,-3.2949,-3.3753,-3.5046,-3.6058,-3.6536,-3.6707,-3.6628,-3.6391,-3.6232,-3.6058,-3.571,-3.571,-3.571,-3.571,-3.5547,-3.5452,-3.5452,-3.5221,-3.5004,-3.4828,-3.4362,-3.4298,-3.454,-3.396,-3.3315,-3.255,-3.1577,-3.0609,-2.9646,-2.9024,-2.8757,-2.8757,-2.8757,-2.8757,-2.8757,-2.8757,-2.8757,-2.8757,-2.8757,-2.8757,-2.8894,-2.915,-2.9358,-2.9543,-2.9893,-3.0308,-3.0788,-3.1269,-3.1509,-3.1618,-3.1618,-3.1618,-3.1618,-3.1618,-3.1618,-3.1618,-3.1618,-3.1618,-3.1618,-3.1618,-3.1618,-3.1527,-3.1322,-3.0037,-2.8986,-2.8774,-2.7416,-2.6408,-2.6408,-2.6307,-2.6233,-2.6233,-2.6334,-2.6408,-2.6408,-2.6518,-2.6591,-2.6591,-2.6591,-2.6591,-2.6591,-2.6591,-2.6591,-2.6591,-2.6591,-2.6591,-2.6591,-2.6591,-2.6591,-2.6591,-2.6591,-2.6591,-2.6591,-2.6591,-2.6591,-1.6394,-1.6394,-1.6394,-1.6394,-1.6894,-1.7789,-1.9283,-2.0051,-2.1168,-2.3602,-2.4647,-2.5542,-2.6819,-2.7517,-2.8397,-2.9834,-3.121,-3.2623,-3.4066,-3.5535,-3.6549,-3.6993,-3.738,-3.724,-3.6484,-3.5978,-3.5723,-3.571,-3.571,-3.571,-3.571,-3.5153,-3.4841,-3.4841,-3.5398,-3.5425,-3.4841,-3.517,-3.5386,-3.5386,-3.3998,-3.3843,-3.4673,-3.1577,-3.0699,-3.1488,-2.9646,-2.8757,-2.8757,-2.8757,-2.8757,-2.8757,-2.8757,-2.8757,-2.8757,-2.8757,-2.8757,-2.8757,-2.8861,-2.9074,-2.9489,-2.9489,-2.9816,-3.0308,-3.0766,-3.1236,-3.1618,-3.1618,-3.1618,-3.1618,-3.1618,-3.1618,-3.1618,-3.1618,-3.1618,-3.1618,-3.1618,-3.1618,-3.1311,-3.0599,-2.9733,-2.888,-2.7931,-2.6858,-2.5968,-2.5968,-2.5637,-2.5381,-2.5381,-2.572,-2.5968,-2.5968,-2.6334,-2.6591,-2.6591,-2.6591,-2.6591,-2.6591,-2.6591,-2.6591,-2.6591,-2.6591,-2.6591,-2.6591,-2.6591,-2.6591,-2.6591,-2.6591,-2.6591,-2.6591,-2.6591,-2.6591,-1.7465,-1.7465,-1.7465,-1.7465,-1.8103,-1.8895,-1.9668,-2.0382,-2.1527,-2.346,-2.457,-2.553,-2.6898,-2.7755,-2.8698,-2.9917,-3.143,-3.2919,-3.4136,-3.5736,-3.6993,-3.738,-3.7303,-3.707,-3.6836,-3.6125,-3.571,-3.571,-3.571,-3.5533,-3.514,-3.4936,-3.4828,-3.4828,-3.4624,-3.4343,-3.4153,-3.4432,-3.4567,-3.4567,-3.3579,-3.2895,-3.255,-3.0968,-2.9988,-2.9635,-2.9024,-2.8757,-2.8757,-2.8757,-2.8757,-2.8757,-2.8757,-2.8757,-2.8757,-2.8757,-2.8757,-2.8757,-2.8757,-2.8855,-2.8986,-2.8986,-2.9314,-2.974,-2.9882,-3.0493,-3.1192,-3.1531,-3.1618,-3.1618,-3.1618,-3.1618,-3.1618,-3.1618,-3.1618,-3.1618,-3.1618,-3.1618,-3.1311,-3.0599,-2.9486,-2.8441,-2.7506,-2.634,-2.5555,-2.5555,-2.5454,-2.5372,-2.5372,-2.5482,-2.5555,-2.5555,-2.5922,-2.627,-2.6564,-2.6591,-2.6591,-2.6591,-2.6591,-2.6591,-2.6591,-2.6591,-2.6591,-2.6591,-2.6591,-2.6591,-2.6591,-2.6591,-2.6591,-2.6591,-2.6591,-2.6591,-1.8031,-1.804,-1.804,-1.8112,-1.8665,-1.9347,-2.0112,-2.0791,-2.191,-2.4104,-2.5038,-2.587,-2.7494,-2.8191,-2.9008,-3.0167,-3.1455,-3.2945,-3.4479,-3.5883,-3.7042,-3.7763,-3.738,-3.6978,-3.6978,-3.6191,-3.571,-3.571,-3.5506,-3.5221,-3.4855,-3.4407,-3.4086,-3.4086,-3.3873,-3.3684,-3.3392,-3.3659,-3.3821,-3.4059,-3.3475,-3.2877,-3.2103,-3.1134,-3.026,-2.929,-2.8932,-2.8757,0.0,-2.8757,-2.8757,-2.8757,-2.8757,-2.8757,-2.8757,-2.8757,-2.8757,-2.8757,-2.8757,-2.8757,-2.8757,-2.8757,-2.9085,-2.9489,-2.9489,-3.0144,-3.0996,-3.1487,-3.1618,-3.1618,-3.1618,-3.1618,-3.1618,-3.1618,-3.1618,-3.1618,-3.1618,-3.1311,-3.0845,-2.9839,-2.8743,-2.7672,-2.6693,-2.5815,-2.5142,-2.5142,-2.5014,-2.4913,-2.4913,-2.5051,-2.5142,-2.5142,-2.55,-2.5848,-2.6105,-2.6417,-2.6591,-2.6591,-2.6591,-2.6591,-2.6591,-2.6591,-2.6591,-2.6591,-2.6591,-2.6591,-2.6591,-2.6591,-2.6591,-2.6591,-2.6591,-2.6591,0.0,-1.8121,-1.8201,-1.8379,-1.8789,-1.9467,-2.0671,-2.124,0.0,-2.5176,-2.5777,-2.6405,-2.8457,-2.8791,-2.9236,-3.0593,-3.1424,-3.2662,-3.4982,-3.5963,-3.6858,-3.8037,-3.7519,-3.6978,-3.6978,-3.6149,-3.5655,-3.5655,-3.5113,-3.4746,-3.4706,-3.3661,-3.2976,-3.271,-3.3235,-3.3185,-3.2421,-3.2736,-3.3212,-3.3699,-3.3548,-3.3245,-3.2759,-3.1904,-3.0956,-3.0079,-2.9198,-2.8757,-2.8757,-2.8757,-2.8757,-2.8757,-2.8757,-2.8757,-2.8757,-2.8757,-2.8757,-2.8757,-2.8757,-2.8757,-2.8757,-2.8757,-2.9063,-2.9434,-2.9467,-3.0144,-3.0985,-3.1444,-3.1597,-3.1618,-3.1618,-3.1618,-3.1618,-3.1618,-3.1527,-3.1516,-3.1516,-3.0899,-2.9933,-2.8632,-2.7692,-2.6722,-2.5607,-2.5005,-2.4739,-2.4739,-2.4409,-2.4152,-2.4152,-2.4491,-2.4739,-2.4739,-2.5096,-2.5326,-2.5326,-2.6078,-2.6545,-2.6545,-2.6573,-2.6591,-2.6591,-2.6591,-2.6591,-2.6591,-2.6591,-2.6591,-2.6591,-2.6591,-2.6591,-2.6591,-2.6591,-2.6591,-1.9301,0.0,-1.9543,-1.9938,-2.0173,-2.0448,0.0,-2.1433,-2.2227,-2.4838,-2.5433,-2.6211,-2.8366,-2.8961,-2.9408,-3.0606,-3.1618,-3.2932,-3.4968,-3.6752,-3.7886,-3.8127,-3.7519,-3.6978,-3.6978,-3.5778,-3.5031,-3.5031,-3.4489,-3.3959,-3.3498,-3.3213,-3.2712,-3.1896,-3.2017,-3.2017,-3.1809,-3.214,-3.2084,-3.1598,-3.2199,-3.1734,-3.0326,-3.0446,-2.9988,-2.9106,-2.8932,-2.8757,-2.8757,-2.8757,-2.8757,-2.8757,-2.8757,-2.8757,-2.8757,-2.8757,-2.8757,-2.8757,-2.8757,-2.8757,-2.8757,-2.8757,-2.8833,-2.8997,-2.9368,-3.0144,-3.0919,-3.1029,-3.1334,-3.1618,-3.1618,-3.1618,-3.1618,-3.1618,-3.1105,-3.0703,-3.0703,-3.0057,-2.9076,-2.7705,-2.7043,-2.6378,-2.5191,-2.4574,-2.4299,-2.4299,-2.4216,-2.4152,-2.4152,-2.4244,-2.4299,-2.4299,-2.4675,-2.4922,-2.4922,-2.5647,-2.6105,-2.6105,-2.6408,-2.6591,-2.6591,-2.6591,-2.6591,-2.6591,-2.6591,-2.6591,-2.6591,-2.6591,-2.6591,-2.6591,-2.6591,-2.6591,-1.9932,-2.0241,-2.0282,-2.0671,-2.0871,-2.1202,-2.1791,-2.1981,-2.2665,-2.5081,-2.5743,-2.646,-2.8639,-2.9406,-2.9942,-3.0947,-3.1751,-3.3083,-3.5171,-3.7,-3.8202,-3.8202,-3.7519,-3.6866,-3.6585,-3.5489,-3.4719,-3.4448,-3.3878,-3.3403,-3.3152,-3.2806,-3.2361,-3.1622,-3.1609,-3.1522,-3.1299,-3.1514,-3.1485,-3.1279,-3.1402,-3.0805,-2.9699,-2.9873,-2.9308,-2.844,-2.8659,-2.8757,-2.8757,-2.8757,-2.8757,-2.8757,-2.8757,-2.8757,-2.8757,-2.8757,-2.8757,-2.8757,-2.8757,-2.8757,-2.8757,-2.8757,-2.8757,-2.8894,-2.9063,-2.9663,-3.0341,-3.0777,-3.1247,-3.1618,-3.1618,-3.1311,-3.1013,-3.1013,-3.037,-2.9848,-2.9848,-2.9092,-2.8221,-2.74,-2.656,-2.5732,-2.4951,-2.4436,-2.4152,-2.4152,-2.4152,-2.4152,-2.4152,-2.4152,-2.4152,-2.4152,-2.4354,-2.4491,-2.4491,-2.506,-2.5573,-2.594,-2.6169,-2.6389,-2.6582,-2.6591,-2.6591,-2.6591,-2.6591,-2.6591,-2.6591,-2.6591,-2.6591,-2.6591,-2.6591,-2.6591,-2.0323,-2.07,-2.0833,-2.0986,-2.1385,-2.1884,-2.266,-2.2768,-2.3368,-2.5876,-2.6284,-2.686,-2.9003,-2.9891,-3.0611,-3.1311,-3.2162,-3.3372,-3.5305,-3.7078,-3.8173,-3.8072,-3.7377,-3.6599,-3.5981,-3.5077,-3.4353,-3.3851,-3.3268,-3.2928,-3.2928,-3.2453,-3.1963,-3.1609,-3.1522,-3.1373,-3.0986,-3.0986,-3.1146,-3.1474,-3.0849,-3.0301,-2.9654,-2.9439,-2.8846,-2.8069,-2.8473,-2.8691,-2.8757,-2.8757,-2.8757,-2.8757,-2.8757,-2.8757,-2.8757,-2.8757,-2.8757,-2.8757,-2.8757,-2.8757,-2.8757,-2.8757,-2.8757,-2.8757,-2.8757,-2.9095,-2.9652,-3.045,-3.1083,-3.1531,-3.1403,-3.0909,-3.0391,-3.0276,-2.9523,-2.888,-2.888,-2.8242,-2.7494,-2.7084,-2.6153,-2.5243,-2.4849,-2.4436,-2.4152,-2.4152,-2.4152,-2.4152,-2.4152,-2.4152,-2.4053,-2.4152,-2.4152,-2.4143,-2.4152,-2.4482,-2.4996,-2.5738,-2.5894,-2.6151,-2.6573,-2.6591,-2.6591,-2.6591,-2.6591,-2.6591,-2.6591,-2.6591,-2.6591,-2.6591,-2.6591,-2.6591,-2.0586,-2.1252,-2.1705,-2.1695,-2.2016,-2.2764,-2.4091,-2.3882,-2.4159,-2.6953,-2.7058,-2.7209,-2.9094,-3.0061,-3.0703,-3.1311,-3.3509,-3.5197,-3.5521,-3.7078,-3.8014,-3.7506,-3.675,-3.5953,-3.5321,-3.4134,-3.3295,-3.32,-3.2643,-3.2245,-3.2098,-3.2017,-3.173,-3.1347,-3.136,-3.1211,-3.0986,-3.0986,-3.0711,-2.9997,-3.041,-2.9792,-2.8237,-2.8637,-2.8496,-2.7956,-2.8123,-2.8386,-2.8757,-2.8757,-2.8757,-2.8757,-2.8757,-2.8757,-2.8757,-2.8757,-2.8757,-2.8757,-2.8757,-2.8757,-2.8757,-2.8757,-2.8757,-2.8757,-2.8757,-2.9095,-2.9521,-2.9652,-3.033,-3.0904,-3.07,-3.0495,-3.0172,-2.9523,-2.8668,-2.8038,-2.8038,-2.7314,-2.667,-2.6254,-2.5743,-2.5243,-2.4849,-2.4436,-2.4152,-2.4152,-2.4152,-2.4152,-2.4152,-2.3737,-2.3637,-2.4152,-2.3737,-2.3637,-2.4152,-2.4216,-2.4455,-2.4931,-2.5592,-2.6151,-2.6573,-2.6591,-2.6591,-2.6591,-2.6591,-2.6591,-2.6591,-2.6591,-2.6591,-2.6591,-2.6591,-2.6591,-2.1381,-2.2076,-2.2562,-2.2562,-2.2804,-2.3322,-2.4501,-2.4542,-2.5052,-2.7452,-2.7695,-2.803,-2.9737,-3.0578,-3.1311,-3.2164,-3.4157,-3.5615,-3.5615,-3.6795,-3.7533,-3.7008,-3.6131,-3.5232,-3.4395,-3.3586,-3.2928,-3.2616,-3.2331,-3.2109,-3.189,-3.189,-3.173,-3.1347,-3.1272,-3.1198,-3.0986,-3.0986,-3.0823,-3.0432,-3.0213,-2.945,-2.8175,-2.8203,-2.7899,-2.7293,-2.7545,-2.7927,-2.8375,-2.8375,-2.8517,-2.8757,-2.8757,-2.8757,-2.8757,-2.8757,-2.8757,-2.8757,-2.8757,-2.8757,-2.8757,-2.8757,-2.8757,-2.8757,-2.8757,-2.891,-2.9139,-2.9412,-3.0166,-3.0841,-3.0665,-3.0181,-2.9628,-2.9197,-2.8145,-2.7098,-2.7098,-2.6899,-2.6536,-2.6334,-2.5793,-2.5307,-2.5133,-2.4574,-2.4152,-2.4152,-2.4152,-2.4152,-2.4152,-2.3637,-2.3429,-2.3637,-2.3238,-2.2929,-2.3238,-2.3238,-2.3806,-2.506,-2.5637,-2.6151,-2.6573,-2.6591,-2.6591,-2.6591,-2.6591,-2.6591,-2.6591,-2.6591,-2.6591,-2.6591,-2.6591,-2.6591,-2.2279,-2.2772,-2.3197,-2.3281,-2.3433,-2.3831,-2.4967,-2.521,-2.5786,-2.8016,-2.8347,-2.8638,-3.0173,-3.0947,-3.1712,-3.2717,-3.4149,-3.513,-3.5155,-3.6107,-3.6705,-3.6298,-3.5475,-3.45,-3.3564,-3.3143,-3.2671,-3.2209,-3.2182,-3.2036,-3.1817,-3.1817,-3.1582,-3.1272,-3.1198,-3.1123,-3.0986,-3.0986,-3.0911,-3.0672,-2.9781,-2.8991,-2.8131,-2.7658,-2.7093,-2.6649,-2.6998,-2.7424,-2.7883,-2.7992,-2.8254,-2.8604,-2.8713,-2.8757,-2.8757,-2.8757,-2.8757,-2.8757,-2.8757,-2.8757,-2.8757,-2.8757,-2.8757,-2.8757,-2.8757,-2.8757,-2.8833,-2.9015,-2.9613,-3.0305,-3.0332,-2.9694,-2.8976,-2.8562,-2.753,-2.6591,-2.6591,-2.6591,-2.6591,-2.6591,-2.5931,-2.5372,-2.5372,-2.4693,-2.4152,-2.4152,-2.4152,-2.4152,-2.4152,-2.3637,-2.3329,-2.3329,-2.2828,-2.2526,-2.2526,-2.2526,-2.3225,-2.4756,-2.5381,-2.5943,-2.6336,-2.6473,-2.6591,-2.6591,-2.6591,-2.6591,-2.6591,-2.6591,-2.6591,-2.6591,-2.6591,-2.6591,-2.2696,-2.3031,-2.3281,-2.3439,-2.3604,-2.4251,-2.6235,-2.6069,-2.6235,-2.9118,-2.904,-2.8724,-2.9686,-3.0696,-3.1587,-3.2177,-3.307,-3.3767,-3.4018,-3.4821,-3.5263,-3.4968,-3.4569,-3.387,-3.2899,-3.2441,-3.2223,-3.2182,-3.2036,-3.1817,-3.1609,-3.1434,-3.1272,-3.1061,-3.0986,-3.0986,-3.0986,-3.0986,-3.0583,-2.9781,-2.89,-2.8039,-2.7255,-2.6418,-2.6286,-2.6627,-2.666,-2.6944,-2.7403,-2.785,-2.8058,-2.8134,-2.8582,-2.8757,-2.8757,-2.8757,-2.8757,-2.8757,-2.8757,-2.8757,-2.8757,-2.8757,-2.8757,-2.8757,-2.8757,-2.8757,-2.8664,-2.7925,-2.8094,-2.8488,-2.8543,-2.8874,-2.8668,-2.7107,-2.6691,-2.6591,-2.6591,-2.6591,-2.6591,-2.6591,-2.5931,-2.5372,-2.5372,-2.4693,-2.4152,-2.4152,-2.4152,-2.4152,-2.4152,-2.3637,-2.3329,-2.3329,-2.2828,-2.2526,-2.2526,-2.2526,-2.2698,-2.3195,-2.4131,-2.5014,-2.5762,-2.6245,-2.6591,-2.6591,-2.6591,-2.6591,-2.6591,-2.6591,-2.6591,-2.6591,-2.6591,-2.6591,-2.3625,-2.3819,-2.4026,-2.4111,-2.4555,-2.5326,-2.6565,-2.7058,-2.7799,-2.9456,-2.9546,-2.9477,-3.0165,-3.0896,-3.1461,-3.1675,-3.241,-3.3199,-3.3856,-3.4079,-3.4276,-3.4426,-3.3702,-3.3038,-3.2472,-3.2241,-3.2182,-3.2182,-3.2036,-3.1817,-3.1609,-3.1434,-3.096,-3.019,-3.0177,-2.9935,-2.9381,-2.9947,-2.9471,-2.8131,-2.8834,-2.8518,-2.7185,-2.6857,-2.6485,-2.6179,-2.6179,-2.6441,-2.69,-2.7086,-2.7326,-2.7632,-2.8123,-2.8495,-2.8757,-2.8757,-2.8757,-2.8757,-2.8757,-2.8664,-2.8581,-2.8757,-2.8664,-2.8571,-2.8757,-2.8456,-2.7977,-2.7683,-2.7637,-2.7656,-2.7976,-2.7944,-2.7824,-2.7463,-2.6663,-2.6026,-2.6026,-2.5798,-2.5388,-2.516,-2.4676,-2.4219,-2.3973,-2.3489,-2.3138,-2.3138,-2.3138,-2.3138,-2.3138,-2.2929,-2.2627,-2.2325,-2.1827,-2.1522,-2.1522,-2.1522,-2.1677,-2.2037,-2.302,-2.3861,-2.439,-2.5076,-2.5513,-2.5757,-2.6089,-2.6325,-2.6591,-2.6591,-2.6591,-2.6591,-2.6591,-2.6591,-2.42,-2.4368,-2.454,-2.4861,-2.5589,-2.64,-2.7139,-2.7971,-2.8712,-2.9624,-2.9792,-2.9955,-3.052,-3.0909,-3.1148,-3.1148,-3.1685,-3.2241,-3.2818,-3.2718,-3.2832,-3.337,-3.2636,-3.2114,-3.2169,-3.2009,-3.1863,-3.1703,-3.173,-3.1508,-3.0709,-3.0722,-3.033,-2.9303,-2.9303,-2.8978,-2.8426,-2.8978,-2.8597,-2.7185,-2.8359,-2.8211,-2.6787,-2.6787,-2.6467,-2.5895,-2.5895,-2.6092,-2.6409,-2.6476,-2.6726,-2.7192,-2.767,-2.8152,-2.8457,-2.8702,-2.8757,-2.8757,-2.8757,-2.8664,-2.8571,-2.8664,-2.8581,-2.8395,-2.8477,-2.7882,-2.72,-2.6914,-2.6667,-2.6448,-2.6715,-2.6985,-2.7209,-2.7425,-2.6562,-2.572,-2.5611,-2.5068,-2.4576,-2.4218,-2.3751,-2.3391,-2.3117,-2.2775,-2.2526,-2.2526,-2.2526,-2.2526,-2.2526,-2.2526,-2.2325,-2.1725,-2.132,-2.1044,-2.0933,-2.102,-2.1147,-2.1274,-2.1985,-2.2719,-2.3436,-2.3991,-2.443,-2.4694,-2.5255,-2.5568,-2.5846,-2.6191,-2.6364,-2.6354,-2.6473,-2.6591,-2.4368,-2.454,-2.47,-2.5579,-2.6483,-2.7395,-2.8291,-2.8542,-2.8791,-2.9624,-2.9792,-2.9955,-3.0507,-3.0608,-3.0608,-3.0608,-3.0608,-3.0631,-3.0622,-3.0607,-3.0895,-3.1723,-3.1267,-3.122,-3.2096,-3.1542,-3.0996,-3.0607,-3.1185,-3.0722,-2.8785,-2.9291,-2.9303,-2.8426,-2.8426,-2.8347,-2.8347,-2.8347,-2.7959,-2.7185,-2.7185,-2.6704,-2.5895,-2.5895,-2.5895,-2.5895,-2.5895,-2.5895,-2.5939,-2.6163,-2.6474,-2.6768,-2.7398,-2.7672,-2.7828,-2.8479,-2.8757,-2.8757,-2.8757,-2.8757,-2.8757,-2.8488,-2.8395,-2.829,-2.8081,-2.72,-2.6234,-2.547,-2.4884,-2.4479,-2.4512,-2.5838,-2.7094,-2.6689,-2.6261,-2.5843,-2.5308,-2.4898,-2.4421,-2.3771,-2.334,-2.3074,-2.3074,-2.2766,-2.2526,-2.2526,-2.2526,-2.2526,-2.2526,-2.2526,-2.2325,-2.1725,-2.1546,-2.1306,-2.0956,-2.125,-2.1298,-2.0948,-2.0925,-2.1546,-2.2782,-2.3445,-2.3657,-2.3657,-2.4042,-2.4247,-2.4256,-2.5274,-2.5688,-2.5679,-2.6354,-2.6591,-2.4454,-2.4946,-2.5505,-2.5746,-2.6976,-2.8131,-2.8462,-2.8961,-2.9468,-2.9714,-2.9792,-2.9842,-3.0005,-3.0043,-3.0043,-3.0043,-2.9861,-2.9917,-3.0482,-3.0228,-3.0304,-3.1044,-3.0758,-3.0469,-3.0469,-3.0241,-2.9986,-2.9474,-2.9499,-2.9279,-2.8706,-2.873,-2.8438,-2.7568,-2.7568,-2.7255,-2.661,-2.7255,-2.7092,-2.6302,-2.6951,-2.6704,-2.5895,-2.5895,-2.5895,-2.5895,-2.5895,-2.5895,-2.5917,-2.5806,-2.6055,-2.6421,-2.6451,-2.6911,-2.7694,-2.7926,-2.837,-2.8757,-2.8757,-2.8664,-2.8488,-2.8395,-2.7799,-2.6958,-2.664,-2.5385,-2.4075,-2.3518,-2.288,-2.2505,-2.3085,-2.3569,-2.4307,-2.5806,-2.5512,-2.4791,-2.4253,-2.3751,-2.3076,-2.2282,-2.2038,-2.1876,-2.1623,-2.1493,-2.1318,-2.1318,-2.1318,-2.1522,-2.1928,-2.1623,-2.142,-2.1725,-2.1546,-2.1409,-2.1298,-2.1385,-2.1409,-2.1298,-2.106,-2.1115,-2.1426,-2.2055,-2.2473,-2.2733,-2.3534,-2.3973,-2.4256,-2.5274,-2.5688,-2.5679,-2.6354,-2.6591,-2.4861,-2.5505,-2.6318,-2.673,-2.7718,-2.8621,-2.8961,-2.9456,-2.9792,-2.9792,-2.9792,-2.9792,-2.9792,-2.9792,-2.9792,-2.9689,-2.9509,-2.9484,-2.9858,-2.9549,-2.9549,-3.0228,-2.9858,-2.9639,-2.9704,-2.9471,-2.9069,-2.8469,-2.8627,-2.8402,-2.7614,-2.7799,-2.7568,-2.6704,-2.6704,-2.6467,-2.5906,-2.6385,-2.6385,-2.5906,-2.6467,-2.6385,-2.5895,-2.5895,-2.5895,-2.5895,-2.5895,-2.5812,-2.5728,-2.5559,-2.5551,-2.5744,-2.5752,-2.6253,-2.7065,-2.7532,-2.8039,-2.8495,-2.8691,-2.8664,-2.8477,-2.8102,-2.722,-2.628,-2.5734,-2.419,-2.2673,-2.2433,-2.1804,-2.1278,-2.1968,-2.2212,-2.2797,-2.4684,-2.4447,-2.3852,-2.3216,-2.2695,-2.2119,-2.1386,-2.1242,-2.1171,-2.0956,-2.0925,-2.0925,-2.0925,-2.0925,-2.1019,-2.1326,-2.1121,-2.1019,-2.1326,-2.1442,-2.1393,-2.125,-2.137,-2.1385,-2.125,-2.1044,-2.0925,-2.0925,-2.1224,-2.1526,-2.1729,-2.2551,-2.3136,-2.337,-2.4429,-2.4795,-2.4437,-2.5,-2.5221,-2.5421,-2.6235,-2.7221,-2.8211,-2.8542,-2.8791,-2.9624,-2.9792,-2.9792,-2.9792,-2.9792,-2.9792,-2.9792,-2.9792,-2.9702,-2.9431,-2.9341,-2.9184,-2.887,-2.8803,-2.887,-2.9263,-2.8816,-2.8736,-2.9394,-2.8937,-2.8223,-2.7395,-2.8004,-2.7695,-2.5979,-2.6622,-2.6704,-2.5895,-2.5895,-2.5895,-2.5895,-2.5895,-2.5895,-2.5895,-2.5895,-2.5895,-2.5895,-2.5895,-2.5895,-2.5895,-2.5895,-2.5822,-2.5644,-2.538,-2.5115,-2.4988,-2.5419,-2.5696,-2.6009,-2.714,-2.7688,-2.8011,-2.8538,-2.8713,-2.8653,-2.7515,-2.6829,-2.6127,-2.5032,-2.3403,-2.1953,-2.182,-2.1193,-2.0743,-2.1098,-2.1576,-2.2127,-2.3201,-2.3288,-2.292,-2.2411,-2.1948,-2.1522,-2.1019,-2.0925,-2.0925,-2.0925,-2.0925,-2.0925,-2.0925,-2.0925,-2.0925,-2.0925,-2.0925,-2.0925,-2.0925,-2.1242,-2.1322,-2.0996,-2.1266,-2.1314,-2.0988,-2.0941,-2.0925,-2.0925,-2.0925,-2.0925,-2.0925,-2.1576,-2.1926,-2.1957,-2.3186,-2.3303,-2.2515,-2.3079,-2.295,-2.5516,-2.6823,-2.8131,-2.8223,-2.8882,-2.9546,-2.9792,-2.9792,-2.9792,-2.9792,-2.9792,-2.9702,-2.9509,-2.9509,-2.9431,-2.9209,-2.904,-2.887,-2.8791,-2.8657,-2.859,-2.8657,-2.8271,-2.7938,-2.7742,-2.7255,-2.6775,-2.629,-2.6373,-2.629,-2.5895,-2.6063,-2.6063,-2.5906,-2.5895,-2.5895,-2.5895,-2.5895,-2.5895,-2.5895,-2.5895,-2.5895,-2.5895,-2.5895,-2.5895,-2.5895,-2.5895,-2.5906,-2.5812,-2.5559,-2.538,-2.5126,-2.5051,-2.5325,-2.5672,-2.596,-2.6768,-2.7785,-2.7882,-2.8348,-2.8653,-2.7515,-2.6638,-2.5499,-2.3818,-2.2414,-2.1213,-2.0533,-2.0216,-2.0143,-2.0504,-2.0692,-2.0913,-2.1431,-2.2103,-2.2443,-2.1935,-2.1775,-2.1522,-2.1019,-2.0925,-2.0925,-2.0925,-2.0925,-2.0925,-2.0925,-2.0925,-2.0925,-2.0925,-2.0925,-2.0925,-2.0925,-2.1242,-2.1417,-2.1346,-2.1409,-2.1417,-2.1338,-2.1076,-2.0925,-2.0925,-2.0925,-2.0925,-2.0925,-2.1346,-2.1687,-2.1957,-2.2261,-2.2481,-2.2523,-2.2379,-2.2258,-2.6091,-2.7406,-2.8791,-2.87,-2.9197,-2.9611,-2.9792,-2.9702,-2.9611,-2.9611,-2.9611,-2.9599,-2.9419,-2.9341,-2.9197,-2.8961,-2.8882,-2.8803,-2.8657,-2.8431,-2.8203,-2.8203,-2.7869,-2.736,-2.694,-2.661,-2.6373,-2.5895,-2.5895,-2.5895,-2.5895,-2.5895,-2.5895,-2.5895,-2.5812,-2.5812,-2.5895,-2.5812,-2.5812,-2.5895,-2.5895,-2.5812,-2.5728,-2.5822,-2.5895,-2.5895,-2.5895,-2.5895,-2.5895,-2.5644,-2.5559,-2.538,-2.5031,-2.5189,-2.5604,-2.5567,-2.6309,-2.7247,-2.7612,-2.7742,-2.7793,-2.7063,-2.6051,-2.4837,-2.3171,-2.1999,-2.104,-2.0367,-1.9995,-1.9908,-2.0091,-2.0265,-2.044,-2.0623,-2.1196,-2.1623,-2.142,-2.1326,-2.1224,-2.0917,-2.0925,-2.0925,-2.0925,-2.0925,-2.0925,-2.0925,-2.0925,-2.0925,-2.0925,-2.0925,-2.0925,-2.0925,-2.1091,-2.1195,-2.1195,-2.1195,-2.1195,-2.1195,-2.102,-2.0712,-2.03,-2.03,-2.03,-2.03,-2.0639,-2.0765,-2.076,-2.0855,-2.095,-2.0816,-2.0573,-2.0343,-2.6565,-2.773,-2.8961,-2.9263,-2.9341,-2.9431,-2.9624,-2.9521,-2.9341,-2.9341,-2.9341,-2.9341,-2.9341,-2.9197,-2.8961,-2.8803,-2.8724,-2.8724,-2.851,-2.8122,-2.7893,-2.7893,-2.7452,-2.694,-2.6528,-2.6445,-2.629,-2.5895,-2.5895,-2.5895,-2.5895,-2.5895,-2.5895,-2.5895,-2.5728,-2.5654,-2.5822,-2.5644,-2.5644,-2.5812,-2.5822,-2.5812,-2.5644,-2.5812,-2.5895,-2.5812,-2.5895,-2.5895,-2.5906,-2.5728,-2.5644,-2.5559,-2.5126,-2.5211,-2.5518,-2.5474,-2.5936,-2.6672,-2.7162,-2.714,-2.6816,-2.6411,-2.5567,-2.4393,-2.292,-2.2012,-2.1271,-2.068,-2.0273,-2.0043,-2.0043,-2.0265,-2.0488,-2.0488,-2.071,-2.0925,-2.0925,-2.0925,-2.0925,-2.0925,-2.0925,-2.0925,-2.0925,-2.0925,-2.0925,-2.0925,-2.0925,-2.0925,-2.0925,-2.0925,-2.0925,-2.0925,-2.0925,-2.0925,-2.0925,-2.0814,-2.0712,-2.0712,-2.0506,-2.0197,-1.9465,-1.9472,-1.9361,-1.9257,-1.9626,-1.9735,-1.9339,-1.9473,-1.9333,-1.8874,-1.8758,-1.8421,-2.5684,-2.6917,-2.8383,-2.8961,-2.9275,-2.9341,-2.9209,-2.9131,-2.9131,-2.9131,-2.9131,-2.9131,-2.887,-2.8882,-2.8803,-2.8578,-2.851,-2.851,-2.851,-2.8122,-2.7893,-2.7893,-2.7115,-2.661,-2.6528,-2.6207,-2.5979,-2.5895,-2.5895,-2.5895,-2.5895,-2.5895,-2.5895,-2.5895,-2.5728,-2.5644,-2.5644,-2.538,-2.5285,-2.5285,-2.5559,-2.5728,-2.5822,-2.5906,-2.5812,-2.5654,-2.5812,-2.5895,-2.5895,-2.5895,-2.5738,-2.5559,-2.5295,-2.52,-2.5211,-2.5105,-2.5562,-2.6346,-2.6141,-2.6399,-2.6723,-2.573,-2.5382,-2.4894,-2.302,-2.2391,-2.2156,-2.1151,-2.0813,-2.0782,-2.0782,-2.0813,-2.0853,-2.0853,-2.0885,-2.0925,-2.0925,-2.0925,-2.0925,-2.0925,-2.0925,-2.0925,-2.0925,-2.0925,-2.0925,-2.0925,-2.0925,-2.0925,-2.0925,-2.0925,-2.0925,-2.0925,-2.0925,-2.0925,-2.0925,-2.03,-1.9887,-1.9887,-1.9153,-1.8736,-1.8632,-1.8527,-1.8206,-1.7569,-1.8247,-1.8872,-1.9339,-1.849,-1.8459,-1.8881,-1.8064,-1.7596,-2.7406,-2.7983,-2.8554,-2.8882,-2.904,-2.9028,-2.9131,-2.9052,-2.8961,-2.8961,-2.8816,-2.8736,-2.8803,-2.8724,-2.8578,-2.851,-2.851,-2.851,-2.851,-2.7938,-2.7534,-2.7534,-2.6704,-2.6135,-2.6135,-2.5979,-2.5895,-2.5895,-2.5644,-2.5491,-2.5491,-2.5251,-2.5229,-2.548,-2.5315,-2.5362,-2.5728,-2.538,-2.5285,-2.5475,-2.5559,-2.5654,-2.5738,-2.5812,-2.5812,-2.5728,-2.5822,-2.5895,-2.5895,-2.5895,-2.5812,-2.5728,-2.5475,-2.5464,-2.5549,-2.52,-2.5508,-2.6033,-2.5591,-2.5601,-2.5778,-2.5185,-2.4821,-2.443,-2.292,-2.2526,-2.2325,-2.1224,-2.0925,-2.0925,-2.0925,-2.0925,-2.0925,-2.0925,-2.0925,-2.0925,-2.0925,-2.0925,-2.0925,-2.0925,-2.0925,-2.0925,-2.0925,-2.0925,-2.0925,-2.0925,-2.0925,-2.0925,-2.0925,-2.0506,-2.0197,-2.0197,-1.9776,-1.9465,-1.9465,-1.9153,-1.8945,-1.8945,-1.8632,-1.8213,-1.7786,-1.7779,-1.7364,-1.6518,-1.7259,-1.7676,-1.7657,-1.7224,-1.7291,-1.7834,-1.7493,-1.734,-2.8621,-2.8712,-2.8633,-2.8724,-2.8724,-2.8803,-2.8895,-2.8803,-2.8724,-2.8724,-2.8578,-2.859,-2.8724,-2.8578,-2.851,-2.851,-2.851,-2.851,-2.851,-2.7765,-2.7185,-2.7185,-2.6467,-2.5895,-2.5895,-2.5895,-2.5895,-2.5895,-2.5448,-2.5175,-2.5175,-2.4738,-2.465,-2.4989,-2.4843,-2.5081,-2.5626,-2.5316,-2.5285,-2.5475,-2.5475,-2.5559,-2.5654,-2.5822,-2.5895,-2.5895,-2.5895,-2.5895,-2.5895,-2.5895,-2.5895,-2.5895,-2.5654,-2.5728,-2.5812,-2.52,-2.5285,-2.554,-2.4949,-2.4766,-2.475,-2.444,-2.43,-2.4053,-2.3038,-2.2627,-2.2325,-2.1326,-2.1027,-2.0925,-2.0925,-2.0925,-2.0925,-2.0925,-2.0925,-2.0925,-2.0925,-2.0925,-2.0925,-2.0925,-2.0925,-2.0925,-2.0925,-2.0925,-2.0925,-2.0925,-2.0925,-2.0925,-2.0925,-2.0197,-1.968,-1.968,-1.8945,-1.8422,-1.8422,-1.8206,-1.8101,-1.8101,-1.7891,-1.747,-1.6935,-1.6836,-1.6518,-1.5891,-1.6518,-1.6656,-1.6278,-1.6278,-1.6525,-1.6996,-1.6996,-1.7098,-2.773,-2.7971,-2.8223,-2.8419,-2.8657,-2.8724,-2.8578,-2.851,-2.851,-2.851,-2.851,-2.851,-2.851,-2.851,-2.851,-2.851,-2.851,-2.851,-2.851,-2.7765,-2.7185,-2.7185,-2.6467,-2.5895,-2.5895,-2.5895,-2.5895,-2.5895,-2.5448,-2.5175,-2.5175,-2.4738,-2.4497,-2.453,-2.4681,-2.4826,-2.4859,-2.4893,-2.5031,-2.52,-2.52,-2.5464,-2.5895,-2.5895,-2.5895,-2.5895,-2.5895,-2.5895,-2.5895,-2.5895,-2.5895,-2.5895,-2.5654,-2.5728,-2.5812,-2.485,-2.468,-2.4838,-2.3801,-2.3779,-2.4018,-2.3688,-2.3822,-2.4044,-2.3438,-2.2929,-2.2426,-2.1827,-2.1318,-2.0925,-2.0925,-2.0925,-2.0925,-2.0925,-2.0925,-2.0925,-2.0925,-2.0925,-2.0925,-2.0925,-2.0925,-2.0925,-2.0925,-2.0925,-2.0925,-2.0925,-2.0925,-2.0925,-2.0925,-2.0197,-1.968,-1.968,-1.8945,-1.8422,-1.8422,-1.7674,-1.7252,-1.7252,-1.6524,-1.5998,-1.5992,-1.5992,-1.5998,-1.5891,-1.5885,-1.6126,-1.6278,-1.6278,-1.6435,-1.6718,-1.6718,-1.6724,-2.8307,-2.7557,-2.6823,-2.751,-2.7753,-2.7753,-2.7672,-2.8099,-2.851,-2.851,-2.851,-2.851,-2.851,-2.851,-2.851,-2.851,-2.851,-2.8431,-2.8122,-2.7615,-2.7103,-2.6775,-2.6218,-2.5895,-2.5895,-2.5895,-2.5895,-2.5895,-2.5013,-2.4349,-2.4132,-2.3605,-2.336,-2.3428,-2.3756,-2.4063,-2.4426,-2.4893,-2.5115,-2.52,-2.52,-2.5464,-2.5895,-2.5895,-2.5895,-2.5895,-2.5895,-2.5895,-2.5895,-2.5895,-2.5895,-2.5895,-2.5812,-2.5559,-2.5211,-2.4861,-2.4498,-2.409,-2.331,-2.3467,-2.3877,-2.3296,-2.3611,-2.4044,-2.3029,-2.2627,-2.2325,-2.142,-2.1019,-2.0925,-2.0925,-2.0925,-2.0925,-2.0925,-2.0925,-2.0925,-2.0925,-2.0925,-2.0925,-2.0925,-2.0925,-2.0925,-2.0925,-2.0925,-2.0925,-2.0925,-2.0925,-2.0925,-2.0925,-1.9672,-1.884,-1.884,-1.7575,-1.6842,-1.6842,-1.6524,-1.6418,-1.6418,-1.6099,-1.5891,-1.5891,-1.5891,-1.5891,-1.5891,-1.5891,-1.5934,-1.603,-1.603,-1.6169,-1.6435,-1.6435,-1.6531,-2.8117,-2.7144,-2.6206,-2.6633,-2.6753,-2.6835,-2.7103,-2.7429,-2.7753,-2.8339,-2.8259,-2.8179,-2.8431,-2.851,-2.851,-2.851,-2.851,-2.8351,-2.7962,-2.7534,-2.7021,-2.6528,-2.6135,-2.5812,-2.5559,-2.5549,-2.538,-2.502,-2.4064,-2.3257,-2.2727,-2.22,-2.1957,-2.2025,-2.2694,-2.3234,-2.3742,-2.4567,-2.5051,-2.52,-2.52,-2.5464,-2.5895,-2.5895,-2.5895,-2.5895,-2.5895,-2.5895,-2.5895,-2.5895,-2.5895,-2.5895,-2.5895,-2.5464,-2.4861,-2.4594,-2.4069,-2.3396,-2.2859,-2.3104,-2.3607,-2.3202,-2.3602,-2.4044,-2.3029,-2.2627,-2.2325,-2.142,-2.1019,-2.0925,-2.0925,-2.0925,-2.0925,-2.0925,-2.0925,-2.0925,-2.0925,-2.0925,-2.0925,-2.0925,-2.0925,-2.0925,-2.0925,-2.0925,-2.0925,-2.0925,-2.0925,-2.0814,-2.0506,-1.9257,-1.8318,-1.7996,-1.673,-1.5891,-1.5891,-1.5891,-1.5891,-1.5891,-1.5891,-1.5891,-1.5891,-1.5891,-1.5891,-1.5891,-1.5891,-1.5891,-1.5891,-1.5891,-1.5976,-1.6151,-1.6151,-1.6296,0.0,0.0,0.0,-2.5939,-2.5746,-2.5997,-2.6928,-2.6423,-2.6329,-2.8087,-2.7765,-2.7429,-2.8259,-2.8431,-2.8431,-2.8431,-2.8431,-2.8351,-2.7881,-2.7452,-2.6928,-2.6445,-2.6052,-2.5549,-2.4946,-2.4861,-2.4413,-2.3183,-2.2619,-2.2013,-2.1144,-2.0627,-2.0472,-2.0552,-2.164,-2.2392,-2.2834,-2.3909,-2.4753,-2.52,-2.52,-2.5464,-2.5895,-2.5895,-2.5895,-2.5895,-2.5895,-2.5895,-2.5895,-2.5895,-2.5895,-2.5895,-2.5895,-2.5464,-2.4775,-2.4059,-2.3387,-2.2685,-2.2372,-2.2602,-2.2921,-2.3419,-2.3822,-2.4044,-2.3438,-2.2929,-2.2426,-2.1818,-2.1326,-2.0925,-2.0925,-2.0925,-2.0925,-2.0925,-2.0925,-2.0925,-2.0925,-2.0925,-2.0925,-2.0925,-2.0925,-2.0925,-2.0925,-2.0925,-2.0925,-2.0925,-2.0925,-2.0609,-1.9783,-1.8945,-1.8101,-1.7252,-1.6411,-1.5891,-1.5891,-1.5891,-1.5891,-1.5891,-1.5891,-1.5891,-1.5891,-1.5891,-1.5891,-1.5891,-1.5891,-1.5891,-1.5891,-1.5891,-1.5891,-1.5891,-1.5891,-1.6024,-2.6682,0.0,0.0,0.0,0.0,0.0,-2.5168,-2.5495,-2.5913,-2.6412,-2.6329,-2.6246,-2.6494,-2.6577,-2.6577,-2.6577,-2.7429,-2.7708,-2.6787,-2.6268,-2.5663,-2.4648,-2.4488,-2.4317,-2.4145,-2.4059,-2.38,-2.3183,-2.2456,-2.1643,-2.0521,-1.9734,-1.9659,-2.0292,-2.1559,-2.201,-2.1566,-2.365,-2.4555,-2.4231,-2.5031,-2.5644,-2.5895,-2.5895,-2.5895,-2.5895,-2.5895,-2.5895,-2.5895,-2.5895,-2.5895,-2.5812,-2.538,-2.4765,-2.3983,-2.3299,-2.2608,-2.2063,-2.219,-2.2602,-2.2921,-2.3419,-2.3822,-2.4053,-2.3029,-2.2627,-2.2325,-2.142,-2.1019,-2.0925,-2.0925,-2.0925,-2.0925,-2.0925,-2.0925,-2.0925,-2.0925,-2.0925,-2.0925,-2.0925,-2.0925,-2.0925,-2.0925,-2.0925,-2.0925,-2.0925,-2.0403,-1.999,-1.968,-1.8415,-1.7463,-1.7252,-1.6411,-1.5891,-1.5891,-1.5891,-1.5891,-1.5891,-1.5891,-1.5891,-1.5891,-1.5891,-1.5891,-1.5891,-1.5891,-1.5891,-1.5891,-1.5891,-1.5891,-1.5891,-1.5891,-1.5928,-2.6017,-2.4977,-2.4036,-2.4213,0.0,0.0,-2.4413,-2.4573,-2.4904,-2.5652,-2.5495,-2.5411,-2.5746,-2.5819,-2.5819,-2.5819,-2.6257,-2.6351,-2.5684,-2.5421,-2.4819,-2.3877,-2.38,-2.3714,-2.3377,-2.3377,-2.3028,-2.2306,-2.1606,-2.0642,-1.9264,-1.8654,-1.8412,-1.8709,-1.9963,-2.0619,-2.0559,-2.2476,-2.368,-2.4059,-2.4765,-2.538,-2.5895,-2.5895,-2.5895,-2.5895,-2.5895,-2.5895,-2.5895,-2.5895,-2.5895,-2.5812,-2.5115,-2.4423,-2.3714,-2.3047,-2.2466,-2.2043,-2.2447,-2.2859,-2.3263,-2.3666,-2.396,-2.3954,-2.2837,-2.2526,-2.2325,-2.1224,-2.0925,-2.0925,-2.0925,-2.0925,-2.0925,-2.0925,-2.0925,-2.0925,-2.0925,-2.0925,-2.0925,-2.0925,-2.0925,-2.0814,-2.0506,-2.0403,-2.03,-1.9879,-1.9465,-1.9049,-1.8729,-1.7779,-1.7041,-1.673,-1.6205,-1.5891,-1.5891,-1.5891,-1.5891,-1.5891,-1.5891,-1.5891,-1.5891,-1.5891,-1.5891,-1.5891,-1.5891,-1.5891,-1.5891,-1.5891,-1.5891,-1.5891,-1.5891,-1.5891,-2.5281,-2.4785,-2.4375,-2.3906,-2.3496,0.0,-2.4166,-2.3734,-2.356,-2.5158,-2.4914,-2.4573,-2.5326,-2.5484,-2.5484,-2.5484,-2.4988,-2.4659,-2.4659,-2.4659,-2.4317,-2.3627,-2.3541,-2.329,-2.2715,-2.2715,-2.2167,-2.1087,-2.0512,-1.9485,-1.8033,-1.7563,-1.7127,-1.6802,-1.7853,-1.8839,-1.9791,-2.0987,-2.2508,-2.4327,-2.4498,-2.502,-2.5895,-2.5895,-2.5895,-2.5895,-2.5895,-2.5895,-2.5895,-2.5812,-2.5812,-2.5728,-2.5031,-2.4327,-2.3627,-2.2969,-2.2528,-2.2392,-2.2711,-2.3112,-2.3611,-2.4024,-2.4152,-2.3954,-2.2837,-2.2526,-2.2325,-2.1224,-2.0925,-2.0925,-2.0925,-2.0925,-2.0925,-2.0925,-2.0925,-2.0925,-2.0925,-2.0925,-2.0917,-2.0814,-2.0822,-2.0506,-1.9783,-1.9576,-1.9257,-1.8527,-1.8318,-1.7996,-1.7252,-1.7147,-1.673,-1.5998,-1.5891,-1.5891,-1.5891,-1.5891,-1.5891,-1.5891,-1.5891,-1.5891,-1.5891,-1.5891,-1.5891,-1.5891,-1.5891,-1.5891,-1.5891,-1.5891,-1.5891,-1.5891,-1.5891,-1.5891,-2.5281,-2.5,-2.4756,-2.3984,-2.3721,0.0,-2.3388,-2.3222,-2.3222,-2.356,-2.3474,-2.3396,-2.356,-2.3647,-2.3647,-2.3647,-2.3474,-2.356,-2.3973,-2.356,-2.296,-2.2167,-2.2078,-2.2078,-2.1909,-2.1909,-2.1642,-2.1087,-1.9911,-1.9156,-1.8742,-1.787,-1.7407,-1.767,-1.8412,-1.9029,-1.9324,-2.132,-2.2665,-2.3357,-2.4327,-2.52,-2.5895,-2.5895,-2.5895,-2.5895,-2.5895,-2.5895,-2.5822,-2.5295,-2.5115,-2.5031,-2.4327,-2.3637,-2.2872,-2.2176,-2.2078,-2.2392,-2.2711,-2.3112,-2.3611,-2.4024,-2.4152,-2.3954,-2.2837,-2.2526,-2.2325,-2.1224,-2.0925,-2.0925,-2.0925,-2.0925,-2.0925,-2.0925,-2.0925,-2.0925,-2.0925,-2.0925,-2.0712,-2.0094,-1.9887,-1.9887,-1.968,-1.9153,-1.8632,-1.8422,-1.7891,-1.7358,-1.7252,-1.6624,-1.6099,-1.5891,-1.5891,-1.5891,-1.5891,-1.5891,-1.5891,-1.5891,-1.5891,-1.5891,-1.5891,-1.5891,-1.5891,-1.5891,-1.5891,-1.5891,-1.5891,-1.5891,-1.5891,-1.5891,-1.5891,-1.5891,-2.5459,-2.5244,-2.4961,-2.4531,-2.4102,0.0,0.0,-2.3291,-2.3135,-2.3135,-2.3135,-2.3135,-2.3135,-2.3135,-2.3135,-2.3135,-2.2872,-2.2872,-2.3028,-2.2784,-2.2353,-2.1731,-2.1741,-2.1741,-2.1741,-2.1741,-2.1553,-2.1087,-2.0193,-1.9566,-1.9381,-1.8592,-1.8059,-1.7945,-1.8243,-1.8662,-1.9239,-2.0493,-2.1993,-2.3444,-2.4059,-2.4935,-2.5895,-2.5895,-2.5895,-2.5895,-2.5895,-2.5728,-2.538,-2.5031,-2.4519,-2.3831,-2.3474,-2.3135,-2.2735,-2.2221,-2.2291,-2.2694,-2.3107,-2.351,-2.3877,-2.4088,-2.4152,-2.4053,-2.3129,-2.2526,-2.203,-2.142,-2.1121,-2.0925,-2.0925,-2.0925,-2.0925,-2.0925,-2.0925,-2.0822,-2.0403,-2.03,-2.0094,-1.9257,-1.8729,-1.8415,-1.8415,-1.8101,-1.7681,-1.7259,-1.6836,-1.6518,-1.6518,-1.6205,-1.5891,-1.5891,-1.5891,-1.5891,-1.5891,-1.5891,-1.5891,-1.5891,-1.5891,-1.5891,-1.5891,-1.5891,-1.5891,-1.5891,-1.5891,-1.5891,-1.5891,-1.5891,-1.5891,-1.5891,-1.5891,-1.5891,-2.5742,-2.5478,-2.5176,-2.5088,-2.4541,-2.3994,0.0,0.0,0.0,-2.3154,-2.3135,-2.3135,-2.3135,-2.3135,-2.3135,-2.3135,-2.2784,-2.252,-2.2432,-2.2441,-2.2264,-2.1741,-2.1741,-2.1741,-2.1741,-2.1642,-2.1374,-2.0997,-2.0464,-2.0065,-1.9935,-1.9326,-1.8833,-1.8321,-1.833,-1.8634,-1.9419,-1.9942,-2.1323,-2.3627,-2.3714,-2.4498,-2.5728,-2.5728,-2.5728,-2.5728,-2.5549,-2.52,-2.468,-2.4519,-2.3831,-2.2803,-2.2803,-2.2754,-2.2691,-2.239,-2.2639,-2.3021,-2.3428,-2.3813,-2.4152,-2.4152,-2.4152,-2.3945,-2.3429,-2.2627,-2.1818,-2.1725,-2.1428,-2.1019,-2.0925,-2.0925,-2.0822,-2.0712,-2.0719,-2.0403,-1.9672,-1.9472,-1.9153,-1.8311,-1.7674,-1.7252,-1.7252,-1.7041,-1.673,-1.5998,-1.5891,-1.5891,-1.5891,-1.5891,-1.5891,-1.5891,-1.5891,-1.5891,-1.5891,-1.5891,-1.5891,-1.5891,-1.5891,-1.5891,-1.5891,-1.5891,-1.5891,-1.5891,-1.5891,-1.5891,-1.5891,-1.5891,-1.5891,-1.5891,-1.5891,-1.5891,-2.5742,-2.5703,-2.5566,-2.5166,-2.499,-2.4727,-2.3965,0.0,-2.3603,-2.3213,0.0,-2.3135,-2.3135,0.0,0.0,-2.3135,-2.3057,-2.2882,-2.2441,-2.2441,-2.2264,-2.1741,-2.1741,-2.1741,-2.1741,-2.1365,-2.1087,-2.0997,-2.0184,-1.9812,-2.0232,-1.946,-1.9154,-1.9598,-1.9617,-1.9883,-2.0367,-2.0793,-2.1612,-2.2882,-2.3551,-2.4241,-2.5031,-2.5031,-2.5031,-2.4946,-2.4327,-2.3973,-2.3887,-2.3309,-2.2969,-2.2803,-2.2803,-2.2579,-2.2354,-2.2309,-2.2813,-2.3483,-2.3529,-2.3813,-2.4152,-2.4152,-2.3845,-2.3429,-2.3329,-2.2929,-2.2325,-2.1818,-2.1623,-2.1522,-2.1019,-2.0925,-2.0712,-1.999,-1.9887,-1.9576,-1.8736,-1.8527,-1.8311,-1.7463,-1.7252,-1.7252,-1.7252,-1.6518,-1.5998,-1.5885,-1.5891,-1.5891,-1.5891,-1.5891,-1.5891,-1.5891,-1.5891,-1.5891,-1.5891,-1.5891,-1.5891,-1.5891,-1.5891,-1.5891,-1.5891,-1.5891,-1.5891,-1.5891,-1.5891,-1.5891,-1.5891,-1.5891,-1.5891,-1.5891,-1.5891,-1.5891,-2.5742,-2.5742,-2.5693,-2.5508,-2.5264,-2.4912,-2.4297,-2.3965,-2.3662,-2.3232,0.0,0.0,0.0,0.0,0.0,0.0,-2.2872,-2.2618,-2.2432,-2.2176,-2.1909,-2.1741,-2.1741,-2.1741,-2.1741,-2.1275,-2.1087,-2.1365,-2.0817,-2.0645,-2.1105,-2.0488,-2.0208,-2.0184,-2.0183,-2.0261,-2.0535,-2.0857,-2.1668,-2.2794,-2.3464,-2.3973,-2.4241,-2.468,-2.468,-2.4241,-2.3973,-2.3541,-2.3212,-2.2882,-2.2672,-2.2531,-2.2531,-2.2453,-2.2382,-2.285,-2.3244,-2.3574,-2.3813,-2.4005,-2.4152,-2.4152,-2.4053,-2.3845,-2.3845,-2.3438,-2.2929,-2.2728,-2.2426,-2.2021,-2.1522,-2.1011,-2.049,-1.9887,-1.9257,-1.8736,-1.7891,-1.7674,-1.7463,-1.6624,-1.6411,-1.6411,-1.6411,-1.6099,-1.5891,-1.5891,-1.5891,-1.5891,-1.5891,-1.5891,-1.5891,-1.5891,-1.5891,-1.5891,-1.5891,-1.5891,-1.5891,-1.5891,-1.5891,-1.5891,-1.5891,-1.5891,-1.5891,-1.5891,-1.5891,-1.5891,-1.5891,-1.5891,-1.5891,-1.5891,-1.5891,-1.5891,-2.5742,-2.5742,-2.5742,-2.5742,-2.5488,-2.5137,-2.4697,-2.4365,-2.4014,-2.3584,-2.3398,0.0,0.0,0.0,-2.3047,-2.3057,0.0,-2.2441,-2.2353,-2.1998,-2.1741,-2.1741,-2.1741,-2.1741,-2.1741,-2.1275,-2.1177,-2.1454,-2.1096,-2.0997,-2.1454,-2.1177,-2.0962,-2.0792,-2.0765,-2.0765,-2.0871,-2.1116,-2.1701,-2.2539,-2.3212,-2.3551,-2.3551,-2.4079,-2.3993,-2.3551,-2.328,-2.3008,-2.2701,-2.2701,-2.2588,-2.2511,-2.2621,-2.2657,-2.2731,-2.3327,-2.3611,-2.3749,-2.4051,-2.4152,-2.4152,-2.4152,-2.4152,-2.4152,-2.4152,-2.3845,-2.3438,-2.3129,-2.2828,-2.2325,-2.1623,-2.1011,-2.0388,-1.9569,-1.884,-1.8101,-1.7047,-1.6836,-1.6624,-1.5992,-1.5891,-1.5891,-1.5891,-1.5891,-1.5891,-1.5891,-1.5891,-1.5891,-1.5891,-1.5891,-1.5891,-1.5891,-1.5891,-1.5891,-1.5891,-1.5891,-1.5891,-1.5891,-1.5891,-1.5891,-1.5891,-1.5891,-1.5891,-1.5891,-1.5891,-1.5891,-1.5891,-1.5891,-1.5891,-1.5891,-1.5891,-1.5891,-2.5742,-2.5742,-2.5742,-2.5742,-2.5723,-2.5596,-2.5146,-2.5039,-2.4902,-2.4463,-2.4053,-2.3769,-2.3769,-2.3428,-2.3057,-2.2794,-2.2803,0.0,0.0,-2.2097,-2.2008,-2.1731,-2.1741,-2.1741,-2.1741,-2.1275,-2.0997,-2.0997,-2.0555,-2.0555,-2.0997,-2.0997,-2.1177,-2.1624,-2.1624,-2.1624,-2.1624,-2.1624,-2.1722,-2.1741,-2.2441,-2.2803,-2.2803,-2.2882,-2.2891,-2.2794,-2.2087,-2.1951,-2.2309,-2.2309,-2.2557,-2.2875,-2.3354,-2.3501,-2.3501,-2.3529,-2.3794,-2.4134,-2.4143,-2.4152,-2.4152,-2.4152,-2.4152,-2.4152,-2.4152,-2.4152,-2.3945,-2.2828,-2.2526,-2.2224,-2.1224,-2.0925,-2.0506,-1.884,-1.8422,-1.7996,-1.6311,-1.5885,-1.5891,-1.5891,-1.5891,-1.5891,-1.5891,-1.5891,-1.5891,-1.5891,-1.5891,-1.5891,-1.5891,-1.5891,-1.5891,-1.5891,-1.5891,-1.5891,-1.5891,-1.5891,-1.5891,-1.5891,-1.5891,-1.5891,-1.5891,-1.5891,-1.5891,-1.5891,-1.5891,-1.5891,-1.5891,-1.5891,-1.5891,-1.5891,-1.5891,-1.5891,-2.5742,-2.5742,-2.5742,-2.5742,-2.5742,-2.5615,-2.5166,-2.5068,-2.4941,-2.4502,-2.4307,-2.4121,-2.3838,-2.3483,-2.321,-2.2842,-2.2539,-2.2274,0.0,-2.1919,-2.183,-2.1731,-2.1741,-2.1741,-2.1741,-2.1553,-2.1454,-2.1454,-2.1284,-2.1284,-2.1463,-2.1454,-2.1553,-2.1731,-2.1741,-2.1741,-2.1741,-2.1741,-2.1741,-2.1741,-2.2441,-2.253,-2.2097,-2.2627,-2.2682,-2.2488,-2.2216,-2.2364,-2.274,-2.274,-2.2884,-2.3354,-2.3492,-2.3712,-2.395,-2.395,-2.4033,-2.4152,-2.4152,-2.4152,-2.4152,-2.4152,-2.4152,-2.4152,-2.4152,-2.4152,-2.4044,-2.3229,-2.3029,-2.2627,-2.1003,-2.0174,-1.9443,-1.7989,-1.7153,-1.663,-1.5998,-1.5891,-1.5891,-1.5891,-1.5891,-1.5891,-1.5891,-1.5891,-1.5891,-1.5891,-1.5891,-1.5891,-1.5891,-1.5891,-1.5891,-1.5891,-1.5891,-1.5891,-1.5891,-1.5891,-1.5891,-1.5891,-1.5891,-1.5891,-1.5891,-1.5891,-1.5891,-1.5891,-1.5891,-1.5891,-1.5891,-1.5891,-1.5891,-1.5891,-1.5891,-1.5891,-2.5742,-2.5742,-2.5742,-2.5742,-2.5742,-2.5664,-2.5371,-2.5303,-2.5225,-2.4847,-2.4662,-2.4468,-2.4021,-2.3746,-2.3415,-2.2824,-2.249,-2.2264,0.0,-2.183,-2.1553,-2.1275,-2.1463,-2.1741,-2.1741,-2.1365,-2.1365,-2.1642,-2.1365,-2.1365,-2.1651,-2.1741,-2.1741,-2.1741,-2.1741,-2.1741,-2.1741,-2.1741,-2.1741,-2.1741,-2.2274,-2.2349,-2.2032,-2.2579,-2.2706,-2.2631,-2.2547,-2.2786,-2.3067,-2.3067,-2.34,-2.3758,-2.3758,-2.3923,-2.4152,-2.4152,-2.4152,-2.4152,-2.4152,-2.4152,-2.4152,-2.4152,-2.4152,-2.4152,-2.4152,-2.4152,-2.4053,-2.3229,-2.3029,-2.2619,-2.0688,-1.9761,-1.9034,-1.7569,-1.673,-1.6311,-1.5992,-1.5891,-1.5891,-1.5891,-1.5891,-1.5891,-1.5891,-1.5891,-1.5891,-1.5891,-1.5891,-1.5891,-1.5891,-1.5891,-1.5891,-1.5891,-1.5891,-1.5891,-1.5891,-1.5891,-1.5891,-1.5891,-1.5891,-1.5891,-1.5891,-1.5891,-1.5891,-1.5891,-1.5891,-1.5891,-1.5891,-1.5891,-1.5891,-1.5891,-1.5891,-1.5891]},{"header":{"parameterUnit":"m.s-1","parameterCategory":1,"la1":30.6,"la2":29.2853,"lo1":-89.7004,"lo2":-87.6739,"dy":0.0162,"dx":0.0183,"nx":112,"ny":82,"refTime":"2023-06-04T12:00:00:Z","depth":0,"parameterNumber":3,"parameterNumberName":"V-component_of_WINDS"},"data":[0.0,0.0,0.0,0.0,0.0,0.0,0.0,0.0,0.0,0.0,0.0,0.0,0.0,0.0,0.0,0.0,0.0,0.0,0.0,0.0,0.0,0.0,0.0,0.0,0.0,0.0,0.0,0.0,0.0,0.0,0.0,0.0,0.0,0.0,0.0,0.0,0.0,0.0,0.0,0.0,0.0,0.0,0.0,0.0,0.0,0.0,0.0,0.0,0.0,0.0,0.0,0.0,0.0,0.0,0.0,0.0,0.0,0.0,0.0,0.0,0.0,0.0,0.0,0.0,0.0,0.0,0.0,0.0,0.0,0.0,0.0,0.0,0.0,0.0,0.0,0.0,0.0,0.0,0.0,0.0,0.0,0.0,0.0,0.0,0.0,0.0,0.0,0.0,0.0,0.0,-3.418,-3.4022,-3.3125,-3.2657,-3.2908,-3.2988,-3.3103,-3.3418,0.0,0.0,0.0,0.0,0.0,0.0,0.0,0.0,0.0,0.0,0.0,0.0,0.0,0.0,0.0,0.0,0.0,0.0,0.0,0.0,0.0,0.0,0.0,0.0,0.0,0.0,0.0,0.0,0.0,0.0,0.0,0.0,0.0,0.0,0.0,0.0,0.0,0.0,0.0,0.0,0.0,0.0,0.0,0.0,0.0,0.0,0.0,0.0,0.0,0.0,0.0,0.0,0.0,0.0,0.0,0.0,0.0,0.0,0.0,0.0,0.0,0.0,0.0,0.0,0.0,0.0,0.0,0.0,0.0,0.0,0.0,0.0,0.0,0.0,0.0,0.0,0.0,0.0,0.0,0.0,0.0,0.0,0.0,0.0,0.0,0.0,0.0,0.0,0.0,0.0,0.0,0.0,0.0,0.0,0.0,0.0,0.0,0.0,0.0,0.0,0.0,0.0,0.0,0.0,-3.3449,-3.3758,-3.2852,-3.2765,-3.4001,-3.4313,-3.4753,-3.5501,0.0,0.0,0.0,0.0,0.0,0.0,0.0,0.0,0.0,0.0,0.0,0.0,0.0,0.0,0.0,0.0,0.0,0.0,0.0,0.0,0.0,0.0,0.0,0.0,0.0,0.0,0.0,0.0,0.0,0.0,0.0,0.0,0.0,0.0,0.0,0.0,0.0,0.0,0.0,0.0,0.0,0.0,0.0,0.0,0.0,0.0,0.0,0.0,0.0,0.0,0.0,0.0,0.0,0.0,0.0,0.0,0.0,0.0,0.0,0.0,0.0,0.0,0.0,0.0,0.0,0.0,0.0,0.0,0.0,0.0,0.0,0.0,0.0,0.0,0.0,0.0,0.0,0.0,0.0,0.0,0.0,0.0,0.0,0.0,0.0,0.0,0.0,0.0,0.0,0.0,0.0,0.0,0.0,0.0,0.0,0.0,0.0,0.0,0.0,0.0,0.0,0.0,0.0,-3.3812,-3.3676,-3.418,-3.3299,-3.3347,-3.491,-3.5224,-3.5806,-3.6816,-3.6287,0.0,0.0,0.0,0.0,0.0,0.0,0.0,0.0,0.0,0.0,0.0,0.0,0.0,0.0,0.0,0.0,0.0,0.0,0.0,0.0,0.0,0.0,0.0,0.0,0.0,0.0,0.0,0.0,0.0,0.0,0.0,0.0,0.0,0.0,0.0,0.0,0.0,0.0,0.0,0.0,0.0,0.0,0.0,0.0,0.0,0.0,0.0,0.0,0.0,0.0,0.0,0.0,0.0,0.0,0.0,0.0,0.0,0.0,0.0,0.0,0.0,0.0,0.0,0.0,0.0,0.0,0.0,0.0,0.0,0.0,0.0,0.0,0.0,0.0,0.0,0.0,0.0,0.0,0.0,0.0,0.0,0.0,0.0,0.0,0.0,0.0,0.0,0.0,0.0,0.0,0.0,0.0,0.0,0.0,0.0,0.0,0.0,0.0,0.0,0.0,0.0,0.0,-3.3949,-3.4235,-3.4954,-3.4031,-3.4121,-3.5855,-3.5935,-3.6465,-3.7813,-3.7999,0.0,0.0,0.0,0.0,0.0,0.0,0.0,0.0,0.0,0.0,0.0,0.0,0.0,0.0,0.0,0.0,0.0,0.0,0.0,0.0,0.0,0.0,0.0,0.0,0.0,0.0,0.0,0.0,0.0,0.0,0.0,0.0,0.0,0.0,0.0,0.0,0.0,0.0,0.0,0.0,0.0,0.0,0.0,0.0,0.0,0.0,0.0,0.0,0.0,0.0,0.0,0.0,0.0,0.0,0.0,0.0,0.0,0.0,0.0,0.0,0.0,0.0,0.0,0.0,0.0,0.0,0.0,0.0,0.0,0.0,0.0,0.0,0.0,0.0,0.0,0.0,0.0,0.0,0.0,0.0,0.0,0.0,0.0,0.0,0.0,0.0,0.0,0.0,0.0,0.0,0.0,0.0,0.0,0.0,0.0,0.0,0.0,0.0,0.0,0.0,0.0,0.0,-3.4145,-3.5143,-3.5877,-3.4915,-3.5087,-3.6972,-3.6332,-3.671,-3.8576,-3.8307,0.0,0.0,0.0,0.0,0.0,0.0,0.0,0.0,0.0,0.0,0.0,0.0,0.0,0.0,0.0,0.0,0.0,0.0,0.0,0.0,0.0,0.0,0.0,0.0,0.0,0.0,0.0,0.0,0.0,0.0,0.0,0.0,0.0,0.0,0.0,0.0,0.0,0.0,0.0,0.0,0.0,0.0,0.0,0.0,0.0,0.0,0.0,0.0,0.0,0.0,0.0,0.0,0.0,0.0,0.0,0.0,0.0,0.0,0.0,0.0,0.0,0.0,0.0,0.0,0.0,0.0,0.0,0.0,0.0,0.0,0.0,0.0,0.0,0.0,0.0,0.0,0.0,0.0,0.0,0.0,0.0,0.0,0.0,0.0,0.0,0.0,0.0,0.0,0.0,0.0,0.0,0.0,0.0,0.0,0.0,0.0,0.0,0.0,0.0,0.0,0.0,0.0,-3.5413,-3.6169,-3.6717,-3.6036,-3.6001,-3.7112,-3.7127,-3.7601,-3.8943,0.0,0.0,0.0,0.0,0.0,0.0,0.0,0.0,0.0,0.0,0.0,0.0,0.0,0.0,0.0,0.0,0.0,0.0,0.0,0.0,0.0,0.0,0.0,0.0,0.0,0.0,0.0,0.0,0.0,0.0,0.0,0.0,0.0,0.0,0.0,0.0,0.0,0.0,0.0,0.0,0.0,0.0,0.0,0.0,0.0,0.0,0.0,0.0,0.0,0.0,0.0,0.0,0.0,0.0,0.0,0.0,0.0,0.0,0.0,0.0,0.0,0.0,0.0,0.0,0.0,0.0,0.0,0.0,0.0,0.0,0.0,0.0,0.0,0.0,0.0,0.0,0.0,0.0,0.0,0.0,0.0,0.0,0.0,0.0,0.0,0.0,0.0,0.0,0.0,0.0,0.0,0.0,0.0,0.0,0.0,0.0,0.0,0.0,0.0,0.0,0.0,0.0,-3.5795,-3.6574,-3.7226,-3.7695,-3.7021,-3.693,-3.7753,-3.7829,-3.8234,-3.9104,0.0,0.0,0.0,0.0,0.0,0.0,0.0,0.0,0.0,0.0,0.0,0.0,0.0,0.0,0.0,0.0,0.0,0.0,0.0,0.0,0.0,0.0,0.0,0.0,0.0,0.0,0.0,0.0,0.0,0.0,0.0,0.0,0.0,0.0,0.0,0.0,0.0,0.0,0.0,0.0,0.0,0.0,0.0,0.0,0.0,0.0,0.0,0.0,0.0,0.0,0.0,0.0,0.0,0.0,0.0,0.0,0.0,0.0,0.0,0.0,0.0,0.0,0.0,0.0,0.0,0.0,0.0,0.0,0.0,0.0,0.0,0.0,0.0,0.0,0.0,0.0,0.0,0.0,0.0,0.0,0.0,0.0,0.0,0.0,0.0,0.0,0.0,0.0,0.0,0.0,0.0,0.0,0.0,0.0,0.0,0.0,0.0,0.0,0.0,0.0,0.0,0.0,-3.6661,-3.7405,-3.8133,-3.8738,-3.8084,-3.7933,-3.9046,-3.8323,-3.8323,0.0,0.0,0.0,0.0,0.0,0.0,0.0,0.0,0.0,0.0,0.0,0.0,0.0,0.0,0.0,0.0,0.0,0.0,0.0,0.0,0.0,0.0,0.0,0.0,0.0,0.0,0.0,0.0,0.0,0.0,0.0,0.0,0.0,0.0,0.0,0.0,0.0,0.0,0.0,0.0,0.0,0.0,0.0,0.0,0.0,0.0,0.0,0.0,0.0,0.0,0.0,0.0,0.0,0.0,0.0,0.0,0.0,0.0,0.0,0.0,0.0,0.0,0.0,0.0,0.0,0.0,0.0,0.0,0.0,0.0,0.0,0.0,0.0,0.0,0.0,0.0,0.0,0.0,0.0,0.0,0.0,0.0,0.0,0.0,0.0,0.0,0.0,0.0,0.0,0.0,0.0,0.0,0.0,0.0,0.0,0.0,0.0,0.0,0.0,0.0,0.0,0.0,0.0,-3.7765,-3.8868,-3.9668,-3.9684,-4.0038,-4.032,-4.0515,-3.998,-3.9788,-4.0113,0.0,0.0,0.0,0.0,0.0,0.0,0.0,0.0,0.0,0.0,0.0,0.0,0.0,0.0,0.0,0.0,0.0,0.0,0.0,0.0,0.0,0.0,0.0,0.0,0.0,0.0,0.0,0.0,0.0,0.0,0.0,0.0,0.0,0.0,0.0,0.0,0.0,0.0,0.0,0.0,0.0,0.0,0.0,0.0,0.0,0.0,0.0,0.0,0.0,0.0,0.0,0.0,0.0,0.0,0.0,0.0,0.0,0.0,0.0,0.0,0.0,0.0,0.0,0.0,0.0,0.0,0.0,0.0,0.0,0.0,0.0,0.0,0.0,0.0,0.0,0.0,0.0,0.0,0.0,0.0,0.0,0.0,0.0,0.0,0.0,0.0,0.0,0.0,0.0,0.0,0.0,0.0,0.0,0.0,0.0,0.0,0.0,0.0,0.0,0.0,0.0,0.0,-3.8639,-3.9681,-4.0323,-4.0234,-4.0905,-4.1384,-4.1247,-4.095,-4.0681,-4.0412,0.0,0.0,0.0,0.0,0.0,0.0,0.0,0.0,0.0,0.0,0.0,0.0,0.0,0.0,0.0,0.0,0.0,0.0,0.0,0.0,0.0,0.0,0.0,0.0,0.0,0.0,0.0,0.0,0.0,0.0,0.0,0.0,0.0,0.0,0.0,0.0,0.0,0.0,0.0,0.0,0.0,0.0,0.0,0.0,0.0,0.0,0.0,0.0,0.0,0.0,0.0,0.0,0.0,0.0,0.0,0.0,0.0,0.0,0.0,0.0,0.0,0.0,0.0,0.0,0.0,0.0,0.0,0.0,0.0,0.0,0.0,0.0,0.0,0.0,0.0,0.0,0.0,0.0,0.0,0.0,0.0,0.0,0.0,0.0,0.0,0.0,0.0,0.0,0.0,0.0,0.0,0.0,0.0,0.0,0.0,0.0,0.0,0.0,0.0,0.0,0.0,0.0,-3.9424,-4.0083,-4.0516,-4.0576,-4.1175,-4.1564,-4.1564,-4.1504,-4.122,-4.0621,0.0,0.0,0.0,0.0,0.0,0.0,0.0,0.0,0.0,0.0,0.0,0.0,0.0,0.0,0.0,0.0,0.0,0.0,0.0,0.0,0.0,0.0,0.0,0.0,0.0,0.0,0.0,0.0,0.0,0.0,0.0,0.0,0.0,0.0,0.0,0.0,0.0,0.0,0.0,0.0,0.0,0.0,0.0,0.0,0.0,0.0,0.0,0.0,0.0,0.0,0.0,0.0,0.0,0.0,0.0,0.0,0.0,0.0,0.0,0.0,-3.3398,-3.3398,0.0,0.0,0.0,0.0,0.0,0.0,0.0,0.0,0.0,0.0,0.0,0.0,0.0,0.0,0.0,0.0,0.0,0.0,0.0,0.0,0.0,0.0,0.0,0.0,0.0,0.0,0.0,0.0,0.0,0.0,0.0,0.0,0.0,0.0,0.0,0.0,0.0,0.0,0.0,0.0,-4.0113,-4.0771,-4.1369,-4.1893,-4.2536,-4.291,-4.291,-4.2447,-4.2087,-4.1953,-4.1595,0.0,0.0,0.0,0.0,0.0,0.0,0.0,0.0,0.0,0.0,0.0,0.0,0.0,0.0,0.0,0.0,0.0,0.0,0.0,0.0,0.0,0.0,0.0,0.0,0.0,0.0,0.0,0.0,0.0,0.0,0.0,0.0,0.0,0.0,0.0,0.0,0.0,0.0,0.0,0.0,0.0,0.0,0.0,0.0,0.0,0.0,0.0,0.0,0.0,0.0,0.0,0.0,0.0,0.0,0.0,0.0,0.0,0.0,0.0,-3.3641,-3.3641,0.0,0.0,0.0,0.0,0.0,0.0,0.0,0.0,0.0,0.0,0.0,0.0,0.0,0.0,0.0,0.0,0.0,0.0,0.0,0.0,0.0,0.0,0.0,0.0,0.0,0.0,0.0,0.0,0.0,0.0,0.0,0.0,0.0,0.0,0.0,0.0,0.0,0.0,0.0,0.0,-4.0352,-4.125,-4.1983,-4.2327,-4.294,-4.3329,-4.3329,-4.3109,-4.2872,-4.2541,-4.2425,0.0,0.0,0.0,0.0,0.0,0.0,0.0,0.0,0.0,0.0,0.0,0.0,0.0,0.0,0.0,0.0,0.0,0.0,0.0,0.0,0.0,0.0,0.0,0.0,0.0,0.0,0.0,0.0,0.0,0.0,0.0,0.0,0.0,0.0,0.0,0.0,0.0,0.0,0.0,0.0,0.0,0.0,0.0,0.0,0.0,0.0,0.0,0.0,0.0,0.0,0.0,0.0,0.0,-3.3913,-3.3964,-3.3879,-3.4054,-3.4191,-3.4373,-3.4191,-3.4075,-3.4076,-3.3894,0.0,0.0,0.0,0.0,0.0,0.0,0.0,0.0,0.0,0.0,0.0,0.0,0.0,0.0,0.0,0.0,0.0,0.0,0.0,0.0,0.0,0.0,-3.9589,-3.9589,-3.9679,-3.9768,-3.9753,0.0,0.0,0.0,0.0,0.0,0.0,0.0,0.0,0.0,0.0,0.0,-4.0726,-4.1698,-4.2402,-4.2521,-4.3015,-4.3329,-4.3344,-4.3596,-4.3449,-4.2984,-4.3092,-4.294,0.0,0.0,0.0,0.0,0.0,0.0,0.0,0.0,0.0,0.0,0.0,0.0,0.0,0.0,0.0,0.0,0.0,0.0,0.0,0.0,0.0,0.0,0.0,0.0,0.0,0.0,0.0,0.0,0.0,0.0,0.0,0.0,-3.1955,-3.1048,0.0,0.0,0.0,0.0,0.0,0.0,0.0,0.0,0.0,0.0,0.0,0.0,0.0,-3.3471,-3.3713,-3.3894,-3.3894,-3.3725,-3.4666,-3.4925,-3.4494,-3.5405,-3.5713,-3.5538,-3.57,0.0,-3.4076,-3.423,0.0,0.0,0.0,0.0,0.0,0.0,0.0,0.0,0.0,0.0,0.0,0.0,0.0,0.0,0.0,0.0,0.0,0.0,0.0,0.0,0.0,0.0,-4.0336,-4.0482,-4.0845,-4.119,-4.1325,-4.0364,-3.9424,-3.9424,-3.9424,-3.9424,0.0,0.0,0.0,0.0,0.0,0.0,-4.2028,-4.2252,-4.2581,-4.315,-4.3284,-4.3423,-4.3596,-4.369,-4.3723,-4.3789,-4.4005,-4.3777,-4.288,-4.2999,0.0,0.0,0.0,0.0,0.0,0.0,0.0,0.0,0.0,0.0,0.0,0.0,0.0,0.0,0.0,0.0,0.0,0.0,0.0,0.0,0.0,0.0,0.0,0.0,0.0,0.0,0.0,0.0,0.0,-3.2269,-3.1589,-3.0748,-3.0586,-3.0533,0.0,0.0,0.0,0.0,0.0,0.0,0.0,0.0,0.0,-3.3556,-3.3875,-3.4212,-3.4567,-3.5037,-3.5193,-3.5007,-3.5539,-3.5657,-3.5496,-3.5905,-3.6022,-3.5934,-3.6022,-3.5735,-3.5193,-3.5351,-3.5266,-3.5193,0.0,0.0,0.0,0.0,-3.5734,-3.6348,-3.6739,-3.7678,-3.8713,-3.8988,0.0,0.0,0.0,0.0,0.0,0.0,0.0,-4.0827,-4.0827,-4.1111,-4.1323,-4.1397,-4.1624,-4.1761,-4.1835,-4.1382,-4.0827,-4.0723,-4.0649,-4.0649,-4.0649,-4.0979,0.0,0.0,0.0,-4.2028,-4.2327,-4.2842,-4.3187,-4.3488,-4.366,-4.3738,-4.3832,-4.3988,-4.405,-4.4127,-4.4358,-4.4297,-4.3929,-4.3622,-4.3359,0.0,0.0,0.0,0.0,0.0,0.0,0.0,0.0,0.0,0.0,0.0,0.0,0.0,0.0,0.0,0.0,0.0,0.0,0.0,0.0,0.0,0.0,0.0,0.0,0.0,0.0,0.0,0.0,-3.1809,-3.1307,-3.052,-3.042,-3.0455,0.0,0.0,0.0,0.0,0.0,0.0,-3.3056,-3.3305,-3.3541,-3.3943,-3.4594,-3.5076,-3.5495,-3.59,-3.6109,-3.6109,-3.6253,-3.6332,-3.6345,-3.6488,-3.6567,-3.6567,-3.6567,-3.6567,-3.6541,-3.6227,-3.6109,-3.6109,-3.6109,-3.5861,-3.5547,-3.62,-3.6753,-3.7386,-3.8154,-3.9024,-3.9812,-4.0184,-4.0266,-4.0353,-4.044,0.0,0.0,0.0,0.0,-4.1999,-4.1999,-4.2121,-4.2257,-4.2317,-4.2453,-4.25,-4.2575,-4.2575,-4.2394,-4.1896,-4.1745,-4.1745,-4.1745,-4.1896,0.0,-4.1866,-4.2346,-4.2767,-4.2767,-4.3374,-4.3769,-4.3769,-4.391,-4.3988,-4.405,-4.4205,-4.4358,-4.4358,-4.4511,-4.4572,-4.4572,-4.4095,-4.3833,-4.3833,0.0,0.0,0.0,0.0,0.0,0.0,0.0,0.0,0.0,0.0,0.0,0.0,0.0,0.0,0.0,0.0,0.0,0.0,0.0,0.0,0.0,0.0,0.0,0.0,0.0,0.0,0.0,0.0,0.0,-3.0444,-3.0842,0.0,0.0,0.0,0.0,-3.2215,-3.2717,-3.3043,-3.3081,-3.3844,-3.431,-3.4558,-3.5347,-3.5807,-3.607,-3.6083,-3.6109,-3.6109,-3.6684,-3.6959,-3.6972,-3.7547,-3.7808,-3.7808,-3.7808,-3.7808,-3.773,-3.658,-3.6109,-3.6109,-3.6109,-3.6083,-3.6144,-3.7093,-3.8007,-3.8883,-3.9894,-4.0855,-4.161,-4.1819,-4.1893,-4.1893,-4.1893,-4.1923,0.0,0.0,-4.1969,-4.1999,-4.1999,-4.247,-4.3016,-4.3152,-4.3579,-4.3959,-4.4098,-4.4036,-4.3502,-4.2242,-4.1999,-4.1999,-4.1999,0.0,-4.294,-4.294,-4.3502,-4.3927,-4.3927,-4.3972,-4.3988,-4.3988,-4.3988,-4.4065,-4.4281,-4.4281,-4.4358,-4.4572,-4.4572,-4.4572,-4.4572,-4.4541,-4.4526,-4.4526,-4.3864,0.0,0.0,0.0,0.0,0.0,0.0,0.0,0.0,0.0,0.0,0.0,0.0,0.0,0.0,0.0,0.0,0.0,0.0,0.0,0.0,0.0,0.0,0.0,0.0,0.0,0.0,0.0,0.0,-3.1087,-3.1306,0.0,-3.2133,-3.2485,-3.2771,-3.314,-3.3712,-3.4043,-3.4043,-3.4753,-3.5135,-3.5386,-3.6043,-3.6519,-3.6684,-3.7063,-3.726,-3.726,-3.7482,-3.7586,-3.7586,-3.7808,-3.79,-3.79,-3.79,-3.79,-3.7874,-3.7442,-3.726,-3.726,-3.726,-3.7024,-3.6737,-3.7461,-3.8528,-3.9683,-3.9982,-4.1131,-4.247,-4.2269,-4.2294,-4.2383,-4.2383,-4.2674,-4.2995,-4.2995,-4.3302,-4.3639,-4.3639,-4.3822,-4.4082,-4.4142,-4.4251,-4.4435,-4.4511,-4.4435,-4.4205,-4.373,-4.3563,-4.3487,-4.3487,-4.3701,-4.3777,-4.3623,-4.3836,-4.3988,-4.3988,-4.4127,-4.4205,-4.4205,-4.4281,-4.4435,-4.4511,-4.4496,-4.4496,-4.4587,-4.4572,-4.4572,-4.4572,-4.4572,-4.4572,-4.4572,-4.4341,-4.4218,0.0,0.0,0.0,0.0,0.0,0.0,0.0,0.0,0.0,0.0,0.0,0.0,0.0,0.0,0.0,0.0,0.0,0.0,0.0,0.0,0.0,0.0,0.0,0.0,0.0,-3.1081,-3.1328,-3.1384,-3.1771,-3.23,-3.2885,-3.3226,-3.361,-3.3982,-3.4546,-3.4879,-3.4879,-3.5506,-3.5993,-3.6069,-3.6728,-3.7131,-3.7312,-3.7704,-3.79,-3.79,-3.79,-3.79,-3.79,-3.79,-3.79,-3.79,-3.79,-3.79,-3.79,-3.79,-3.7992,-3.8083,-3.7992,-3.7911,-3.7927,-3.8671,-3.9751,-4.0982,-4.1279,-4.2361,-4.3472,-4.3179,-4.319,-4.3279,-4.3279,-4.3571,-4.391,-4.391,-4.4233,-4.4572,-4.4572,-4.4572,-4.4572,-4.4572,-4.4572,-4.4572,-4.4572,-4.4572,-4.4572,-4.4572,-4.4496,-4.4435,-4.4435,-4.4435,-4.4358,-4.4205,-4.4205,-4.4205,-4.4205,-4.4358,-4.4435,-4.4435,-4.4511,-4.4572,-4.4572,-4.4572,-4.4572,-4.4572,-4.4572,-4.4572,-4.4572,-4.4572,-4.4572,-4.4572,-4.4858,-4.5067,-4.5348,0.0,0.0,0.0,0.0,0.0,0.0,0.0,0.0,0.0,0.0,0.0,0.0,0.0,0.0,0.0,0.0,0.0,0.0,0.0,0.0,0.0,0.0,0.0,-3.0862,-3.1343,-3.1694,-3.1331,-3.2401,-3.3165,-3.3014,-3.3943,-3.461,-3.4622,-3.5236,-3.5544,-3.5544,-3.6277,-3.678,-3.678,-3.7508,-3.79,-3.79,-3.79,-3.79,-3.79,-3.79,-3.79,-3.79,-3.79,-3.79,-3.79,-3.79,-3.79,-3.79,-3.79,-3.8161,-3.8602,-3.8083,-3.8562,-3.9637,-4.0561,-4.1573,-4.2746,-4.3942,-4.4435,-4.4572,-4.4572,-4.4572,-4.4572,-4.4572,-4.4572,-4.4572,-4.4572,-4.4572,-4.4572,-4.4572,-4.4572,-4.4572,-4.4572,-4.4572,-4.4572,-4.4572,-4.4572,-4.4572,-4.4572,-4.4572,-4.4572,-4.4572,-4.4572,-4.4572,-4.4572,-4.4572,0.0,-4.4572,-4.4572,-4.4572,-4.4572,-4.4572,-4.4572,-4.4572,-4.4572,-4.4572,-4.4572,-4.4572,-4.4572,-4.4648,-4.4572,-4.4572,-4.4572,-4.5348,-4.604,-4.6742,0.0,0.0,0.0,0.0,0.0,0.0,0.0,0.0,0.0,0.0,0.0,0.0,0.0,0.0,0.0,0.0,0.0,0.0,0.0,0.0,0.0,-3.3035,-3.2468,-3.1601,-3.1667,-3.2072,-3.2839,-3.331,-3.3819,-3.4569,-3.4933,-3.5284,-3.5674,-3.6246,-3.6584,-3.6584,-3.7247,-3.7573,-3.7573,-3.7821,-3.79,-3.79,-3.79,-3.79,-3.79,-3.79,-3.79,-3.79,-3.79,-3.79,-3.79,-3.79,-3.8083,-3.8434,-3.8434,-3.8692,-3.9038,-3.8602,-3.8769,-3.9441,-4.0201,-4.142,-4.2971,-4.4159,-4.4572,-4.4572,-4.4572,-4.4572,-4.4572,-4.4572,-4.4572,-4.4572,-4.4572,-4.4572,-4.4572,-4.4572,-4.4572,-4.4572,-4.4572,-4.4572,-4.4572,-4.4572,-4.4572,-4.4572,-4.4572,-4.4572,-4.4572,-4.4572,-4.4572,-4.4572,-4.4572,-4.4572,-4.4572,-4.4572,-4.4572,-4.4572,-4.4572,-4.4572,-4.4572,-4.4572,-4.4572,-4.4572,-4.4572,-4.4572,-4.4858,-4.5348,-4.4858,-4.4572,-4.4572,-4.5348,-4.5769,0.0,0.0,0.0,0.0,0.0,0.0,0.0,0.0,0.0,0.0,0.0,0.0,0.0,0.0,0.0,0.0,0.0,0.0,0.0,0.0,0.0,0.0,-3.3193,-3.2671,-3.2581,-3.2581,-3.2829,-3.3509,-3.3796,-3.4293,-3.5208,-3.5495,-3.5874,-3.6436,-3.7037,-3.7377,-3.7377,-3.7717,-3.79,-3.79,-3.79,-3.79,-3.79,-3.79,-3.79,-3.79,-3.79,-3.79,-3.79,-3.79,-3.79,-3.79,-3.8083,-3.8344,-3.8602,-3.8782,-3.9127,-3.9557,0.0,0.0,0.0,0.0,-4.2746,-4.3726,-4.4404,-4.4572,-4.4572,-4.4572,-4.4572,-4.4572,-4.4572,-4.4572,-4.4572,-4.4572,-4.4572,-4.4572,-4.4572,-4.4572,-4.4572,-4.4572,-4.4572,-4.4572,-4.4572,-4.4572,-4.4572,-4.4572,-4.4572,0.0,-4.4572,-4.4572,-4.4572,-4.4572,-4.4572,-4.4572,-4.4572,-4.4572,-4.4572,-4.4572,-4.4572,-4.4572,-4.4572,-4.4572,0.0,0.0,0.0,-4.4933,-4.5697,-4.5567,0.0,0.0,0.0,-4.6795,-4.7069,-4.7489,0.0,0.0,-4.7556,-4.7221,0.0,0.0,0.0,0.0,0.0,0.0,0.0,0.0,0.0,0.0,0.0,0.0,0.0,0.0,0.0,0.0,-3.3375,-3.2853,-3.3605,-3.3639,-3.3679,-3.3679,-3.411,-3.4659,-3.5325,-3.5822,-3.6384,-3.705,-3.7599,-3.79,-3.79,-3.79,0.0,0.0,0.0,-3.79,-3.79,-3.79,-3.79,-3.79,-3.7992,-3.7992,-3.7992,-3.7992,-3.8083,-3.8083,-3.8512,-3.8692,-3.8782,-3.9216,-3.9733,-4.017,-3.9733,-4.0546,-4.2179,-4.3834,-4.4511,-4.4572,-4.4572,0.0,0.0,-4.4572,-4.4572,-4.4572,-4.4572,-4.4572,-4.4572,-4.4572,-4.4572,-4.4572,-4.4572,-4.4572,-4.4572,-4.4572,-4.4572,-4.4572,-4.4572,-4.4572,-4.4572,-4.4572,-4.4572,-4.4572,-4.4572,-4.4572,-4.4572,-4.4572,-4.4572,-4.4572,-4.4572,-4.4572,-4.4572,-4.4572,-4.4572,0.0,-4.4572,-4.4572,-4.4572,-4.4572,-4.4648,-4.4993,-4.5697,-4.6394,-4.7085,-4.7754,-4.7885,-4.8225,-4.8861,-4.894,-4.9001,-4.894,-4.7638,-4.7017,0.0,0.0,0.0,0.0,0.0,0.0,0.0,0.0,0.0,0.0,0.0,0.0,0.0,0.0,0.0,-3.5018,-3.4402,-3.3874,-3.402,-3.4199,-3.4241,-3.4241,-3.4332,-3.4803,-3.5848,-3.6044,-3.6554,-3.7652,-3.7835,-3.79,-3.79,-3.79,-3.79,-3.79,-3.79,-3.79,-3.79,-3.79,-3.79,-3.79,-3.8253,0.0,-3.8512,-3.8859,-3.9038,-3.9038,-3.9127,-3.9394,-3.9733,-3.9821,-4.0416,-4.1353,-4.1269,-4.1742,-4.2548,-4.3457,-4.4112,-4.4572,-4.4572,-4.4572,-4.4572,-4.4572,-4.4572,-4.4572,-4.4572,-4.4572,0.0,-4.4572,-4.4572,-4.4572,-4.4572,-4.4572,-4.4572,-4.4572,-4.4572,-4.4572,-4.4572,-4.4572,-4.4572,-4.4572,-4.4572,-4.4572,-4.4572,-4.4572,-4.4572,-4.4572,-4.4572,-4.4572,-4.4572,-4.4572,-4.4572,-4.4572,-4.4572,-4.4572,-4.4572,-4.4572,-4.4572,-4.4572,-4.5142,-4.5567,-4.5697,-4.6394,-4.688,-4.7017,-4.7622,-4.795,-4.8096,-4.8719,-4.9001,-4.9001,-4.8736,-4.8593,0.0,0.0,0.0,0.0,0.0,0.0,0.0,0.0,0.0,0.0,0.0,-3.6459,-3.6938,0.0,-3.5558,-3.6098,-3.5376,-3.4778,-3.4687,-3.4722,-3.4647,-3.4397,-3.4397,-3.4737,-3.5626,-3.594,-3.6488,-3.7377,-3.773,-3.79,-3.79,-3.79,-3.79,-3.79,-3.79,-3.79,-3.79,-3.79,-3.7992,-3.8253,-3.8512,-3.8692,-3.8948,-3.9216,-3.9305,-3.9305,-3.9557,-3.9733,-4.0083,-4.0602,-4.1184,-4.1771,-4.2415,-4.282,-4.322,-4.3849,-4.4343,-4.4572,-4.4572,-4.4572,-4.4572,-4.4572,-4.4572,-4.4572,-4.4572,-4.4572,-4.4572,-4.4572,-4.4572,-4.4572,-4.4572,-4.4572,-4.4572,-4.4572,-4.4572,-4.4572,-4.4572,-4.4572,-4.4572,-4.4572,-4.4572,-4.4572,-4.4572,-4.4572,-4.4572,-4.4572,-4.4572,-4.4572,-4.4572,-4.4572,-4.4572,-4.4572,-4.4572,-4.4572,-4.4572,-4.4572,-4.4572,-4.4572,-4.5624,-4.6253,-4.6253,-4.7288,-4.7901,-4.7901,-4.8242,-4.845,-4.845,-4.8798,-4.9001,-4.9001,-4.9001,-4.9001,0.0,0.0,0.0,0.0,0.0,0.0,0.0,-3.734,-3.7668,-3.7194,-3.6909,-3.6971,-3.7527,-3.6812,-3.6417,-3.7142,-3.6335,-3.5576,-3.5345,-3.5236,-3.5072,-3.4564,-3.4481,-3.4633,-3.5234,-3.5796,-3.6358,-3.6959,-3.756,-3.79,-3.79,-3.79,-3.79,-3.79,-3.7992,-3.8083,-3.8083,-3.8161,-3.8344,-3.8782,-3.8872,-3.9038,-3.9482,-3.9571,-3.9557,-3.9557,-3.9996,-4.017,-4.0257,-4.1437,-4.1854,-4.2005,-4.3299,-4.3786,-4.3864,-4.4419,-4.4572,-4.4572,-4.4572,-4.4572,-4.4572,-4.4572,-4.4572,-4.4572,-4.4572,-4.4572,-4.4572,-4.4572,-4.4572,-4.4572,-4.4572,-4.4572,-4.4572,-4.4572,-4.4572,-4.4572,-4.4572,-4.4572,-4.4572,-4.4572,-4.4572,-4.4572,-4.4572,-4.4648,-4.4723,-4.4572,-4.4648,-4.4723,-4.4572,-4.4648,-4.4723,-4.4572,-4.4572,-4.4572,-4.4572,-4.4723,-4.4783,-4.4783,-4.604,-4.688,-4.7017,-4.8177,-4.8923,-4.9063,-4.9063,-4.9124,-4.9124,-4.9124,-4.9124,-4.9124,-4.9124,-4.9063,-3.7223,-3.6886,-3.6602,-3.6199,-3.6556,-3.6882,0.0,-3.6966,-3.751,-3.7408,-3.762,-3.7841,-3.7904,-3.7767,-3.7575,-3.7723,-3.6897,-3.6308,-3.6232,-3.5898,-3.548,-3.5072,-3.4647,-3.4633,-3.5234,-3.5796,-3.6358,-3.6959,-3.756,-3.79,-3.79,-3.79,-3.79,-3.79,-3.8344,-3.8512,-3.8512,-3.8948,-3.9127,-3.9216,-3.9645,-3.9908,-3.9908,-4.0343,-4.053,-4.053,-4.0616,-4.0616,-4.0688,-4.199,-4.2467,-4.2629,-4.3927,-4.4496,-4.4496,-4.4572,-4.4572,-4.4572,-4.4572,-4.4572,-4.4572,-4.4572,-4.4572,-4.4572,-4.4572,-4.4572,-4.4572,-4.4572,-4.4572,-4.4572,-4.4572,-4.4572,-4.4572,-4.4572,-4.4572,-4.4572,-4.4572,-4.4572,-4.4572,-4.4572,-4.4572,-4.4572,-4.4572,-4.4874,-4.5024,-4.4648,-4.4874,-4.5024,-4.4663,-4.4949,-4.5024,-4.4648,-4.4572,-4.4572,-4.4572,-4.5216,-4.5567,-4.5567,-4.6324,-4.7085,-4.7754,-4.8063,-4.8543,-4.9168,-4.935,-4.9428,-4.9428,-4.9428,-4.9428,-4.9428,-4.9428,-4.9307,-3.7411,-3.7105,-3.6908,-3.6284,-3.674,-3.7225,-3.6734,-3.7172,-3.7746,-3.7706,-3.803,-3.8216,-3.8098,-3.8077,-3.8056,-3.7871,-3.7195,-3.6693,-3.6391,-3.6232,-3.5978,-3.548,-3.5304,-3.5083,-3.4834,-3.5299,-3.583,-3.6326,-3.7197,-3.7904,-3.8185,-3.8505,-3.8692,-3.8692,-3.8948,-3.9038,-3.9038,-3.9216,-3.9482,-3.9733,-3.9908,-4.017,-4.043,-4.0616,-4.0702,-4.0702,-4.1114,-4.1283,-4.1367,-4.2659,-4.322,-4.3299,-4.4251,-4.4572,-4.4572,-4.4572,-4.4572,-4.4572,-4.4572,-4.4572,-4.4572,-4.4572,-4.4723,-4.4949,-4.4949,-4.5098,-4.5321,-4.5321,-4.5321,-4.5321,-4.5321,-4.5321,-4.5321,-4.5321,-4.5321,-4.5321,-4.5321,-4.5321,-4.5321,-4.5321,-4.5321,-4.5321,-4.5321,-4.5468,-4.5468,-4.5321,-4.5468,-4.5468,-4.5321,-4.5468,-4.5599,-4.5697,-4.5697,-4.5825,-4.6134,-4.6416,-4.6625,-4.6625,-4.7323,-4.7885,-4.8208,-4.8668,-4.9073,-4.935,-4.9488,-4.9488,-4.9488,-4.9488,-4.9488,-4.9488,-4.9488,-4.9428,-3.7595,-3.7372,-3.7126,-3.6308,-3.6763,-3.7295,-3.6834,-3.727,-3.7817,-3.8026,-3.8503,-3.8779,-3.8288,-3.8394,-3.8409,-3.7951,-3.7352,-3.6915,-3.6628,-3.6549,-3.6377,-3.5965,-3.5884,-3.5562,-3.4812,-3.527,-3.5698,-3.5867,-3.697,-3.7806,-3.8079,-3.8572,-3.8803,-3.8803,-3.8891,-3.8978,-3.8978,-3.9152,-3.9326,-3.9684,-3.9684,-3.9939,-4.0449,-4.0617,-4.0787,-4.1029,-4.1535,-4.1771,-4.2005,-4.314,-4.363,-4.363,-4.4343,-4.4572,-4.4572,-4.4723,-4.4723,-4.4572,-4.4572,-4.4572,-4.4572,-4.4572,-4.4799,-4.5024,-4.5173,-4.5395,-4.5687,-4.576,-4.576,-4.576,-4.576,-4.576,-4.576,-4.576,-4.576,-4.576,-4.576,-4.576,-4.576,-4.576,-4.576,-4.576,-4.576,-4.5905,-4.5961,-4.5961,-4.6032,-4.6048,-4.5832,-4.576,-4.5945,-4.6464,-4.6518,-4.671,-4.7223,-4.7506,-4.7572,-4.7572,-4.8336,-4.8668,-4.8668,-4.9273,-4.9547,-4.9547,-4.9607,-4.9624,-4.9624,-4.9624,-4.9624,-4.9624,-4.9624,-4.9624,-3.7721,-3.7559,-3.7185,-3.6308,-3.6444,-3.6734,-3.6479,-3.7004,-3.7682,-3.8246,-3.9216,-3.9674,-3.8756,-3.8963,-3.9,-3.8023,-3.7352,-3.6978,-3.6978,-3.6978,-3.6836,-3.6391,-3.6405,-3.6232,-3.5723,-3.617,-3.6356,-3.5951,-3.6838,-3.7429,-3.7429,-3.7443,-3.7456,-3.7456,-3.7865,-3.8131,-3.8131,-3.8657,-3.8917,-3.8917,-3.8917,-3.9226,-3.9831,-4.0421,-4.1029,-4.1688,-4.1688,-4.2005,-4.2629,-4.3299,-4.363,-4.363,-4.4343,-4.4572,-4.4663,-4.5024,-4.4949,-4.4572,-4.4572,-4.4572,-4.4572,-4.4572,-4.4572,-4.4723,-4.5098,-4.5247,-4.5321,-4.5687,-4.576,-4.576,-4.576,-4.576,-4.576,-4.576,-4.576,-4.576,-4.576,-4.576,-4.576,-4.576,-4.576,-4.576,-4.576,-4.6104,-4.6285,-4.6285,-4.6598,-4.6598,-4.5905,-4.576,-4.5945,-4.6464,-4.6518,-4.671,-4.7223,-4.7998,-4.8336,-4.8336,-4.9073,-4.9488,-4.9488,-4.959,-4.9708,-4.9708,-4.9877,-4.9993,-4.9993,-4.9993,-4.9993,-4.9993,-4.9993,-4.9993,-3.7846,-3.7721,-3.7394,-3.6422,-3.6945,-3.7543,-3.6799,-3.7432,-3.8323,-3.8511,-3.9467,-4.0059,-3.9125,-3.929,-3.9346,-3.8354,-3.7567,-3.6978,-3.6978,-3.6978,-3.6993,-3.6836,-3.6772,-3.6615,-3.6232,-3.6075,-3.6103,-3.6198,-3.6921,-3.7414,-3.7715,-3.8117,-3.8436,-3.8436,-3.8518,-3.8601,-3.8601,-3.8779,-3.8861,-3.8861,-3.8861,-3.8974,-3.9184,-3.9381,-4.0106,-4.1165,-4.1543,-4.2326,-4.3299,-4.402,-4.4404,-4.4708,-4.4933,-4.5173,-4.5395,-4.5541,-4.5541,-4.5395,-4.5395,-4.5395,-4.5395,-4.5395,-4.5526,-4.5713,-4.5873,-4.6088,-4.6388,-4.6458,-4.6528,-4.6528,-4.6528,-4.6528,-4.6528,-4.6528,-4.6528,-4.6528,-4.6528,-4.6528,-4.6528,-4.6528,-4.6528,-4.6528,-4.6528,-4.6598,-4.6738,-4.6738,-4.6807,-4.6807,-4.6528,-4.6528,-4.686,-4.7671,-4.7737,-4.8127,-4.8995,-4.9333,-4.9471,-4.9471,-4.9666,-4.9818,-4.9818,-4.9877,-4.9918,-4.9918,-4.9952,-5.0011,-5.0011,-5.0011,-5.0011,-5.0011,-5.0011,-5.0011,-3.7951,-3.7863,-3.7559,-3.6568,-3.7146,-3.7757,-3.6986,-3.7646,-3.8433,-3.8606,-3.9487,-3.9994,-3.9314,-3.9344,-3.9289,-3.8517,-3.763,-3.707,-3.6978,-3.6978,-3.6978,-3.6978,-3.6978,-3.6915,-3.6615,-3.6363,-3.6204,-3.6405,-3.691,-3.7278,-3.7569,-3.7976,-3.8201,-3.8201,-3.8201,-3.8201,-3.8201,-3.8201,-3.8201,-3.8201,-3.8426,-3.8524,-3.8538,-3.8979,-3.9777,-4.0808,-4.1425,-4.2419,-4.367,-4.4202,-4.4732,-4.5247,-4.5395,-4.5541,-4.5832,-4.5961,-4.5961,-4.5961,-4.5832,-4.576,-4.576,-4.576,-4.5977,-4.6159,-4.6285,-4.6512,-4.6738,-4.6876,-4.6876,-4.6876,-4.6876,-4.6876,-4.6876,-4.6876,-4.6876,-4.6876,-4.6876,-4.6876,-4.6876,-4.6876,-4.6876,-4.6876,-4.6876,-4.6876,-4.6876,-4.6876,-4.6876,-4.6876,-4.6876,-4.7098,-4.7471,-4.8289,-4.8606,-4.9057,-4.9935,-5.0011,-5.0011,-5.0011,-5.0011,-5.0011,-5.0011,-5.0011,-5.0011,-5.0011,-5.0011,-5.0011,-5.0011,-5.0011,-5.0011,-5.0011,-5.0011,-5.0011,-3.8036,-3.8018,-3.7792,-3.6843,-3.7054,-3.7428,-3.7152,-3.7529,-3.813,-3.8712,-3.9299,-3.9654,-3.939,-3.9187,-3.8946,-3.8532,-3.7782,-3.7226,-3.7056,-3.6978,-3.6978,-3.6978,-3.6978,-3.6978,-3.6978,-3.6978,-3.6836,-3.647,-3.6758,-3.6978,-3.6978,-3.6978,-3.6978,-3.6978,-3.6978,-3.6978,-3.6978,-3.6978,-3.6978,-3.6993,-3.7569,-3.785,-3.7957,-3.9082,-4.0002,-4.0746,-4.128,-4.2362,-4.3584,-4.4024,-4.4575,-4.5258,-4.564,-4.5801,-4.5905,-4.623,-4.6356,-4.6301,-4.5977,-4.5832,-4.5832,-4.5832,-4.5832,-4.5905,-4.623,-4.6356,-4.6442,-4.6807,-4.6876,-4.6876,-4.6876,-4.6876,-4.6876,-4.6876,-4.6876,-4.6876,-4.6876,-4.6876,-4.6876,-4.6876,-4.6876,-4.6876,-4.6876,-4.6876,-4.6876,-4.6876,-4.6945,-4.6945,-4.6876,-4.737,-4.7886,-4.8353,-4.8855,-4.9394,-4.9935,-5.0011,-5.0011,-5.0011,-5.0011,-5.0011,-5.0011,-5.0011,-5.0011,-5.0011,-5.0011,-5.0011,-5.0011,-5.0011,-5.0011,-5.0011,-5.0011,-5.0011,-3.8174,-3.8088,-3.7862,-3.7285,-3.7306,-3.7516,-3.7648,-3.7819,-3.82,-3.8821,-3.9355,-3.9845,-4.0259,-3.9673,-3.9154,-3.9384,-3.8219,-3.7226,-3.7056,-3.6978,-3.6978,-3.6978,-3.6978,-3.6978,-3.6978,-3.6978,-3.6993,-3.6836,-3.6915,-3.6978,-3.6978,-3.6978,-3.6978,-3.6978,-3.6978,-3.6978,-3.6978,-3.6978,-3.6978,-3.6978,-3.7147,-3.7438,-3.7901,-3.8213,-3.9232,-4.0695,-4.1122,-4.2011,-4.322,-4.3576,-4.4338,-4.5269,-4.5426,-4.5939,-4.6598,-4.6738,-4.6738,-4.6738,-4.6668,-4.6598,-4.6598,-4.6598,-4.6598,-4.6598,-4.6738,-4.6738,-4.6738,-4.6876,-4.6876,-4.6876,-4.6876,-4.6876,-4.6876,-4.6876,-4.6876,-4.6876,-4.6876,-4.6876,-4.6876,-4.6876,-4.6876,-4.6876,-4.6876,-4.6876,-4.6876,-4.6876,-4.7218,-4.7354,-4.6945,-4.737,-4.7886,-4.8353,-4.8855,-4.9394,-4.9935,-5.0011,-5.0011,-5.0011,-5.0011,-5.0011,-5.0011,-5.0011,-5.0011,-5.0011,-5.0011,-5.0011,-5.0011,-5.0011,-5.0011,-5.0011,-5.0011,-5.0011,-3.8192,-3.814,-3.7915,-3.7303,-3.7238,-3.7356,-3.7238,-3.76,-3.8051,-3.8467,-3.8936,-3.9487,-4.0147,-3.944,-3.8864,-3.9297,-3.8252,-3.7303,-3.7056,-3.6978,-3.6978,-3.6978,-3.6978,-3.6978,-3.6978,-3.6978,-3.6978,-3.6978,-3.6978,-3.6978,-3.6978,-3.6726,-3.6585,-3.6585,-3.6585,-3.6712,-3.6978,-3.6978,-3.6978,-3.6978,-3.6978,-3.7429,-3.8159,-3.8383,-3.9311,-4.0766,-4.1187,-4.1937,-4.294,-4.3269,-4.397,-4.4813,-4.5034,-4.5656,-4.6407,-4.6407,-4.6601,-4.6876,-4.6876,-4.6876,-4.6876,-4.6876,-4.6876,-4.6876,-4.6876,-4.6876,-4.6876,-4.6876,-4.6876,-4.6876,-4.6876,-4.6876,-4.6876,-4.6876,-4.6876,-4.6876,-4.6876,-4.6876,-4.6876,-4.6876,-4.6876,-4.6876,-4.6876,-4.6876,-4.6876,-4.6876,-4.7167,-4.7302,-4.7235,-4.7869,-4.8433,-4.8731,-4.9256,-4.9666,-4.9935,-5.0011,-5.0011,-5.0011,-5.0011,-5.0011,-5.0011,-5.0011,-5.0011,-5.0011,-5.0011,-5.0011,-5.0011,-5.0011,-5.0011,-5.0011,-5.0011,-5.0011,-3.8192,-3.8192,-3.802,-3.7264,-3.7076,-3.7018,-3.6627,-3.7104,-3.7649,-3.7926,-3.8356,-3.8864,-3.9544,-3.8935,-3.8381,-3.8736,-3.8091,-3.7457,-3.707,-3.6978,-3.6978,-3.6978,-3.6978,-3.6978,-3.6978,-3.6978,-3.6978,-3.6978,-3.6978,-3.6978,-3.6978,-3.6473,-3.615,-3.6065,-3.5981,-3.6248,-3.6852,-3.6866,-3.6908,-3.6978,-3.7056,-3.7567,-3.8354,-3.9088,-3.9874,-4.069,-4.1358,-4.2002,-4.2556,-4.2972,-4.352,-4.4161,-4.451,-4.5063,-4.5678,-4.5775,-4.6196,-4.6763,-4.686,-4.6876,-4.6876,-4.6876,-4.6876,-4.6876,-4.6876,-4.6876,-4.6876,-4.6876,-4.6876,-4.6876,-4.6876,-4.6876,-4.6876,-4.6876,-4.6876,-4.6876,-4.6876,-4.6876,-4.6876,-4.6876,-4.6876,-4.6876,-4.6876,-4.6876,-4.6876,-4.6876,-4.6945,-4.7218,-4.7754,-4.856,-4.9118,-4.9178,-4.9666,-5.0011,-5.0011,-5.0011,-5.0011,-5.0011,-5.0011,-5.0011,-5.0011,-5.0011,-5.0011,-5.0011,-5.0011,-5.0011,-5.0011,-5.0011,-5.0011,-5.0011,-5.0011,-5.0011,-3.8192,-3.8192,-3.814,-3.802,-3.7303,-3.676,-3.7292,-3.6818,-3.6605,-3.7774,-3.7945,-3.8259,-3.9463,-3.8795,-3.8217,-3.8736,-3.8018,-3.7303,-3.7056,-3.6978,-3.6978,-3.6978,-3.6978,-3.6978,-3.6978,-3.6978,-3.6978,-3.6978,-3.6978,-3.6978,-3.6978,-3.688,-3.6599,-3.6093,-3.5662,-3.5691,-3.622,-3.6234,-3.6487,-3.6978,-3.7519,-3.781,-3.8023,-3.9406,-4.013,-4.0339,-4.1491,-4.2109,-4.2221,-4.2558,-4.3105,-4.3767,-4.3832,-4.4334,-4.503,-4.5597,-4.5888,-4.6083,-4.6682,-4.6876,-4.6876,-4.6876,-4.6876,-4.6876,-4.6876,-4.6876,-4.6876,-4.6876,-4.6876,-4.6876,-4.6876,-4.6876,-4.6876,-4.6876,-4.6876,-4.6876,-4.6876,-4.6876,-4.6876,-4.6876,-4.6876,-4.6876,-4.6876,-4.6876,-4.6876,-4.6876,-4.7302,-4.7754,-4.8242,-4.8416,-4.8731,-4.9118,-4.9666,-5.0011,-5.0011,-5.0011,-5.0011,-5.0011,-5.0011,-5.0011,-5.0011,-5.0011,-5.0011,-5.0011,-5.0011,-5.0011,-5.0011,-5.0011,-5.0011,-5.0011,-5.0011,-5.0011,-3.8192,-3.8192,-3.814,-3.7863,-3.7487,-3.7143,-3.6723,-3.661,-3.6726,-3.7145,-3.7462,-3.7889,-3.8829,-3.8699,-3.8539,-3.8698,-3.8161,-3.7672,-3.7519,-3.7211,-3.6978,-3.6978,-3.6978,-3.6978,-3.6978,-3.6978,-3.6978,-3.6978,-3.6978,-3.6978,-3.6978,-3.6683,-3.6374,-3.6079,-3.555,-3.5522,-3.6065,-3.5756,-3.5972,-3.6668,-3.6959,-3.7765,-3.9058,-3.9788,-4.0638,-4.1491,-4.2093,-4.2365,-4.2365,-4.2492,-4.2828,-4.3152,-4.3152,-4.3589,-4.4269,-4.4593,-4.4949,-4.537,-4.6083,-4.6326,-4.639,-4.6763,-4.6876,-4.6876,-4.6876,-4.6876,-4.6876,-4.6876,-4.6876,-4.6876,-4.6876,-4.6876,-4.6876,-4.6876,-4.6876,-4.6876,-4.6876,-4.6876,-4.6876,-4.6876,-4.7167,-4.7302,-4.7302,-4.7538,-4.7704,-4.7704,-4.7918,-4.8242,-4.8731,-4.8793,-4.8995,-4.953,-4.9877,-5.0011,-5.0011,-5.0011,-5.0011,-5.0011,-5.0011,-5.0011,-5.0011,-5.0011,-5.0011,-5.0011,-5.0011,-5.0011,-5.0011,-5.0011,-5.0011,-5.0011,-5.0011,-5.0011,-3.8174,-3.8174,-3.8054,-3.7613,-3.7631,-3.7411,-3.6224,-3.6351,-3.6649,-3.6421,-3.6865,-3.7438,-3.7963,-3.8394,-3.8616,-3.8481,-3.8136,-3.7893,-3.7872,-3.7366,-3.6978,-3.6978,-3.6915,-3.6915,-3.6978,-3.6915,-3.6915,-3.6978,-3.6978,-3.6978,-3.6978,-3.6402,-3.6065,-3.6065,-3.555,-3.5522,-3.6065,-3.5662,-3.5808,-3.649,-3.6853,-3.7872,-3.9546,-4.0247,-4.1095,-4.2061,-4.2412,-4.2634,-4.2634,-4.2634,-4.2634,-4.2634,-4.2634,-4.2974,-4.3492,-4.3654,-4.4075,-4.4658,-4.5354,-4.5678,-4.5905,-4.6471,-4.6763,-4.6876,-4.6876,-4.6876,-4.6876,-4.6876,-4.6876,-4.6876,-4.6876,-4.6876,-4.6876,-4.6876,-4.6876,-4.6876,-4.6876,-4.6876,-4.6876,-4.6876,-4.7354,-4.7704,-4.7704,-4.8113,-4.84,-4.84,-4.84,-4.8606,-4.9118,-4.9178,-4.9394,-4.9935,-5.0011,-5.0011,-5.0011,-5.0011,-5.0011,-5.0011,-5.0011,-5.0011,-5.0011,-5.0011,-5.0011,-5.0011,-5.0011,-5.0011,-5.0011,-5.0011,-5.0011,-5.0011,-5.0011,-5.0011,-3.8018,-3.8018,-3.8002,-3.7949,-3.7541,-3.7052,-3.6481,-3.5941,-3.5602,-3.5663,-3.6095,-3.6599,-3.691,-3.7395,-3.7787,-3.8091,-3.7482,-3.7238,-3.7814,-3.7366,-3.6978,-3.6978,-3.6693,-3.6628,-3.6978,-3.6693,-3.6628,-3.6978,-3.6978,-3.6978,-3.6978,-3.6402,-3.6065,-3.6065,-3.555,-3.5522,-3.6065,-3.6009,-3.629,-3.6972,-3.8355,-3.8546,-3.7658,-4.0554,-4.1327,-4.0385,-4.1933,-4.2634,-4.2634,-4.2634,-4.2634,-4.2634,-4.2634,-4.2603,-4.2812,-4.346,-4.3751,-4.3913,-4.4642,-4.5289,-4.5807,-4.5888,-4.6342,-4.6876,-4.6876,-4.6876,-4.6876,-4.6876,-4.6876,-4.6876,-4.6876,-4.6876,-4.6876,-4.6876,-4.6876,-4.6876,-4.6876,-4.6876,-4.6876,-4.6876,-4.7354,-4.7704,-4.7704,-4.8113,-4.84,-4.84,-4.84,-4.8606,-4.9118,-4.9178,-4.9394,-4.9935,-5.0011,-5.0011,-5.0011,-5.0011,-5.0011,-5.0011,-5.0011,-5.0011,-5.0011,-5.0011,-5.0011,-5.0011,-5.0011,-5.0011,-5.0011,-5.0011,-5.0011,-5.0011,-5.0011,-5.0011,-3.7951,-3.7951,-3.7916,-3.7845,-3.7485,-3.6935,-3.6374,-3.5715,-3.5315,-3.5464,-3.5805,-3.6178,-3.6686,-3.7377,-3.7996,-3.8549,-3.7997,-3.7682,-3.8324,-3.7582,-3.6915,-3.6693,-3.647,-3.647,-3.6615,-3.647,-3.6549,-3.6993,-3.6978,-3.6978,-3.6978,-3.6754,-3.6613,-3.6613,-3.6023,-3.5826,-3.6065,-3.585,-3.6127,-3.6826,-3.7548,-3.8369,-3.9218,-4.0485,-4.1245,-4.1641,-4.2285,-4.2634,-4.2634,-4.2634,-4.2634,-4.2634,-4.2634,-4.2634,-4.2666,-4.2958,-4.3055,-4.3168,-4.3897,-4.4318,-4.4609,-4.5046,-4.5662,-4.6309,-4.6747,-4.6876,-4.6876,-4.6876,-4.6876,-4.6876,-4.6876,-4.6876,-4.6876,-4.6876,-4.6876,-4.6876,-4.6876,-4.6876,-4.6876,-4.6876,-4.7538,-4.8113,-4.8113,-4.8827,-4.9333,-4.9333,-4.9333,-4.9471,-4.9666,-4.9666,-4.9742,-5.0011,-5.0011,-5.0011,-5.0011,-5.0011,-5.0011,-5.0011,-5.0011,-5.0011,-5.0011,-5.0011,-5.0011,-5.0011,-5.0011,-5.0011,-5.0011,-5.0011,-5.0011,-5.0011,-5.0011,-5.0011,-3.7846,-3.7846,-3.781,-3.7703,-3.7411,-3.6974,-3.6266,-3.5688,-3.5282,-3.5263,-3.5524,-3.5959,-3.646,-3.7175,-3.7982,-3.8743,-3.8054,-3.7737,-3.8488,-3.7582,-3.6693,-3.6218,-3.6072,-3.6152,-3.6391,-3.6549,-3.6693,-3.6978,-3.6978,-3.6978,-3.6978,-3.681,-3.6712,-3.6712,-3.6473,-3.6248,-3.6065,-3.6052,-3.6301,-3.6878,-3.7387,-3.8325,-3.9662,-4.0416,-4.1178,-4.1948,-4.2429,-4.2634,-4.2634,-4.2634,-4.2634,-4.2634,-4.2634,-4.2634,-4.2634,-4.2634,-4.2634,-4.2636,-4.3217,-4.3524,-4.38,-4.4318,-4.4933,-4.5646,-4.6358,-4.6714,-4.6876,-4.6876,-4.6876,-4.6876,-4.6876,-4.6876,-4.6876,-4.6876,-4.6876,-4.6876,-4.6876,-4.6876,-4.6961,-4.7098,-4.7836,-4.848,-4.8606,-4.9206,-4.9666,-4.9666,-4.9476,-4.9338,-4.9338,-4.9528,-4.9666,-4.9666,-4.9873,-5.0011,-5.0011,-5.0011,-5.0011,-5.0011,-5.0011,-5.0011,-5.0011,-5.0011,-5.0011,-5.0011,-5.0011,-5.0011,-5.0011,-5.0011,-5.0011,-5.0011,-5.0011,-5.0011,-3.7703,-3.7703,-3.7703,-3.7703,-3.7503,-3.7087,-3.6266,-3.5803,-3.5404,-3.4991,-3.5364,-3.5808,-3.5915,-3.6516,-3.7344,-3.8357,-3.7526,-3.7036,-3.8001,-3.712,-3.6232,-3.5723,-3.5318,-3.5494,-3.6325,-3.6772,-3.6993,-3.6978,-3.6978,-3.6978,-3.6978,-3.6402,-3.6079,-3.6079,-3.6655,-3.6683,-3.6079,-3.69,-3.7289,-3.7289,-3.8428,-3.859,-3.8005,-4.0416,-4.1111,-4.0485,-4.1948,-4.2634,-4.2634,-4.2634,-4.2634,-4.2634,-4.2634,-4.2634,-4.2634,-4.2634,-4.2634,-4.2634,-4.2587,-4.3103,-4.3719,-4.3719,-4.4204,-4.4933,-4.5613,-4.6309,-4.6876,-4.6876,-4.6876,-4.6876,-4.6876,-4.6876,-4.6876,-4.6876,-4.6876,-4.6876,-4.6876,-4.6876,-4.7082,-4.7571,-4.8048,-4.8543,-4.9118,-4.8956,-4.8838,-4.8838,-4.8217,-4.7734,-4.7734,-4.8372,-4.8838,-4.8838,-4.9528,-5.0011,-5.0011,-5.0011,-5.0011,-5.0011,-5.0011,-5.0011,-5.0011,-5.0011,-5.0011,-5.0011,-5.0011,-5.0011,-5.0011,-5.0011,-5.0011,-5.0011,-5.0011,-5.0011,-3.7241,-3.7241,-3.7241,-3.7241,-3.6913,-3.6492,-3.6037,-3.5661,-3.5302,-3.511,-3.5417,-3.5792,-3.5857,-3.6335,-3.7063,-3.8292,-3.7291,-3.6721,-3.7912,-3.6844,-3.5723,-3.5318,-3.5399,-3.5642,-3.5884,-3.6601,-3.6978,-3.6978,-3.6978,-3.6796,-3.6388,-3.6178,-3.6065,-3.6065,-3.5855,-3.5719,-3.5522,-3.6443,-3.6907,-3.6907,-3.8458,-3.9376,-3.9662,-4.0909,-4.1656,-4.1933,-4.2429,-4.2634,-4.2634,-4.2634,-4.2634,-4.2634,-4.2634,-4.2634,-4.2634,-4.2634,-4.2634,-4.2634,-4.2634,-4.278,-4.2974,-4.2974,-4.346,-4.4091,-4.4302,-4.5208,-4.6245,-4.6747,-4.6876,-4.6876,-4.6876,-4.6876,-4.6876,-4.6876,-4.6876,-4.6876,-4.6876,-4.6876,-4.7082,-4.7571,-4.765,-4.7804,-4.8371,-4.826,-4.8062,-4.8062,-4.7872,-4.7717,-4.7717,-4.7924,-4.8062,-4.8062,-4.8752,-4.9407,-4.9959,-5.0011,-5.0011,-5.0011,-5.0011,-5.0011,-5.0011,-5.0011,-5.0011,-5.0011,-5.0011,-5.0011,-5.0011,-5.0011,-5.0011,-5.0011,-5.0011,-5.0011,-3.697,-3.6987,-3.6987,-3.693,-3.6632,-3.6387,-3.6283,-3.6011,-3.5754,-3.5736,-3.5925,-3.6102,-3.5993,-3.6245,-3.6796,-3.8096,-3.7321,-3.675,-3.7627,-3.6674,-3.5615,-3.4908,-3.5318,-3.571,-3.571,-3.6508,-3.6978,-3.6978,-3.6768,-3.6473,-3.6093,-3.563,-3.5451,-3.5451,-3.5384,-3.5187,-3.5034,-3.5937,-3.6587,-3.6845,-3.8004,-3.9009,-3.9999,-4.0758,-4.1459,-4.2222,-4.2492,-4.2634,0.0,-4.2634,-4.2634,-4.2634,-4.2634,-4.2634,-4.2634,-4.2634,-4.2634,-4.2634,-4.2634,-4.2634,-4.2634,-4.2634,-4.312,-4.3719,-4.3719,-4.469,-4.5953,-4.6682,-4.6876,-4.6876,-4.6876,-4.6876,-4.6876,-4.6876,-4.6876,-4.6876,-4.6876,-4.7082,-4.7272,-4.7522,-4.76,-4.7689,-4.7909,-4.7545,-4.7286,-4.7286,-4.7044,-4.6855,-4.6855,-4.7113,-4.7286,-4.7286,-4.7958,-4.8614,-4.9097,-4.9683,-5.0011,-5.0011,-5.0011,-5.0011,-5.0011,-5.0011,-5.0011,-5.0011,-5.0011,-5.0011,-5.0011,-5.0011,-5.0011,-5.0011,-5.0011,-5.0011,0.0,-3.6948,-3.6908,-3.6864,-3.6678,-3.6611,-3.6911,-3.6789,0.0,-3.6803,-3.6814,-3.6679,-3.626,-3.6196,-3.659,-3.778,-3.7449,-3.708,-3.7187,-3.6596,-3.5749,-3.4551,-3.5141,-3.571,-3.571,-3.6466,-3.6922,-3.6922,-3.636,-3.5981,-3.5939,-3.4857,-3.4297,-3.4469,-3.5022,-3.5123,-3.4768,-3.5568,-3.6245,-3.6937,-3.7259,-3.8076,-3.9388,-4.0109,-4.0894,-4.1591,-4.2285,-4.2634,-4.2634,-4.2634,-4.2634,-4.2634,-4.2634,-4.2634,-4.2634,-4.2634,-4.2634,-4.2634,-4.2634,-4.2634,-4.2634,-4.2634,-4.3087,-4.3638,-4.3686,-4.469,-4.5937,-4.6617,-4.6844,-4.6876,-4.6876,-4.6876,-4.6876,-4.6876,-4.6961,-4.6945,-4.6945,-4.7354,-4.7671,-4.7417,-4.7723,-4.796,-4.7657,-4.7027,-4.6527,-4.6527,-4.5906,-4.5423,-4.5423,-4.6061,-4.6527,-4.6527,-4.72,-4.7631,-4.7631,-4.9045,-4.9924,-4.9924,-4.9976,-5.0011,-5.0011,-5.0011,-5.0011,-5.0011,-5.0011,-5.0011,-5.0011,-5.0011,-5.0011,-5.0011,-5.0011,-5.0011,-3.6301,0.0,-3.6371,-3.6913,-3.6962,-3.7079,0.0,-3.7691,-3.7547,-3.7172,-3.7005,-3.6746,-3.6307,-3.6085,-3.6478,-3.7795,-3.7183,-3.6736,-3.7172,-3.5803,-3.4716,-3.4481,-3.5141,-3.571,-3.571,-3.6092,-3.6276,-3.6276,-3.5714,-3.5166,-3.4688,-3.4393,-3.4171,-3.4055,-3.4184,-3.4184,-3.4111,-3.4922,-3.5633,-3.635,-3.7534,-3.8841,-4.0244,-4.0959,-4.1656,-4.2349,-4.2492,-4.2634,-4.2634,-4.2634,-4.2634,-4.2634,-4.2634,-4.2634,-4.2634,-4.2634,-4.2634,-4.2634,-4.2634,-4.2634,-4.2634,-4.2634,-4.2747,-4.299,-4.3541,-4.469,-4.584,-4.6002,-4.6455,-4.6876,-4.6876,-4.6876,-4.6876,-4.6876,-4.7218,-4.7504,-4.7504,-4.7869,-4.8152,-4.7986,-4.7556,-4.7101,-4.6883,-4.6217,-4.5699,-4.5699,-4.5544,-4.5423,-4.5423,-4.5596,-4.5699,-4.5699,-4.6406,-4.6872,-4.6872,-4.8234,-4.9097,-4.9097,-4.9666,-5.0011,-5.0011,-5.0011,-5.0011,-5.0011,-5.0011,-5.0011,-5.0011,-5.0011,-5.0011,-5.0011,-5.0011,-5.0011,-3.5958,-3.6144,-3.659,-3.6911,-3.7268,-3.7665,-3.832,-3.8458,-3.8286,-3.7714,-3.7456,-3.7096,-3.6166,-3.6152,-3.6647,-3.7541,-3.7506,-3.7229,-3.7062,-3.5575,-3.4397,-3.4397,-3.5141,-3.5601,-3.533,-3.58,-3.5953,-3.5672,-3.5082,-3.459,-3.4181,-3.3972,-3.3804,-3.3911,-3.3896,-3.3951,-3.4157,-3.4542,-3.5121,-3.5825,-3.693,-3.8211,-3.9591,-4.0556,-4.147,-4.2164,-4.2488,-4.2634,-4.2634,-4.2634,-4.2634,-4.2634,-4.2634,-4.2634,-4.2634,-4.2634,-4.2634,-4.2634,-4.2634,-4.2634,-4.2634,-4.2634,-4.2634,-4.2636,-4.3087,-4.3978,-4.4982,-4.5629,-4.6326,-4.6876,-4.6876,-4.7082,-4.7302,-4.7302,-4.7671,-4.8,-4.8,-4.8416,-4.8635,-4.8184,-4.767,-4.7146,-4.668,-4.5958,-4.5423,-4.5423,-4.5423,-4.5423,-4.5423,-4.5423,-4.5423,-4.5423,-4.5803,-4.6061,-4.6061,-4.7131,-4.8096,-4.8786,-4.9217,-4.9631,-4.9993,-5.0011,-5.0011,-5.0011,-5.0011,-5.0011,-5.0011,-5.0011,-5.0011,-5.0011,-5.0011,-5.0011,-3.5739,-3.6401,-3.72,-3.7092,-3.7606,-3.8289,-3.8856,-3.9041,-3.8891,-3.8004,-3.7889,-3.7483,-3.5976,-3.626,-3.6805,-3.7315,-3.7823,-3.7886,-3.7042,-3.5494,-3.4371,-3.428,-3.5007,-3.5343,-3.4746,-3.5384,-3.5574,-3.5054,-3.445,-3.4098,-3.4098,-3.3607,-3.3536,-3.3896,-3.3951,-3.4088,-3.4414,-3.4414,-3.4743,-3.5419,-3.6119,-3.7086,-3.8472,-3.9785,-4.0816,-4.1614,-4.2213,-4.2537,-4.2634,-4.2634,-4.2634,-4.2634,-4.2634,-4.2634,-4.2634,-4.2634,-4.2634,-4.2634,-4.2634,-4.2634,-4.2634,-4.2634,-4.2634,-4.2634,-4.2634,-4.3136,-4.3962,-4.5144,-4.6083,-4.6747,-4.6997,-4.737,-4.7704,-4.7754,-4.8177,-4.8543,-4.8543,-4.8917,-4.9095,-4.8362,-4.7917,-4.7476,-4.6734,-4.5958,-4.5423,-4.5423,-4.5423,-4.5423,-4.5423,-4.5423,-4.5476,-4.5423,-4.5423,-4.5406,-4.5423,-4.6044,-4.701,-4.8407,-4.87,-4.9183,-4.9976,-5.0011,-5.0011,-5.0011,-5.0011,-5.0011,-5.0011,-5.0011,-5.0011,-5.0011,-5.0011,-5.0011,-3.5656,-3.6624,-3.7784,-3.7767,-3.8326,-3.884,-3.893,-3.9356,-3.9232,-3.744,-3.7413,-3.7279,-3.5928,-3.6144,-3.6753,-3.7315,-3.7215,-3.709,-3.6944,-3.5494,-3.4228,-3.377,-3.442,-3.4719,-3.4109,-3.4284,-3.4478,-3.4379,-3.3803,-3.3537,-3.3677,-3.3592,-3.373,-3.4059,-3.4074,-3.421,-3.4414,-3.4414,-3.4712,-3.5434,-3.6081,-3.7121,-3.8511,-3.9235,-4.0322,-4.1642,-4.1695,-4.2083,-4.2634,-4.2634,-4.2634,-4.2634,-4.2634,-4.2634,-4.2634,-4.2634,-4.2634,-4.2634,-4.2634,-4.2634,-4.2634,-4.2634,-4.2634,-4.2634,-4.2634,-4.3136,-4.3767,-4.3962,-4.4965,-4.625,-4.7273,-4.7638,-4.782,-4.8177,-4.8668,-4.9057,-4.9057,-4.953,-4.9636,-4.8862,-4.8161,-4.7476,-4.6734,-4.5958,-4.5423,-4.5423,-4.5423,-4.5423,-4.5423,-4.5598,-4.5649,-4.5423,-4.5598,-4.5649,-4.5423,-4.5544,-4.5992,-4.6889,-4.8131,-4.9183,-4.9976,-5.0011,-5.0011,-5.0011,-5.0011,-5.0011,-5.0011,-5.0011,-5.0011,-5.0011,-5.0011,-5.0011,-3.6662,-3.7477,-3.8302,-3.8302,-3.8907,-3.9396,-3.902,-3.9086,-3.8761,-3.71,-3.6919,-3.6862,-3.6235,-3.6603,-3.7315,-3.8332,-3.7604,-3.688,-3.688,-3.5224,-3.3944,-3.3911,-3.4137,-3.4172,-3.38,-3.4029,-3.4098,-3.3775,-3.348,-3.3396,-3.3605,-3.3605,-3.373,-3.4059,-3.4128,-3.4196,-3.4414,-3.4414,-3.4534,-3.4854,-3.5532,-3.6368,-3.7389,-3.8464,-3.9476,-4.0464,-4.0836,-4.1403,-4.2067,-4.2067,-4.2278,-4.2634,-4.2634,-4.2634,-4.2634,-4.2634,-4.2634,-4.2634,-4.2634,-4.2634,-4.2634,-4.2634,-4.2634,-4.2634,-4.2634,-4.286,-4.3201,-4.3605,-4.4723,-4.594,-4.655,-4.7375,-4.8113,-4.8353,-4.8995,-4.9649,-4.9649,-4.9801,-4.9907,-4.9528,-4.851,-4.7596,-4.7269,-4.6217,-4.5423,-4.5423,-4.5423,-4.5423,-4.5423,-4.5649,-4.5735,-4.5649,-4.5854,-4.5988,-4.5854,-4.5854,-4.6222,-4.7131,-4.8217,-4.9183,-4.9976,-5.0011,-5.0011,-5.0011,-5.0011,-5.0011,-5.0011,-5.0011,-5.0011,-5.0011,-5.0011,-5.0011,-3.7448,-3.8086,-3.8606,-3.8555,-3.9193,-3.9661,-3.8816,-3.8635,-3.823,-3.6676,-3.6446,-3.6491,-3.628,-3.6881,-3.7793,-3.899,-3.7926,-3.6858,-3.6564,-3.4869,-3.3634,-3.3701,-3.3665,-3.3608,-3.3418,-3.3726,-3.3831,-3.3354,-3.3326,-3.3466,-3.3675,-3.3675,-3.3868,-3.4128,-3.4196,-3.4264,-3.4414,-3.4414,-3.4481,-3.4668,-3.5335,-3.5961,-3.6662,-3.7894,-3.8873,-3.9509,-4.0027,-4.0658,-4.1338,-4.15,-4.1889,-4.2407,-4.2569,-4.2634,-4.2634,-4.2634,-4.2634,-4.2634,-4.2634,-4.2634,-4.2634,-4.2634,-4.2634,-4.2634,-4.2634,-4.2634,-4.2747,-4.3425,-4.4529,-4.557,-4.6044,-4.729,-4.8463,-4.8731,-4.9411,-5.0011,-5.0011,-5.0011,-5.0011,-5.0011,-4.8769,-4.7717,-4.7717,-4.6441,-4.5423,-4.5423,-4.5423,-4.5423,-4.5423,-4.5649,-4.5786,-4.5786,-4.6038,-4.6186,-4.6186,-4.6186,-4.6582,-4.7555,-4.8242,-4.905,-5.0057,-5.0051,-5.0011,-5.0011,-5.0011,-5.0011,-5.0011,-5.0011,-5.0011,-5.0011,-5.0011,-5.0011,-3.7402,-3.7953,-3.8555,-3.8437,-3.909,-3.9382,-3.7994,-3.8108,-3.7994,-3.5958,-3.6022,-3.6274,-3.5694,-3.6582,-3.7644,-3.8347,-3.7709,-3.6689,-3.5381,-3.4369,-3.3463,-3.2608,-3.2804,-3.2995,-3.2756,-3.3156,-3.3368,-3.3326,-3.3466,-3.3675,-3.3896,-3.4005,-3.4128,-3.4346,-3.4414,-3.4414,-3.4414,-3.4414,-3.4721,-3.5335,-3.6009,-3.6707,-3.7342,-3.8081,-3.8788,-3.9476,-3.9525,-3.9946,-4.0626,-4.129,-4.1598,-4.1711,-4.2375,-4.2634,-4.2634,-4.2634,-4.2634,-4.2634,-4.2634,-4.2634,-4.2634,-4.2634,-4.2634,-4.2634,-4.2634,-4.2634,-4.2696,-4.3207,-4.3887,-4.4933,-4.6808,-4.7818,-4.8668,-4.9666,-4.9935,-5.0011,-5.0011,-5.0011,-5.0011,-5.0011,-4.8769,-4.7717,-4.7717,-4.6441,-4.5423,-4.5423,-4.5423,-4.5423,-4.5423,-4.5649,-4.5786,-4.5786,-4.6038,-4.6186,-4.6186,-4.6186,-4.6537,-4.7294,-4.7875,-4.8829,-5.0289,-5.0149,-5.0011,-5.0011,-5.0011,-5.0011,-5.0011,-5.0011,-5.0011,-5.0011,-5.0011,-5.0011,-3.8552,-3.8868,-3.9016,-3.8963,-3.8917,-3.8629,-3.7764,-3.7413,-3.689,-3.5733,-3.5683,-3.5918,-3.6109,-3.6821,-3.7494,-3.7749,-3.7119,-3.623,-3.5212,-3.4228,-3.339,-3.2812,-3.2832,-3.2894,-3.3043,-3.3241,-3.3326,-3.3326,-3.3466,-3.3675,-3.3896,-3.4005,-3.4385,-3.5037,-3.5023,-3.5204,-3.5642,-3.5219,-3.5593,-3.6662,-3.6087,-3.6337,-3.7417,-3.7653,-3.8178,-3.8812,-3.8812,-3.9201,-3.9881,-4.0156,-4.0513,-4.0966,-4.1695,-4.2245,-4.2634,-4.2634,-4.2634,-4.2634,-4.2634,-4.2696,-4.2775,-4.2634,-4.2696,-4.2759,-4.2634,-4.2789,-4.308,-4.3246,-4.4015,-4.513,-4.633,-4.744,-4.8436,-4.9291,-4.9884,-5.0263,-5.0263,-5.0359,-5.0369,-4.9916,-4.8957,-4.805,-4.7561,-4.6602,-4.5905,-4.5905,-4.5905,-4.5905,-4.5905,-4.5988,-4.6137,-4.6284,-4.6542,-4.6684,-4.6684,-4.6684,-4.7021,-4.7802,-4.7726,-4.812,-4.9187,-4.8951,-4.9011,-4.9478,-4.9326,-4.951,-5.0011,-5.0011,-5.0011,-5.0011,-5.0011,-5.0011,-3.9299,-3.9379,-3.9272,-3.9023,-3.8479,-3.7879,-3.7354,-3.6784,-3.6258,-3.5619,-3.5504,-3.5699,-3.6372,-3.6836,-3.712,-3.712,-3.6611,-3.5965,-3.5039,-3.4327,-3.3702,-3.3225,-3.3211,-3.3255,-3.3312,-3.3437,-3.3577,-3.3701,-3.373,-3.3937,-3.4558,-3.4572,-3.489,-3.5706,-3.5706,-3.5946,-3.6384,-3.5946,-3.6275,-3.7417,-3.6461,-3.66,-3.7727,-3.7727,-3.7976,-3.8391,-3.8391,-3.8683,-3.9153,-3.9437,-3.9998,-4.0696,-4.1411,-4.1934,-4.2388,-4.2553,-4.2634,-4.2634,-4.2634,-4.2696,-4.2759,-4.2696,-4.2775,-4.2899,-4.2821,-4.3141,-4.3529,-4.3706,-4.4382,-4.5351,-4.6506,-4.7454,-4.8337,-4.9223,-4.9694,-4.9938,-4.9994,-5.0006,-4.9836,-4.9381,-4.8696,-4.7959,-4.7397,-4.6695,-4.6186,-4.6186,-4.6186,-4.6186,-4.6186,-4.6186,-4.6284,-4.659,-4.7055,-4.7265,-4.7015,-4.7212,-4.7497,-4.7783,-4.7417,-4.7632,-4.8588,-4.8382,-4.8468,-4.8992,-4.9035,-4.9378,-4.9916,-5.0045,-5.0109,-5.0092,-5.0051,-5.0011,-3.9379,-3.9272,-3.9148,-3.8463,-3.7822,-3.7191,-3.6538,-3.6368,-3.6196,-3.5619,-3.5504,-3.5699,-3.6357,-3.6477,-3.6477,-3.6477,-3.6477,-3.6023,-3.4765,-3.4595,-3.4312,-3.3575,-3.3973,-3.407,-3.3382,-3.3825,-3.4274,-3.4595,-3.4182,-3.4572,-3.6026,-3.5691,-3.5706,-3.6384,-3.6384,-3.6446,-3.6446,-3.6446,-3.6768,-3.7417,-3.7417,-3.7786,-3.8391,-3.8391,-3.8391,-3.8391,-3.8391,-3.8391,-3.8456,-3.9341,-4.0189,-4.1023,-4.1591,-4.1808,-4.1845,-4.2421,-4.2634,-4.2634,-4.2634,-4.2634,-4.2634,-4.2837,-4.2899,-4.2945,-4.3035,-4.3529,-4.4095,-4.4563,-4.4892,-4.5558,-4.7594,-4.8088,-4.8379,-4.967,-4.939,-4.886,-4.9139,-4.8603,-4.8189,-4.8469,-4.7854,-4.7309,-4.7309,-4.6677,-4.6186,-4.6186,-4.6186,-4.6186,-4.6186,-4.6186,-4.6284,-4.659,-4.7553,-4.7854,-4.7069,-4.7729,-4.7836,-4.7051,-4.6998,-4.7553,-4.8856,-4.8606,-4.8503,-4.8503,-4.9293,-4.9714,-4.9732,-5.0143,-5.0415,-5.0397,-5.0092,-5.0011,-3.9325,-3.8969,-3.8535,-3.8351,-3.7472,-3.6662,-3.643,-3.6085,-3.5748,-3.5569,-3.5504,-3.5564,-3.5759,-3.5804,-3.5804,-3.5804,-3.5904,-3.5654,-3.4758,-3.4927,-3.4861,-3.4177,-3.4461,-3.4743,-3.4743,-3.4942,-3.5109,-3.5439,-3.5469,-3.5676,-3.6089,-3.6119,-3.6399,-3.7087,-3.7087,-3.7342,-3.7828,-3.7342,-3.746,-3.8091,-3.761,-3.7786,-3.8391,-3.8391,-3.8391,-3.8391,-3.8391,-3.8391,-3.8424,-3.8804,-3.9365,-4.0107,-4.0344,-4.1047,-4.1841,-4.1992,-4.2259,-4.2634,-4.2634,-4.2696,-4.2837,-4.2899,-4.3218,-4.3564,-4.3049,-4.3529,-4.4111,-4.3769,-4.3952,-4.4649,-4.6302,-4.6759,-4.7194,-4.8791,-4.8747,-4.8394,-4.8644,-4.8696,-4.8652,-4.8334,-4.808,-4.7725,-4.7175,-4.6891,-4.6778,-4.6778,-4.6778,-4.6684,-4.6495,-4.6637,-4.6731,-4.659,-4.7553,-4.8086,-4.7836,-4.8032,-4.8086,-4.7836,-4.7301,-4.7148,-4.7565,-4.7298,-4.7382,-4.7929,-4.852,-4.9153,-4.9732,-5.0143,-5.0415,-5.0397,-5.0092,-5.0011,-3.9023,-3.8535,-3.7937,-3.7648,-3.6951,-3.6305,-3.6085,-3.5733,-3.5504,-3.5504,-3.5504,-3.5504,-3.5504,-3.5504,-3.5504,-3.5539,-3.5638,-3.5608,-3.527,-3.5529,-3.5529,-3.4927,-3.527,-3.5479,-3.54,-3.5593,-3.5897,-3.6276,-3.6151,-3.6353,-3.698,-3.689,-3.7087,-3.7786,-3.7786,-3.7976,-3.8408,-3.8033,-3.8033,-3.8408,-3.7976,-3.8033,-3.8391,-3.8391,-3.8391,-3.8391,-3.8391,-3.8448,-3.8504,-3.8616,-3.8972,-3.9453,-3.9844,-4.0426,-4.1086,-4.1596,-4.1963,-4.2245,-4.2537,-4.2696,-4.2821,-4.3068,-4.3562,-4.3954,-4.3687,-4.4093,-4.4498,-4.4028,-4.3973,-4.436,-4.5545,-4.5796,-4.6227,-4.8186,-4.8241,-4.784,-4.8131,-4.812,-4.7979,-4.7754,-4.7711,-4.7551,-4.7069,-4.6998,-4.6998,-4.6998,-4.6998,-4.6934,-4.6795,-4.6888,-4.6934,-4.6795,-4.76,-4.805,-4.7729,-4.7997,-4.8032,-4.7729,-4.7265,-4.6998,-4.6998,-4.6842,-4.6962,-4.7406,-4.836,-4.9056,-4.9551,-5.0365,-5.0838,-5.0946,-5.0694,-5.0585,-3.859,-3.7994,-3.7294,-3.66,-3.6368,-3.6196,-3.5619,-3.5504,-3.5504,-3.5504,-3.5504,-3.5504,-3.5504,-3.5504,-3.5554,-3.5703,-3.5752,-3.5879,-3.6133,-3.6211,-3.6133,-3.5816,-3.6226,-3.6289,-3.5657,-3.6054,-3.6616,-3.7191,-3.6661,-3.6919,-3.8335,-3.7844,-3.7786,-3.8391,-3.8391,-3.8391,-3.8391,-3.8391,-3.8391,-3.8391,-3.8391,-3.8391,-3.8391,-3.8391,-3.8391,-3.8391,-3.8391,-3.8464,-3.856,-3.8711,-3.886,-3.9035,-3.9709,-3.9949,-4.005,-4.12,-4.1634,-4.1723,-4.231,-4.2569,-4.268,-4.3399,-4.3781,-4.4135,-4.4698,-4.4957,-4.501,-4.4987,-4.4682,-4.4483,-4.5244,-4.5235,-4.562,-4.7834,-4.7748,-4.7254,-4.7519,-4.7068,-4.6684,-4.6934,-4.6998,-4.6998,-4.6998,-4.6998,-4.6998,-4.6998,-4.6998,-4.6998,-4.6998,-4.6998,-4.6998,-4.6998,-4.7711,-4.789,-4.7158,-4.7765,-4.7872,-4.714,-4.7033,-4.6998,-4.6998,-4.6998,-4.6998,-4.6998,-4.8461,-4.9246,-4.9317,-5.0584,-5.1432,-5.1782,-5.1533,-5.1547,-3.8551,-3.7605,-3.6662,-3.6616,-3.6148,-3.5683,-3.5504,-3.5504,-3.5504,-3.5504,-3.5504,-3.5554,-3.5638,-3.5638,-3.5703,-3.591,-3.6022,-3.6133,-3.6196,-3.6352,-3.6429,-3.6352,-3.6677,-3.6907,-3.6982,-3.7342,-3.7711,-3.8075,-3.8017,-3.8075,-3.8391,-3.8278,-3.8278,-3.8408,-3.8391,-3.8391,-3.8391,-3.8391,-3.8391,-3.8391,-3.8391,-3.8391,-3.8391,-3.8391,-3.8391,-3.8391,-3.8391,-3.8408,-3.8448,-3.8616,-3.8711,-3.8876,-3.9133,-3.9561,-4.0104,-4.036,-4.1023,-4.178,-4.1927,-4.2226,-4.268,-4.3399,-4.3898,-4.4389,-4.4561,-4.4956,-4.5234,-4.4796,-4.4618,-4.4715,-4.5517,-4.5668,-4.5889,-4.7026,-4.6866,-4.653,-4.6772,-4.6696,-4.6684,-4.6934,-4.6998,-4.6998,-4.6998,-4.6998,-4.6998,-4.6998,-4.6998,-4.6998,-4.6998,-4.6998,-4.6998,-4.6998,-4.7711,-4.8104,-4.7943,-4.8086,-4.8104,-4.7925,-4.7337,-4.6998,-4.6998,-4.6998,-4.6998,-4.6998,-4.7943,-4.871,-4.9317,-5.0294,-5.1093,-5.1799,-5.1777,-5.1808,-3.8141,-3.7207,-3.6196,-3.6243,-3.5894,-3.5604,-3.5504,-3.5554,-3.5604,-3.5604,-3.5604,-3.5589,-3.5688,-3.5752,-3.5894,-3.6085,-3.6148,-3.6211,-3.6352,-3.6554,-3.6754,-3.6754,-3.6984,-3.7314,-3.7594,-3.7828,-3.8017,-3.8391,-3.8391,-3.8391,-3.8391,-3.8391,-3.8391,-3.8391,-3.8448,-3.8448,-3.8391,-3.8448,-3.8448,-3.8391,-3.8391,-3.8448,-3.8504,-3.8464,-3.8391,-3.8391,-3.8391,-3.8391,-3.8391,-3.856,-3.8616,-3.8711,-3.8914,-3.9161,-3.9427,-3.9939,-4.032,-4.0778,-4.152,-4.2113,-4.2594,-4.3522,-4.4226,-4.4807,-4.5231,-4.5356,-4.5379,-4.5214,-4.491,-4.4714,-4.5124,-4.5517,-4.5909,-4.632,-4.6511,-4.6637,-4.6731,-4.6795,-4.6842,-4.698,-4.6998,-4.6998,-4.6998,-4.6998,-4.6998,-4.6998,-4.6998,-4.6998,-4.6998,-4.6998,-4.6998,-4.6998,-4.7372,-4.7604,-4.7604,-4.7604,-4.7604,-4.7604,-4.7212,-4.707,-4.7249,-4.7249,-4.7249,-4.7249,-4.8039,-4.892,-4.9812,-5.066,-5.1529,-5.2509,-5.2563,-5.2652,-3.7764,-3.6966,-3.6085,-3.5816,-3.5752,-3.5703,-3.5619,-3.5653,-3.5752,-3.5752,-3.5752,-3.5752,-3.5752,-3.5894,-3.6085,-3.6211,-3.6274,-3.6274,-3.6492,-3.6816,-3.7015,-3.7015,-3.727,-3.7594,-3.7886,-3.7943,-3.8075,-3.8391,-3.8391,-3.8391,-3.8391,-3.8391,-3.8391,-3.8391,-3.8504,-3.8576,-3.8464,-3.856,-3.856,-3.8448,-3.8464,-3.8448,-3.856,-3.8448,-3.8391,-3.8448,-3.8391,-3.8391,-3.8408,-3.8504,-3.856,-3.8616,-3.8876,-3.8821,-3.8737,-3.9604,-3.9748,-3.9729,-4.1232,-4.1993,-4.2501,-4.3738,-4.4507,-4.5161,-4.597,-4.5892,-4.5616,-4.5909,-4.5534,-4.5017,-4.5017,-4.5517,-4.6016,-4.6016,-4.6516,-4.6998,-4.6998,-4.6998,-4.6998,-4.6998,-4.6998,-4.6998,-4.6998,-4.6998,-4.6998,-4.6998,-4.6998,-4.6998,-4.6998,-4.6998,-4.6998,-4.6998,-4.6998,-4.6998,-4.6998,-4.7025,-4.707,-4.707,-4.716,-4.7294,-4.7578,-4.7597,-4.7621,-4.7663,-4.8272,-4.9155,-5.038,-5.1061,-5.2053,-5.33,-5.3341,-5.3499,-3.8439,-3.7562,-3.6492,-3.6085,-3.5831,-3.5752,-3.591,-3.5973,-3.5973,-3.5973,-3.5973,-3.5973,-3.6133,-3.6148,-3.6211,-3.6414,-3.6492,-3.6492,-3.6492,-3.6816,-3.7015,-3.7015,-3.7492,-3.7828,-3.7886,-3.8132,-3.8335,-3.8391,-3.8391,-3.8391,-3.8391,-3.8391,-3.8391,-3.8391,-3.8504,-3.856,-3.856,-3.8711,-3.875,-3.875,-3.8616,-3.8504,-3.8464,-3.8408,-3.8448,-3.8576,-3.8448,-3.8391,-3.8391,-3.8391,-3.852,-3.8616,-3.8766,-3.8805,-3.8821,-3.9029,-3.9362,-3.9805,-4.1033,-4.184,-4.2559,-4.412,-4.4635,-4.491,-4.592,-4.6165,-4.6192,-4.6682,-4.6748,-4.6676,-4.6676,-4.6748,-4.6837,-4.6837,-4.6908,-4.6998,-4.6998,-4.6998,-4.6998,-4.6998,-4.6998,-4.6998,-4.6998,-4.6998,-4.6998,-4.6998,-4.6998,-4.6998,-4.6998,-4.6998,-4.6998,-4.6998,-4.6998,-4.6998,-4.6998,-4.7249,-4.7425,-4.7425,-4.7705,-4.787,-4.7911,-4.7951,-4.8053,-4.8269,-4.8163,-4.8844,-5.038,-5.0802,-5.1768,-5.3318,-5.36,-5.3756,-3.7207,-3.6799,-3.6383,-3.6148,-3.6022,-3.6006,-3.5973,-3.6037,-3.6085,-3.6085,-3.6226,-3.6289,-3.6211,-3.6274,-3.6414,-3.6492,-3.6492,-3.6492,-3.6492,-3.6907,-3.721,-3.721,-3.7786,-3.8205,-3.8205,-3.8335,-3.8391,-3.8391,-3.8019,-3.7792,-3.7792,-3.7436,-3.7404,-3.7776,-3.7887,-3.8137,-3.8504,-3.8711,-3.875,-3.8672,-3.8616,-3.8576,-3.852,-3.8448,-3.8448,-3.8504,-3.8464,-3.8391,-3.8391,-3.8391,-3.8448,-3.8504,-3.8672,-3.8655,-3.86,-3.8805,-3.8907,-3.9146,-4.0364,-4.1372,-4.2272,-4.3623,-4.4548,-4.523,-4.597,-4.6186,-4.6284,-4.6842,-4.6998,-4.6998,-4.6998,-4.6998,-4.6998,-4.6998,-4.6998,-4.6998,-4.6998,-4.6998,-4.6998,-4.6998,-4.6998,-4.6998,-4.6998,-4.6998,-4.6998,-4.6998,-4.6998,-4.6998,-4.6998,-4.716,-4.7294,-4.7294,-4.745,-4.7578,-4.7578,-4.7705,-4.7788,-4.7788,-4.7911,-4.8072,-4.821,-4.8192,-4.8364,-4.866,-4.8402,-4.8895,-5.0208,-5.0379,-5.1305,-5.2915,-5.3049,-5.3367,-3.6305,-3.6258,-3.6321,-3.6274,-3.6274,-3.6211,-3.6163,-3.6211,-3.6274,-3.6274,-3.6414,-3.6429,-3.6274,-3.6414,-3.6492,-3.6492,-3.6492,-3.6492,-3.6492,-3.7013,-3.7417,-3.7417,-3.7976,-3.8391,-3.8391,-3.8391,-3.8391,-3.8391,-3.7728,-3.7323,-3.7323,-3.6675,-3.6546,-3.7048,-3.7357,-3.7714,-3.8172,-3.8613,-3.875,-3.8672,-3.8672,-3.8616,-3.8576,-3.8464,-3.8391,-3.8391,-3.8391,-3.8391,-3.8391,-3.8391,-3.8391,-3.8391,-3.8576,-3.8504,-3.8448,-3.8805,-3.875,-3.877,-4.0121,-4.1218,-4.2227,-4.3418,-4.4523,-4.5476,-4.5955,-4.6137,-4.6284,-4.6795,-4.6952,-4.6998,-4.6998,-4.6998,-4.6998,-4.6998,-4.6998,-4.6998,-4.6998,-4.6998,-4.6998,-4.6998,-4.6998,-4.6998,-4.6998,-4.6998,-4.6998,-4.6998,-4.6998,-4.6998,-4.6998,-4.7294,-4.7511,-4.7511,-4.7788,-4.7992,-4.7992,-4.8053,-4.8093,-4.8093,-4.8172,-4.8326,-4.8495,-4.855,-4.866,-4.8909,-4.866,-4.9066,-5.0098,-5.0098,-5.0859,-5.2308,-5.2308,-5.2624,-3.6966,-3.6784,-3.6616,-3.6538,-3.6352,-3.6274,-3.6414,-3.6492,-3.6492,-3.6492,-3.6492,-3.6492,-3.6492,-3.6492,-3.6492,-3.6492,-3.6492,-3.6492,-3.6492,-3.7013,-3.7417,-3.7417,-3.7976,-3.8391,-3.8391,-3.8391,-3.8391,-3.8391,-3.7728,-3.7323,-3.7323,-3.6675,-3.6319,-3.6367,-3.7113,-3.7508,-3.7557,-3.8515,-3.8914,-3.8805,-3.8805,-3.8655,-3.8391,-3.8391,-3.8391,-3.8391,-3.8391,-3.8391,-3.8391,-3.8391,-3.8391,-3.8391,-3.8576,-3.8504,-3.8448,-3.9007,-3.9115,-3.9176,-4.0813,-4.1817,-4.2669,-4.3855,-4.4803,-4.5459,-4.5752,-4.5988,-4.6235,-4.6542,-4.6778,-4.6998,-4.6998,-4.6998,-4.6998,-4.6998,-4.6998,-4.6998,-4.6998,-4.6998,-4.6998,-4.6998,-4.6998,-4.6998,-4.6998,-4.6998,-4.6998,-4.6998,-4.6998,-4.6998,-4.6998,-4.7294,-4.7511,-4.7511,-4.7788,-4.7992,-4.7992,-4.8231,-4.8383,-4.8383,-4.8678,-4.8874,-4.8855,-4.8855,-4.8874,-4.8909,-4.889,-4.9264,-5.0098,-5.0098,-5.058,-5.1454,-5.1454,-5.1472,-3.6724,-3.7071,-3.7605,-3.7178,-3.6997,-3.6997,-3.7058,-3.6785,-3.6492,-3.6492,-3.6492,-3.6492,-3.6492,-3.6492,-3.6492,-3.6492,-3.6492,-3.6554,-3.6816,-3.715,-3.7476,-3.7711,-3.8148,-3.8391,-3.8391,-3.8391,-3.8391,-3.8391,-3.797,-3.7494,-3.6983,-3.6348,-3.5971,-3.5904,-3.6062,-3.6702,-3.7793,-3.8515,-3.886,-3.8805,-3.8805,-3.8655,-3.8391,-3.8391,-3.8391,-3.8391,-3.8391,-3.8391,-3.8391,-3.8391,-3.8391,-3.8391,-3.8448,-3.8616,-3.8821,-3.9023,-3.9206,-3.9504,-4.0375,-4.1478,-4.2636,-4.3356,-4.4406,-4.5459,-4.5938,-4.6137,-4.6284,-4.6731,-4.6934,-4.6998,-4.6998,-4.6998,-4.6998,-4.6998,-4.6998,-4.6998,-4.6998,-4.6998,-4.6998,-4.6998,-4.6998,-4.6998,-4.6998,-4.6998,-4.6998,-4.6998,-4.6998,-4.6998,-4.6998,-4.7493,-4.7829,-4.7829,-4.8288,-4.8569,-4.8569,-4.8678,-4.8714,-4.8714,-4.882,-4.8909,-4.8909,-4.8909,-4.8909,-4.8909,-4.8909,-4.9039,-4.9336,-4.9336,-4.9763,-5.058,-5.058,-5.0878,-3.7482,-3.788,-3.8488,-3.786,-3.7679,-3.7621,-3.7476,-3.7238,-3.6997,-3.66,-3.6662,-3.6723,-3.6554,-3.6492,-3.6492,-3.6492,-3.6492,-3.6616,-3.6938,-3.721,-3.7535,-3.7886,-3.8205,-3.8448,-3.8616,-3.86,-3.8711,-3.8898,-3.851,-3.7952,-3.7269,-3.6584,-3.6183,-3.6119,-3.5795,-3.647,-3.8181,-3.8377,-3.8575,-3.8805,-3.8805,-3.8655,-3.8391,-3.8391,-3.8391,-3.8391,-3.8391,-3.8391,-3.8391,-3.8391,-3.8391,-3.8391,-3.8391,-3.8655,-3.9023,-3.9169,-3.947,-3.9918,-4.061,-4.1681,-4.2809,-4.3407,-4.4389,-4.5459,-4.5938,-4.6137,-4.6284,-4.6731,-4.6934,-4.6998,-4.6998,-4.6998,-4.6998,-4.6998,-4.6998,-4.6998,-4.6998,-4.6998,-4.6998,-4.6998,-4.6998,-4.6998,-4.6998,-4.6998,-4.6998,-4.6998,-4.6998,-4.7025,-4.716,-4.7663,-4.8032,-4.8132,-4.8587,-4.8909,-4.8909,-4.8909,-4.8909,-4.8909,-4.8909,-4.8909,-4.8909,-4.8909,-4.8909,-4.8909,-4.8909,-4.8909,-4.8909,-4.8909,-4.9169,-4.9707,-4.9707,-5.0153,0.0,0.0,0.0,-3.8456,-3.8351,-3.8181,-3.7578,-3.7911,-3.7953,-3.6769,-3.7013,-3.7238,-3.6662,-3.6554,-3.6554,-3.6554,-3.6554,-3.6616,-3.6999,-3.727,-3.7578,-3.7943,-3.8262,-3.86,-3.8969,-3.9023,-3.9259,-3.9952,-3.9376,-3.871,-3.8145,-3.7404,-3.6932,-3.6887,-3.6374,-3.6901,-3.8572,-3.8077,-3.8117,-3.8805,-3.8805,-3.8655,-3.8391,-3.8391,-3.8391,-3.8391,-3.8391,-3.8391,-3.8391,-3.8391,-3.8391,-3.8391,-3.8391,-3.8655,-3.9077,-3.9454,-3.9901,-4.0506,-4.1636,-4.2509,-4.3335,-4.4044,-4.4803,-4.5459,-4.5752,-4.5988,-4.6235,-4.6525,-4.6795,-4.6998,-4.6998,-4.6998,-4.6998,-4.6998,-4.6998,-4.6998,-4.6998,-4.6998,-4.6998,-4.6998,-4.6998,-4.6998,-4.6998,-4.6998,-4.6998,-4.6998,-4.6998,-4.7116,-4.7468,-4.7788,-4.8093,-4.8383,-4.8695,-4.8909,-4.8909,-4.8909,-4.8909,-4.8909,-4.8909,-4.8909,-4.8909,-4.8909,-4.8909,-4.8909,-4.8909,-4.8909,-4.8909,-4.8909,-4.8909,-4.8909,-4.8909,-4.9317,-3.9745,0.0,0.0,0.0,0.0,0.0,-3.8756,-3.8518,-3.8238,-3.7895,-3.7953,-3.801,-3.7838,-3.778,-3.778,-3.778,-3.7238,-3.7105,-3.7727,-3.8042,-3.8407,-3.9065,-3.9189,-3.9295,-3.9401,-3.9454,-3.961,-3.9952,-4.0097,-3.9654,-3.8594,-3.731,-3.6397,-3.6048,-3.6058,-3.6812,-3.8312,-3.7847,-3.8175,-3.9348,-3.8914,-3.856,-3.8391,-3.8391,-3.8391,-3.8391,-3.8391,-3.8391,-3.8391,-3.8391,-3.8391,-3.8448,-3.8711,-3.9061,-3.9523,-3.9952,-4.037,-4.0848,-4.1733,-4.2509,-4.3335,-4.4044,-4.4803,-4.5476,-4.5938,-4.6137,-4.6284,-4.6731,-4.6934,-4.6998,-4.6998,-4.6998,-4.6998,-4.6998,-4.6998,-4.6998,-4.6998,-4.6998,-4.6998,-4.6998,-4.6998,-4.6998,-4.6998,-4.6998,-4.6998,-4.6998,-4.7205,-4.7381,-4.7511,-4.7974,-4.8307,-4.8383,-4.8695,-4.8909,-4.8909,-4.8909,-4.8909,-4.8909,-4.8909,-4.8909,-4.8909,-4.8909,-4.8909,-4.8909,-4.8909,-4.8909,-4.8909,-4.8909,-4.8909,-4.8909,-4.8909,-4.902,-4.1435,-4.1364,-4.1422,-4.0297,0.0,0.0,-3.9259,-3.9135,-3.8903,-3.839,-3.8518,-3.8574,-3.8351,-3.8278,-3.8278,-3.8278,-3.8026,-3.7985,-3.8439,-3.859,-3.8957,-3.9542,-3.961,-3.9662,-3.9885,-3.9885,-4.0087,-4.0449,-4.0849,-4.0513,-3.928,-3.8035,-3.7131,-3.6522,-3.6388,-3.7007,-3.8463,-3.7967,-3.8266,-3.9454,-3.9061,-3.8711,-3.8391,-3.8391,-3.8391,-3.8391,-3.8391,-3.8391,-3.8391,-3.8391,-3.8391,-3.8448,-3.886,-3.9276,-3.9662,-4.0121,-4.0739,-4.1457,-4.2216,-4.2992,-4.3751,-4.4509,-4.5061,-4.5528,-4.6055,-4.6186,-4.6284,-4.6842,-4.6998,-4.6998,-4.6998,-4.6998,-4.6998,-4.6998,-4.6998,-4.6998,-4.6998,-4.6998,-4.6998,-4.6998,-4.6998,-4.7025,-4.716,-4.7205,-4.7249,-4.7407,-4.7578,-4.7747,-4.7852,-4.8192,-4.8458,-4.8587,-4.8785,-4.8909,-4.8909,-4.8909,-4.8909,-4.8909,-4.8909,-4.8909,-4.8909,-4.8909,-4.8909,-4.8909,-4.8909,-4.8909,-4.8909,-4.8909,-4.8909,-4.8909,-4.8909,-4.8909,-4.3567,-4.2929,-4.2219,-4.1407,-4.0696,0.0,-3.9435,-3.9696,-3.9799,-3.8739,-3.892,-3.9135,-3.8629,-3.8502,-3.8502,-3.8502,-3.8849,-3.9082,-3.9082,-3.9082,-3.9295,-3.9714,-3.9765,-3.9935,-4.0355,-4.0355,-4.0614,-4.1163,-4.1366,-4.1082,-4.0032,-3.9216,-3.8469,-3.7737,-3.7013,-3.7376,-3.8842,-3.8254,-3.8402,-3.9312,-3.9206,-3.8898,-3.8391,-3.8391,-3.8391,-3.8391,-3.8391,-3.8391,-3.8391,-3.8448,-3.8448,-3.8504,-3.8914,-3.9312,-3.9714,-4.0188,-4.1062,-4.2112,-4.2938,-4.3698,-4.4406,-4.5182,-4.5423,-4.5528,-4.6055,-4.6186,-4.6284,-4.6842,-4.6998,-4.6998,-4.6998,-4.6998,-4.6998,-4.6998,-4.6998,-4.6998,-4.6998,-4.6998,-4.698,-4.7025,-4.7043,-4.716,-4.7468,-4.7554,-4.7663,-4.7951,-4.8032,-4.8132,-4.8383,-4.8421,-4.8587,-4.8874,-4.8909,-4.8909,-4.8909,-4.8909,-4.8909,-4.8909,-4.8909,-4.8909,-4.8909,-4.8909,-4.8909,-4.8909,-4.8909,-4.8909,-4.8909,-4.8909,-4.8909,-4.8909,-4.8909,-4.8909,-4.3567,-4.3301,-4.2878,-4.1542,-4.1085,0.0,-4.0104,-4.002,-4.002,-3.9799,-3.985,-3.9918,-3.9799,-3.9747,-3.9747,-3.9747,-3.985,-3.9799,-3.9506,-3.9799,-4.0171,-4.0614,-4.0662,-4.0662,-4.0776,-4.0776,-4.0918,-4.1163,-4.1051,-4.0848,-4.0654,-3.9441,-3.8643,-3.833,-3.7131,-3.7346,-3.9186,-3.8069,-3.8286,-3.9851,-3.9312,-3.8805,-3.8391,-3.8391,-3.8391,-3.8391,-3.8391,-3.8391,-3.8464,-3.8766,-3.886,-3.8914,-3.9312,-3.9731,-4.0221,-4.0631,-4.1306,-4.2112,-4.2938,-4.3698,-4.4406,-4.5182,-4.5423,-4.5528,-4.6055,-4.6186,-4.6284,-4.6842,-4.6998,-4.6998,-4.6998,-4.6998,-4.6998,-4.6998,-4.6998,-4.6998,-4.6998,-4.6998,-4.707,-4.7338,-4.7425,-4.7425,-4.7511,-4.7705,-4.7911,-4.7992,-4.8172,-4.8345,-4.8383,-4.8623,-4.882,-4.8909,-4.8909,-4.8909,-4.8909,-4.8909,-4.8909,-4.8909,-4.8909,-4.8909,-4.8909,-4.8909,-4.8909,-4.8909,-4.8909,-4.8909,-4.8909,-4.8909,-4.8909,-4.8909,-4.8909,-4.8909,-4.4096,-4.3724,-4.3234,-4.2489,-4.1745,0.0,0.0,-4.0341,-4.007,-4.007,-4.007,-4.007,-4.007,-4.007,-4.007,-4.007,-4.0221,-4.0221,-4.0087,-4.0271,-4.0534,-4.0871,-4.0888,-4.0888,-4.0888,-4.0888,-4.0965,-4.1163,-4.1174,-4.1022,-4.0634,-4.0099,-3.9398,-3.8483,-3.7822,-3.8053,-3.9228,-3.8543,-3.8676,-3.98,-3.9454,-3.8952,-3.8391,-3.8391,-3.8391,-3.8391,-3.8391,-3.8504,-3.8711,-3.8914,-3.9239,-3.9661,-3.985,-4.007,-4.0389,-4.114,-4.1923,-4.2681,-4.3457,-4.4216,-4.4906,-4.5303,-4.5423,-4.5476,-4.5887,-4.6186,-4.6447,-4.6731,-4.6888,-4.6998,-4.6998,-4.6998,-4.6998,-4.6998,-4.6998,-4.7043,-4.7205,-4.7249,-4.7338,-4.7663,-4.7852,-4.7974,-4.7974,-4.8093,-4.8249,-4.8402,-4.855,-4.866,-4.866,-4.8785,-4.8909,-4.8909,-4.8909,-4.8909,-4.8909,-4.8909,-4.8909,-4.8909,-4.8909,-4.8909,-4.8909,-4.8909,-4.8909,-4.8909,-4.8909,-4.8909,-4.8909,-4.8909,-4.8909,-4.8909,-4.8909,-4.8909,-4.4587,-4.413,-4.3606,-4.3453,-4.2506,-4.1559,0.0,0.0,0.0,-4.0104,-4.007,-4.007,-4.007,-4.007,-4.007,-4.007,-4.0271,-4.0419,-4.0468,-4.0485,-4.0583,-4.0888,-4.0888,-4.0888,-4.0888,-4.0918,-4.1059,-4.1209,-4.1498,-4.1367,-4.0648,-4.0747,-4.0159,-3.8846,-3.8647,-3.8848,-3.9378,-3.9138,-3.9272,-3.9714,-3.9662,-3.9206,-3.8504,-3.8504,-3.8504,-3.8504,-3.86,-3.8805,-3.9115,-3.9239,-3.9661,-4.0305,-4.0305,-4.0423,-4.0726,-4.167,-4.2578,-4.3525,-4.4061,-4.4785,-4.5423,-4.5423,-4.5423,-4.5511,-4.5735,-4.6137,-4.6525,-4.659,-4.6749,-4.6934,-4.6998,-4.6998,-4.7043,-4.707,-4.7088,-4.7205,-4.7493,-4.7597,-4.7705,-4.8014,-4.8231,-4.8383,-4.8383,-4.8458,-4.8587,-4.8874,-4.8909,-4.8909,-4.8909,-4.8909,-4.8909,-4.8909,-4.8909,-4.8909,-4.8909,-4.8909,-4.8909,-4.8909,-4.8909,-4.8909,-4.8909,-4.8909,-4.8909,-4.8909,-4.8909,-4.8909,-4.8909,-4.8909,-4.8909,-4.8909,-4.8909,-4.8909,-4.4587,-4.4519,-4.4282,-4.3589,-4.3284,-4.2828,-4.1508,0.0,-4.0882,-4.0206,0.0,-4.007,-4.007,0.0,0.0,-4.007,-4.0138,-4.0238,-4.0485,-4.0485,-4.0583,-4.0888,-4.0888,-4.0888,-4.0888,-4.1041,-4.1163,-4.1209,-4.1613,-4.177,-4.1481,-4.1029,-4.0612,-4.0182,-3.9346,-3.9234,-3.9973,-3.9732,-3.9804,-4.0238,-3.9782,-3.9365,-3.8914,-3.8914,-3.8914,-3.8969,-3.9312,-3.9506,-3.9558,-3.9969,-4.0188,-4.0305,-4.0305,-4.0945,-4.1822,-4.1957,-4.2906,-4.4165,-4.4251,-4.4785,-4.5423,-4.5423,-4.5563,-4.5735,-4.5786,-4.5988,-4.6284,-4.6525,-4.6637,-4.6684,-4.6934,-4.6998,-4.707,-4.7381,-4.7425,-4.7554,-4.787,-4.7951,-4.8014,-4.8307,-4.8383,-4.8383,-4.8383,-4.866,-4.8874,-4.889,-4.8909,-4.8909,-4.8909,-4.8909,-4.8909,-4.8909,-4.8909,-4.8909,-4.8909,-4.8909,-4.8909,-4.8909,-4.8909,-4.8909,-4.8909,-4.8909,-4.8909,-4.8909,-4.8909,-4.8909,-4.8909,-4.8909,-4.8909,-4.8909,-4.8909,-4.8909,-4.4587,-4.4587,-4.4502,-4.4181,-4.3758,-4.3149,-4.2083,-4.1508,-4.0984,-4.024,0.0,0.0,0.0,0.0,0.0,0.0,-4.0221,-4.0387,-4.0468,-4.0631,-4.0776,-4.0888,-4.0888,-4.0888,-4.0888,-4.1088,-4.1163,-4.1041,-4.13,-4.1408,-4.1198,-4.1093,-4.0753,-4.0263,-3.9826,-3.9765,-4.0085,-3.9853,-3.9907,-4.0288,-3.9833,-3.9506,-3.9365,-3.9115,-3.9115,-3.9365,-3.9506,-3.9765,-4.0003,-4.0238,-4.0692,-4.1283,-4.1283,-4.157,-4.2095,-4.2975,-4.3716,-4.4337,-4.4785,-4.5147,-4.5423,-4.5423,-4.5476,-4.5563,-4.5563,-4.5752,-4.5988,-4.6087,-4.6235,-4.6429,-4.6684,-4.6916,-4.7125,-4.7425,-4.7663,-4.787,-4.8172,-4.8231,-4.8307,-4.8623,-4.8695,-4.8695,-4.8695,-4.882,-4.8909,-4.8909,-4.8909,-4.8909,-4.8909,-4.8909,-4.8909,-4.8909,-4.8909,-4.8909,-4.8909,-4.8909,-4.8909,-4.8909,-4.8909,-4.8909,-4.8909,-4.8909,-4.8909,-4.8909,-4.8909,-4.8909,-4.8909,-4.8909,-4.8909,-4.8909,-4.8909,-4.8909,-4.4587,-4.4587,-4.4587,-4.4587,-4.4147,-4.3538,-4.2777,-4.2202,-4.1593,-4.0849,-4.0527,0.0,0.0,0.0,-4.0121,-4.0138,0.0,-4.0485,-4.0534,-4.0728,-4.0888,-4.0888,-4.0888,-4.0888,-4.0888,-4.1088,-4.1117,-4.0995,-4.118,-4.1209,-4.0995,-4.1117,-4.092,-4.037,-4.0318,-4.0318,-4.0308,-4.0135,-4.0178,-4.0453,-4.0003,-3.9782,-3.9782,-3.9487,-3.954,-3.9782,-3.9919,-4.0256,-4.0743,-4.0743,-4.1386,-4.2337,-4.2543,-4.2612,-4.275,-4.3871,-4.4406,-4.4665,-4.5234,-4.5423,-4.5423,-4.5423,-4.5423,-4.5423,-4.5423,-4.5563,-4.5752,-4.5887,-4.6038,-4.6284,-4.6637,-4.6916,-4.7169,-4.7536,-4.7829,-4.8093,-4.8476,-4.855,-4.8623,-4.8855,-4.8909,-4.8909,-4.8909,-4.8909,-4.8909,-4.8909,-4.8909,-4.8909,-4.8909,-4.8909,-4.8909,-4.8909,-4.8909,-4.8909,-4.8909,-4.8909,-4.8909,-4.8909,-4.8909,-4.8909,-4.8909,-4.8909,-4.8909,-4.8909,-4.8909,-4.8909,-4.8909,-4.8909,-4.8909,-4.8909,-4.8909,-4.8909,-4.4587,-4.4587,-4.4587,-4.4587,-4.4553,-4.4333,-4.3555,-4.3369,-4.3132,-4.2371,-4.166,-4.117,-4.117,-4.0578,-4.0138,-4.0288,-4.0305,0.0,0.0,-4.0697,-4.0745,-4.0871,-4.0888,-4.0888,-4.0888,-4.1088,-4.1209,-4.1209,-4.1453,-4.1453,-4.1209,-4.1209,-4.1117,-4.0884,-4.0884,-4.0884,-4.0884,-4.0884,-4.0853,-4.0888,-4.0485,-4.0305,-4.0305,-4.0238,-4.0255,-4.0288,-4.068,-4.1285,-4.1957,-4.1957,-4.2423,-4.3249,-4.3923,-4.4199,-4.4199,-4.4251,-4.4751,-4.5389,-4.5406,-4.5423,-4.5423,-4.5423,-4.5423,-4.5423,-4.5423,-4.5423,-4.5511,-4.6038,-4.6186,-4.6332,-4.6842,-4.6998,-4.716,-4.7829,-4.7992,-4.8132,-4.875,-4.889,-4.8909,-4.8909,-4.8909,-4.8909,-4.8909,-4.8909,-4.8909,-4.8909,-4.8909,-4.8909,-4.8909,-4.8909,-4.8909,-4.8909,-4.8909,-4.8909,-4.8909,-4.8909,-4.8909,-4.8909,-4.8909,-4.8909,-4.8909,-4.8909,-4.8909,-4.8909,-4.8909,-4.8909,-4.8909,-4.8909,-4.8909,-4.8909,-4.8909,-4.8909,-4.4587,-4.4587,-4.4587,-4.4587,-4.4587,-4.4367,-4.3589,-4.342,-4.32,-4.2439,-4.21,-4.1779,-4.1288,-4.1087,-4.0815,-4.0373,-4.0453,-4.06,0.0,-4.0793,-4.084,-4.0871,-4.0888,-4.0888,-4.0888,-4.0965,-4.0995,-4.0995,-4.1105,-4.1105,-4.1012,-4.0995,-4.0965,-4.0871,-4.0888,-4.0888,-4.0888,-4.0888,-4.0888,-4.0888,-4.0485,-4.0436,-4.0697,-4.0404,-4.0709,-4.1418,-4.1564,-4.2061,-4.2768,-4.2768,-4.3266,-4.3923,-4.4182,-4.4596,-4.5044,-4.5044,-4.5199,-4.5423,-4.5423,-4.5423,-4.5423,-4.5423,-4.5423,-4.5423,-4.5423,-4.5423,-4.5459,-4.5837,-4.5938,-4.6137,-4.6898,-4.724,-4.7524,-4.8114,-4.8439,-4.8642,-4.8874,-4.8909,-4.8909,-4.8909,-4.8909,-4.8909,-4.8909,-4.8909,-4.8909,-4.8909,-4.8909,-4.8909,-4.8909,-4.8909,-4.8909,-4.8909,-4.8909,-4.8909,-4.8909,-4.8909,-4.8909,-4.8909,-4.8909,-4.8909,-4.8909,-4.8909,-4.8909,-4.8909,-4.8909,-4.8909,-4.8909,-4.8909,-4.8909,-4.8909,-4.8909,-4.8909,-4.4587,-4.4587,-4.4587,-4.4587,-4.4587,-4.4451,-4.3944,-4.3826,-4.369,-4.3254,-4.2932,-4.2594,-4.2241,-4.1971,-4.1597,-4.0965,-4.0994,-4.1006,0.0,-4.084,-4.0965,-4.1088,-4.1012,-4.0888,-4.0888,-4.1041,-4.1041,-4.0918,-4.1041,-4.1041,-4.0935,-4.0888,-4.0888,-4.0888,-4.0888,-4.0888,-4.0888,-4.0888,-4.0888,-4.0888,-4.06,-4.0737,-4.1219,-4.0945,-4.1388,-4.2339,-4.2406,-4.2854,-4.3611,-4.3611,-4.4009,-4.4682,-4.4682,-4.4992,-4.5423,-4.5423,-4.5423,-4.5423,-4.5423,-4.5423,-4.5423,-4.5423,-4.5423,-4.5423,-4.5423,-4.5423,-4.5476,-4.5837,-4.5938,-4.6119,-4.7017,-4.7414,-4.771,-4.8269,-4.8587,-4.875,-4.8855,-4.8909,-4.8909,-4.8909,-4.8909,-4.8909,-4.8909,-4.8909,-4.8909,-4.8909,-4.8909,-4.8909,-4.8909,-4.8909,-4.8909,-4.8909,-4.8909,-4.8909,-4.8909,-4.8909,-4.8909,-4.8909,-4.8909,-4.8909,-4.8909,-4.8909,-4.8909,-4.8909,-4.8909,-4.8909,-4.8909,-4.8909,-4.8909,-4.8909,-4.8909,-4.8909]}]]